<?xml version="1.0" encoding="UTF-8" standalone="no" ?>
<gpx xmlns="http://www.topografix.com/GPX/1/1" xmlns:xsi="http://www.w3.org/2001/XMLSchema-instance" xsi:schemaLocation="http://www.topografix.com/GPX/1/1 http://www.topografix.com/GPX/1/1/gpx.xsd" version="1.1" creator="VisuGPX - https://www.visugpx.com">
  <metadata>
    <name>Ski Rando - Ax 3 Domaines - Tute de l\'Ours</name>
    <desc><![CDATA[Sortie solo réalisé dans le mauvais temps. Chute de neige.]]></desc>
  </metadata>
  <trk>
    <name><![CDATA[2015-01-19 15:08:28]]></name>
    <trkseg>
      <trkpt lat="42.70093" lon="1.81336">
        <ele>1381.07</ele>
        <time>2015-01-19T08:53:43Z</time>
      </trkpt>
      <trkpt lat="42.70084" lon="1.81334">
        <ele>1379.15</ele>
        <time>2015-01-19T08:54:09Z</time>
      </trkpt>
      <trkpt lat="42.70087" lon="1.81338">
        <ele>1380.59</ele>
        <time>2015-01-19T08:54:38Z</time>
      </trkpt>
      <trkpt lat="42.70086" lon="1.8134">
        <ele>1381.55</ele>
        <time>2015-01-19T08:54:41Z</time>
      </trkpt>
      <trkpt lat="42.70084" lon="1.81344">
        <ele>1381.07</ele>
        <time>2015-01-19T08:54:44Z</time>
      </trkpt>
      <trkpt lat="42.70074" lon="1.81346">
        <ele>1377.71</ele>
        <time>2015-01-19T08:54:55Z</time>
      </trkpt>
      <trkpt lat="42.70063" lon="1.8133">
        <ele>1374.82</ele>
        <time>2015-01-19T08:55:07Z</time>
      </trkpt>
      <trkpt lat="42.70056" lon="1.81324">
        <ele>1369.54</ele>
        <time>2015-01-19T08:55:16Z</time>
      </trkpt>
      <trkpt lat="42.70046" lon="1.81309">
        <ele>1362.33</ele>
        <time>2015-01-19T08:55:29Z</time>
      </trkpt>
      <trkpt lat="42.70044" lon="1.81309">
        <ele>1362.33</ele>
        <time>2015-01-19T08:55:30Z</time>
      </trkpt>
      <trkpt lat="42.70043" lon="1.81308">
        <ele>1361.84</ele>
        <time>2015-01-19T08:55:31Z</time>
      </trkpt>
      <trkpt lat="42.70041" lon="1.81308">
        <ele>1361.84</ele>
        <time>2015-01-19T08:55:32Z</time>
      </trkpt>
      <trkpt lat="42.70027" lon="1.81301">
        <ele>1354.63</ele>
        <time>2015-01-19T08:55:46Z</time>
      </trkpt>
      <trkpt lat="42.70024" lon="1.81298">
        <ele>1354.63</ele>
        <time>2015-01-19T08:55:49Z</time>
      </trkpt>
      <trkpt lat="42.70025" lon="1.81258">
        <ele>1362.81</ele>
        <time>2015-01-19T08:56:04Z</time>
      </trkpt>
      <trkpt lat="42.70013" lon="1.81239">
        <ele>1366.17</ele>
        <time>2015-01-19T08:56:19Z</time>
      </trkpt>
      <trkpt lat="42.69992" lon="1.81218">
        <ele>1375.78</ele>
        <time>2015-01-19T08:56:36Z</time>
      </trkpt>
      <trkpt lat="42.6998" lon="1.81204">
        <ele>1378.67</ele>
        <time>2015-01-19T08:56:48Z</time>
      </trkpt>
      <trkpt lat="42.69965" lon="1.81187">
        <ele>1380.11</ele>
        <time>2015-01-19T08:57:04Z</time>
      </trkpt>
      <trkpt lat="42.69945" lon="1.8117">
        <ele>1377.71</ele>
        <time>2015-01-19T08:57:22Z</time>
      </trkpt>
      <trkpt lat="42.69927" lon="1.81156">
        <ele>1377.71</ele>
        <time>2015-01-19T08:57:38Z</time>
      </trkpt>
      <trkpt lat="42.69919" lon="1.81135">
        <ele>1373.86</ele>
        <time>2015-01-19T08:57:52Z</time>
      </trkpt>
      <trkpt lat="42.69906" lon="1.81125">
        <ele>1376.26</ele>
        <time>2015-01-19T08:58:07Z</time>
      </trkpt>
      <trkpt lat="42.69905" lon="1.81124">
        <ele>1376.75</ele>
        <time>2015-01-19T08:58:08Z</time>
      </trkpt>
      <trkpt lat="42.69897" lon="1.81117">
        <ele>1381.07</ele>
        <time>2015-01-19T08:58:22Z</time>
      </trkpt>
      <trkpt lat="42.69898" lon="1.81116">
        <ele>1382.03</ele>
        <time>2015-01-19T08:58:42Z</time>
      </trkpt>
      <trkpt lat="42.69898" lon="1.81115">
        <ele>1382.99</ele>
        <time>2015-01-19T08:58:58Z</time>
      </trkpt>
      <trkpt lat="42.699" lon="1.81118">
        <ele>1383.47</ele>
        <time>2015-01-19T08:59:10Z</time>
      </trkpt>
      <trkpt lat="42.69898" lon="1.81117">
        <ele>1382.99</ele>
        <time>2015-01-19T08:59:29Z</time>
      </trkpt>
      <trkpt lat="42.69894" lon="1.81119">
        <ele>1385.88</ele>
        <time>2015-01-19T09:00:00Z</time>
      </trkpt>
      <trkpt lat="42.69894" lon="1.81119">
        <ele>1385.4</ele>
        <time>2015-01-19T09:00:12Z</time>
      </trkpt>
      <trkpt lat="42.69897" lon="1.81116">
        <ele>1384.92</ele>
        <time>2015-01-19T09:00:24Z</time>
      </trkpt>
      <trkpt lat="42.69897" lon="1.81116">
        <ele>1385.4</ele>
        <time>2015-01-19T09:00:37Z</time>
      </trkpt>
      <trkpt lat="42.69898" lon="1.81113">
        <ele>1386.84</ele>
        <time>2015-01-19T09:00:54Z</time>
      </trkpt>
      <trkpt lat="42.69898" lon="1.81113">
        <ele>1386.36</ele>
        <time>2015-01-19T09:01:13Z</time>
      </trkpt>
      <trkpt lat="42.69896" lon="1.81115">
        <ele>1385.4</ele>
        <time>2015-01-19T09:01:32Z</time>
      </trkpt>
      <trkpt lat="42.69899" lon="1.81114">
        <ele>1382.51</ele>
        <time>2015-01-19T09:01:54Z</time>
      </trkpt>
      <trkpt lat="42.69898" lon="1.81114">
        <ele>1382.51</ele>
        <time>2015-01-19T09:02:07Z</time>
      </trkpt>
      <trkpt lat="42.69895" lon="1.81117">
        <ele>1381.07</ele>
        <time>2015-01-19T09:02:34Z</time>
      </trkpt>
      <trkpt lat="42.69896" lon="1.81117">
        <ele>1383.96</ele>
        <time>2015-01-19T09:02:53Z</time>
      </trkpt>
      <trkpt lat="42.69896" lon="1.81116">
        <ele>1385.88</ele>
        <time>2015-01-19T09:03:26Z</time>
      </trkpt>
      <trkpt lat="42.69897" lon="1.81115">
        <ele>1385.4</ele>
        <time>2015-01-19T09:03:46Z</time>
      </trkpt>
      <trkpt lat="42.69897" lon="1.81115">
        <ele>1385.88</ele>
        <time>2015-01-19T09:04:15Z</time>
      </trkpt>
      <trkpt lat="42.69897" lon="1.81113">
        <ele>1384.44</ele>
        <time>2015-01-19T09:04:38Z</time>
      </trkpt>
      <trkpt lat="42.69897" lon="1.81113">
        <ele>1384.92</ele>
        <time>2015-01-19T09:04:53Z</time>
      </trkpt>
      <trkpt lat="42.69891" lon="1.81103">
        <ele>1383.47</ele>
        <time>2015-01-19T09:05:09Z</time>
      </trkpt>
      <trkpt lat="42.69884" lon="1.81091">
        <ele>1384.92</ele>
        <time>2015-01-19T09:05:23Z</time>
      </trkpt>
      <trkpt lat="42.69876" lon="1.81079">
        <ele>1386.36</ele>
        <time>2015-01-19T09:05:36Z</time>
      </trkpt>
      <trkpt lat="42.6987" lon="1.81064">
        <ele>1389.24</ele>
        <time>2015-01-19T09:05:49Z</time>
      </trkpt>
      <trkpt lat="42.69866" lon="1.81053">
        <ele>1390.68</ele>
        <time>2015-01-19T09:05:58Z</time>
      </trkpt>
      <trkpt lat="42.69862" lon="1.81038">
        <ele>1390.68</ele>
        <time>2015-01-19T09:06:12Z</time>
      </trkpt>
      <trkpt lat="42.69857" lon="1.81021">
        <ele>1393.57</ele>
        <time>2015-01-19T09:06:27Z</time>
      </trkpt>
      <trkpt lat="42.69852" lon="1.81002">
        <ele>1396.93</ele>
        <time>2015-01-19T09:06:42Z</time>
      </trkpt>
      <trkpt lat="42.69849" lon="1.80992">
        <ele>1397.89</ele>
        <time>2015-01-19T09:06:52Z</time>
      </trkpt>
      <trkpt lat="42.69844" lon="1.80975">
        <ele>1400.3</ele>
        <time>2015-01-19T09:07:07Z</time>
      </trkpt>
      <trkpt lat="42.6984" lon="1.8096">
        <ele>1400.3</ele>
        <time>2015-01-19T09:07:21Z</time>
      </trkpt>
      <trkpt lat="42.69834" lon="1.80947">
        <ele>1402.7</ele>
        <time>2015-01-19T09:07:33Z</time>
      </trkpt>
      <trkpt lat="42.69829" lon="1.80933">
        <ele>1404.62</ele>
        <time>2015-01-19T09:07:46Z</time>
      </trkpt>
      <trkpt lat="42.6982" lon="1.80916">
        <ele>1406.55</ele>
        <time>2015-01-19T09:08:02Z</time>
      </trkpt>
      <trkpt lat="42.69813" lon="1.80902">
        <ele>1407.99</ele>
        <time>2015-01-19T09:08:15Z</time>
      </trkpt>
      <trkpt lat="42.69808" lon="1.80889">
        <ele>1408.95</ele>
        <time>2015-01-19T09:08:28Z</time>
      </trkpt>
      <trkpt lat="42.69802" lon="1.80875">
        <ele>1409.91</ele>
        <time>2015-01-19T09:08:42Z</time>
      </trkpt>
      <trkpt lat="42.69791" lon="1.80866">
        <ele>1410.39</ele>
        <time>2015-01-19T09:08:56Z</time>
      </trkpt>
      <trkpt lat="42.69781" lon="1.80875">
        <ele>1411.83</ele>
        <time>2015-01-19T09:09:10Z</time>
      </trkpt>
      <trkpt lat="42.69784" lon="1.80893">
        <ele>1412.31</ele>
        <time>2015-01-19T09:09:25Z</time>
      </trkpt>
      <trkpt lat="42.69788" lon="1.80905">
        <ele>1412.79</ele>
        <time>2015-01-19T09:09:39Z</time>
      </trkpt>
      <trkpt lat="42.69787" lon="1.80902">
        <ele>1413.76</ele>
        <time>2015-01-19T09:10:01Z</time>
      </trkpt>
      <trkpt lat="42.6979" lon="1.80916">
        <ele>1412.79</ele>
        <time>2015-01-19T09:10:21Z</time>
      </trkpt>
      <trkpt lat="42.69793" lon="1.80933">
        <ele>1412.31</ele>
        <time>2015-01-19T09:10:34Z</time>
      </trkpt>
      <trkpt lat="42.69796" lon="1.80953">
        <ele>1413.28</ele>
        <time>2015-01-19T09:10:47Z</time>
      </trkpt>
      <trkpt lat="42.69801" lon="1.80973">
        <ele>1414.24</ele>
        <time>2015-01-19T09:11:01Z</time>
      </trkpt>
      <trkpt lat="42.69806" lon="1.80994">
        <ele>1417.12</ele>
        <time>2015-01-19T09:11:16Z</time>
      </trkpt>
      <trkpt lat="42.69809" lon="1.81012">
        <ele>1418.56</ele>
        <time>2015-01-19T09:11:30Z</time>
      </trkpt>
      <trkpt lat="42.69802" lon="1.81027">
        <ele>1419.52</ele>
        <time>2015-01-19T09:11:44Z</time>
      </trkpt>
      <trkpt lat="42.69795" lon="1.81028">
        <ele>1420</ele>
        <time>2015-01-19T09:11:53Z</time>
      </trkpt>
      <trkpt lat="42.69786" lon="1.81015">
        <ele>1421.45</ele>
        <time>2015-01-19T09:12:07Z</time>
      </trkpt>
      <trkpt lat="42.69781" lon="1.81">
        <ele>1423.85</ele>
        <time>2015-01-19T09:12:21Z</time>
      </trkpt>
      <trkpt lat="42.69776" lon="1.80985">
        <ele>1427.21</ele>
        <time>2015-01-19T09:12:34Z</time>
      </trkpt>
      <trkpt lat="42.69771" lon="1.8097">
        <ele>1428.66</ele>
        <time>2015-01-19T09:12:48Z</time>
      </trkpt>
      <trkpt lat="42.69766" lon="1.80958">
        <ele>1430.58</ele>
        <time>2015-01-19T09:13:00Z</time>
      </trkpt>
      <trkpt lat="42.69755" lon="1.80946">
        <ele>1434.42</ele>
        <time>2015-01-19T09:13:14Z</time>
      </trkpt>
      <trkpt lat="42.69745" lon="1.80935">
        <ele>1436.83</ele>
        <time>2015-01-19T09:13:29Z</time>
      </trkpt>
      <trkpt lat="42.69733" lon="1.80923">
        <ele>1438.75</ele>
        <time>2015-01-19T09:13:42Z</time>
      </trkpt>
      <trkpt lat="42.69724" lon="1.80911">
        <ele>1438.75</ele>
        <time>2015-01-19T09:13:55Z</time>
      </trkpt>
      <trkpt lat="42.69715" lon="1.80903">
        <ele>1440.19</ele>
        <time>2015-01-19T09:14:08Z</time>
      </trkpt>
      <trkpt lat="42.69702" lon="1.80895">
        <ele>1441.15</ele>
        <time>2015-01-19T09:14:23Z</time>
      </trkpt>
      <trkpt lat="42.69694" lon="1.80887">
        <ele>1441.15</ele>
        <time>2015-01-19T09:14:36Z</time>
      </trkpt>
      <trkpt lat="42.69694" lon="1.80887">
        <ele>1443.56</ele>
        <time>2015-01-19T09:14:52Z</time>
      </trkpt>
      <trkpt lat="42.69694" lon="1.80886">
        <ele>1444.52</ele>
        <time>2015-01-19T09:15:05Z</time>
      </trkpt>
      <trkpt lat="42.69693" lon="1.80888">
        <ele>1444.52</ele>
        <time>2015-01-19T09:15:24Z</time>
      </trkpt>
      <trkpt lat="42.69691" lon="1.80887">
        <ele>1440.19</ele>
        <time>2015-01-19T09:15:40Z</time>
      </trkpt>
      <trkpt lat="42.69691" lon="1.80889">
        <ele>1436.83</ele>
        <time>2015-01-19T09:16:02Z</time>
      </trkpt>
      <trkpt lat="42.69692" lon="1.80889">
        <ele>1439.71</ele>
        <time>2015-01-19T09:16:23Z</time>
      </trkpt>
      <trkpt lat="42.69691" lon="1.80886">
        <ele>1440.67</ele>
        <time>2015-01-19T09:16:42Z</time>
      </trkpt>
      <trkpt lat="42.69691" lon="1.80889">
        <ele>1439.71</ele>
        <time>2015-01-19T09:17:04Z</time>
      </trkpt>
      <trkpt lat="42.69692" lon="1.80887">
        <ele>1442.11</ele>
        <time>2015-01-19T09:17:25Z</time>
      </trkpt>
      <trkpt lat="42.69693" lon="1.80881">
        <ele>1440.19</ele>
        <time>2015-01-19T09:17:48Z</time>
      </trkpt>
      <trkpt lat="42.69693" lon="1.80882">
        <ele>1441.15</ele>
        <time>2015-01-19T09:18:04Z</time>
      </trkpt>
      <trkpt lat="42.69683" lon="1.80878">
        <ele>1441.63</ele>
        <time>2015-01-19T09:18:18Z</time>
      </trkpt>
      <trkpt lat="42.69676" lon="1.80874">
        <ele>1441.63</ele>
        <time>2015-01-19T09:18:25Z</time>
      </trkpt>
      <trkpt lat="42.69663" lon="1.80865">
        <ele>1441.63</ele>
        <time>2015-01-19T09:18:40Z</time>
      </trkpt>
      <trkpt lat="42.69651" lon="1.80857">
        <ele>1442.11</ele>
        <time>2015-01-19T09:18:54Z</time>
      </trkpt>
      <trkpt lat="42.69642" lon="1.80848">
        <ele>1442.11</ele>
        <time>2015-01-19T09:19:07Z</time>
      </trkpt>
      <trkpt lat="42.69631" lon="1.80841">
        <ele>1440.67</ele>
        <time>2015-01-19T09:19:20Z</time>
      </trkpt>
      <trkpt lat="42.69626" lon="1.80825">
        <ele>1439.23</ele>
        <time>2015-01-19T09:19:34Z</time>
      </trkpt>
      <trkpt lat="42.69627" lon="1.80809">
        <ele>1437.79</ele>
        <time>2015-01-19T09:19:48Z</time>
      </trkpt>
      <trkpt lat="42.69631" lon="1.80796">
        <ele>1438.27</ele>
        <time>2015-01-19T09:19:59Z</time>
      </trkpt>
      <trkpt lat="42.69638" lon="1.8078">
        <ele>1436.83</ele>
        <time>2015-01-19T09:20:13Z</time>
      </trkpt>
      <trkpt lat="42.69645" lon="1.80762">
        <ele>1437.31</ele>
        <time>2015-01-19T09:20:29Z</time>
      </trkpt>
      <trkpt lat="42.69652" lon="1.80749">
        <ele>1434.42</ele>
        <time>2015-01-19T09:20:43Z</time>
      </trkpt>
      <trkpt lat="42.69656" lon="1.80741">
        <ele>1436.35</ele>
        <time>2015-01-19T09:20:50Z</time>
      </trkpt>
      <trkpt lat="42.69663" lon="1.80724">
        <ele>1438.75</ele>
        <time>2015-01-19T09:21:03Z</time>
      </trkpt>
      <trkpt lat="42.69673" lon="1.80711">
        <ele>1438.27</ele>
        <time>2015-01-19T09:21:17Z</time>
      </trkpt>
      <trkpt lat="42.69678" lon="1.80696">
        <ele>1436.83</ele>
        <time>2015-01-19T09:21:30Z</time>
      </trkpt>
      <trkpt lat="42.69686" lon="1.8068">
        <ele>1442.6</ele>
        <time>2015-01-19T09:21:43Z</time>
      </trkpt>
      <trkpt lat="42.69694" lon="1.80665">
        <ele>1445</ele>
        <time>2015-01-19T09:21:57Z</time>
      </trkpt>
      <trkpt lat="42.69699" lon="1.80652">
        <ele>1446.92</ele>
        <time>2015-01-19T09:22:09Z</time>
      </trkpt>
      <trkpt lat="42.69705" lon="1.80635">
        <ele>1452.21</ele>
        <time>2015-01-19T09:22:20Z</time>
      </trkpt>
      <trkpt lat="42.69712" lon="1.80624">
        <ele>1452.21</ele>
        <time>2015-01-19T09:22:33Z</time>
      </trkpt>
      <trkpt lat="42.69717" lon="1.80609">
        <ele>1451.25</ele>
        <time>2015-01-19T09:22:46Z</time>
      </trkpt>
      <trkpt lat="42.6972" lon="1.80592">
        <ele>1451.73</ele>
        <time>2015-01-19T09:22:58Z</time>
      </trkpt>
      <trkpt lat="42.69722" lon="1.80579">
        <ele>1448.84</ele>
        <time>2015-01-19T09:23:10Z</time>
      </trkpt>
      <trkpt lat="42.69726" lon="1.80555">
        <ele>1452.21</ele>
        <time>2015-01-19T09:23:25Z</time>
      </trkpt>
      <trkpt lat="42.69731" lon="1.80538">
        <ele>1458.46</ele>
        <time>2015-01-19T09:23:39Z</time>
      </trkpt>
      <trkpt lat="42.69737" lon="1.80521">
        <ele>1461.82</ele>
        <time>2015-01-19T09:23:54Z</time>
      </trkpt>
      <trkpt lat="42.69745" lon="1.8051">
        <ele>1463.26</ele>
        <time>2015-01-19T09:24:05Z</time>
      </trkpt>
      <trkpt lat="42.69753" lon="1.80494">
        <ele>1466.15</ele>
        <time>2015-01-19T09:24:19Z</time>
      </trkpt>
      <trkpt lat="42.69756" lon="1.80476">
        <ele>1465.19</ele>
        <time>2015-01-19T09:24:35Z</time>
      </trkpt>
      <trkpt lat="42.69756" lon="1.80449">
        <ele>1466.15</ele>
        <time>2015-01-19T09:24:51Z</time>
      </trkpt>
      <trkpt lat="42.69756" lon="1.80426">
        <ele>1469.99</ele>
        <time>2015-01-19T09:25:05Z</time>
      </trkpt>
      <trkpt lat="42.69752" lon="1.80408">
        <ele>1469.51</ele>
        <time>2015-01-19T09:25:18Z</time>
      </trkpt>
      <trkpt lat="42.69751" lon="1.8039">
        <ele>1470.47</ele>
        <time>2015-01-19T09:25:31Z</time>
      </trkpt>
      <trkpt lat="42.69746" lon="1.80375">
        <ele>1473.84</ele>
        <time>2015-01-19T09:25:41Z</time>
      </trkpt>
      <trkpt lat="42.69743" lon="1.80356">
        <ele>1474.32</ele>
        <time>2015-01-19T09:25:56Z</time>
      </trkpt>
      <trkpt lat="42.69741" lon="1.80336">
        <ele>1479.61</ele>
        <time>2015-01-19T09:26:08Z</time>
      </trkpt>
      <trkpt lat="42.69738" lon="1.80316">
        <ele>1485.85</ele>
        <time>2015-01-19T09:26:21Z</time>
      </trkpt>
      <trkpt lat="42.69737" lon="1.80299">
        <ele>1485.37</ele>
        <time>2015-01-19T09:26:34Z</time>
      </trkpt>
      <trkpt lat="42.69736" lon="1.80281">
        <ele>1482.97</ele>
        <time>2015-01-19T09:26:47Z</time>
      </trkpt>
      <trkpt lat="42.69738" lon="1.80265">
        <ele>1477.2</ele>
        <time>2015-01-19T09:27:00Z</time>
      </trkpt>
      <trkpt lat="42.69739" lon="1.80249">
        <ele>1471.44</ele>
        <time>2015-01-19T09:27:14Z</time>
      </trkpt>
      <trkpt lat="42.69747" lon="1.80234">
        <ele>1471.92</ele>
        <time>2015-01-19T09:27:26Z</time>
      </trkpt>
      <trkpt lat="42.69755" lon="1.80222">
        <ele>1468.07</ele>
        <time>2015-01-19T09:27:39Z</time>
      </trkpt>
      <trkpt lat="42.69762" lon="1.80212">
        <ele>1465.19</ele>
        <time>2015-01-19T09:27:51Z</time>
      </trkpt>
      <trkpt lat="42.69772" lon="1.80196">
        <ele>1463.74</ele>
        <time>2015-01-19T09:28:06Z</time>
      </trkpt>
      <trkpt lat="42.69785" lon="1.80168">
        <ele>1482.01</ele>
        <time>2015-01-19T09:28:23Z</time>
      </trkpt>
      <trkpt lat="42.698" lon="1.80158">
        <ele>1488.26</ele>
        <time>2015-01-19T09:28:39Z</time>
      </trkpt>
      <trkpt lat="42.69808" lon="1.80144">
        <ele>1493.06</ele>
        <time>2015-01-19T09:28:55Z</time>
      </trkpt>
      <trkpt lat="42.69821" lon="1.80137">
        <ele>1495.47</ele>
        <time>2015-01-19T09:29:08Z</time>
      </trkpt>
      <trkpt lat="42.69836" lon="1.80126">
        <ele>1501.24</ele>
        <time>2015-01-19T09:29:24Z</time>
      </trkpt>
      <trkpt lat="42.69845" lon="1.80117">
        <ele>1503.16</ele>
        <time>2015-01-19T09:29:38Z</time>
      </trkpt>
      <trkpt lat="42.69858" lon="1.80111">
        <ele>1502.2</ele>
        <time>2015-01-19T09:29:52Z</time>
      </trkpt>
      <trkpt lat="42.69861" lon="1.80109">
        <ele>1501.24</ele>
        <time>2015-01-19T09:29:55Z</time>
      </trkpt>
      <trkpt lat="42.6988" lon="1.80107">
        <ele>1503.16</ele>
        <time>2015-01-19T09:30:09Z</time>
      </trkpt>
      <trkpt lat="42.69895" lon="1.80097">
        <ele>1508.45</ele>
        <time>2015-01-19T09:30:24Z</time>
      </trkpt>
      <trkpt lat="42.6991" lon="1.80089">
        <ele>1508.93</ele>
        <time>2015-01-19T09:30:36Z</time>
      </trkpt>
      <trkpt lat="42.69923" lon="1.80074">
        <ele>1504.6</ele>
        <time>2015-01-19T09:30:52Z</time>
      </trkpt>
      <trkpt lat="42.6993" lon="1.80062">
        <ele>1498.83</ele>
        <time>2015-01-19T09:31:04Z</time>
      </trkpt>
      <trkpt lat="42.69935" lon="1.80048">
        <ele>1496.43</ele>
        <time>2015-01-19T09:31:15Z</time>
      </trkpt>
      <trkpt lat="42.69938" lon="1.80028">
        <ele>1496.91</ele>
        <time>2015-01-19T09:31:27Z</time>
      </trkpt>
      <trkpt lat="42.69936" lon="1.80007">
        <ele>1499.31</ele>
        <time>2015-01-19T09:31:40Z</time>
      </trkpt>
      <trkpt lat="42.69933" lon="1.79987">
        <ele>1499.31</ele>
        <time>2015-01-19T09:31:54Z</time>
      </trkpt>
      <trkpt lat="42.69932" lon="1.79968">
        <ele>1498.35</ele>
        <time>2015-01-19T09:32:08Z</time>
      </trkpt>
      <trkpt lat="42.69931" lon="1.79951">
        <ele>1503.64</ele>
        <time>2015-01-19T09:32:20Z</time>
      </trkpt>
      <trkpt lat="42.69928" lon="1.79932">
        <ele>1510.37</ele>
        <time>2015-01-19T09:32:32Z</time>
      </trkpt>
      <trkpt lat="42.69925" lon="1.79913">
        <ele>1511.33</ele>
        <time>2015-01-19T09:32:47Z</time>
      </trkpt>
      <trkpt lat="42.69925" lon="1.7989">
        <ele>1515.66</ele>
        <time>2015-01-19T09:33:01Z</time>
      </trkpt>
      <trkpt lat="42.69927" lon="1.79869">
        <ele>1517.58</ele>
        <time>2015-01-19T09:33:15Z</time>
      </trkpt>
      <trkpt lat="42.6993" lon="1.79856">
        <ele>1513.73</ele>
        <time>2015-01-19T09:33:27Z</time>
      </trkpt>
      <trkpt lat="42.69933" lon="1.7984">
        <ele>1508.45</ele>
        <time>2015-01-19T09:33:39Z</time>
      </trkpt>
      <trkpt lat="42.69939" lon="1.79822">
        <ele>1502.2</ele>
        <time>2015-01-19T09:33:53Z</time>
      </trkpt>
      <trkpt lat="42.69943" lon="1.79812">
        <ele>1494.51</ele>
        <time>2015-01-19T09:34:05Z</time>
      </trkpt>
      <trkpt lat="42.69946" lon="1.79798">
        <ele>1486.82</ele>
        <time>2015-01-19T09:34:18Z</time>
      </trkpt>
      <trkpt lat="42.69949" lon="1.7978">
        <ele>1483.45</ele>
        <time>2015-01-19T09:34:31Z</time>
      </trkpt>
      <trkpt lat="42.6995" lon="1.79764">
        <ele>1488.74</ele>
        <time>2015-01-19T09:34:44Z</time>
      </trkpt>
      <trkpt lat="42.69951" lon="1.79759">
        <ele>1504.12</ele>
        <time>2015-01-19T09:35:03Z</time>
      </trkpt>
      <trkpt lat="42.69946" lon="1.79758">
        <ele>1511.33</ele>
        <time>2015-01-19T09:35:25Z</time>
      </trkpt>
      <trkpt lat="42.6994" lon="1.79754">
        <ele>1518.54</ele>
        <time>2015-01-19T09:35:53Z</time>
      </trkpt>
      <trkpt lat="42.6994" lon="1.79752">
        <ele>1519.5</ele>
        <time>2015-01-19T09:36:09Z</time>
      </trkpt>
      <trkpt lat="42.69946" lon="1.79733">
        <ele>1521.9</ele>
        <time>2015-01-19T09:36:24Z</time>
      </trkpt>
      <trkpt lat="42.69946" lon="1.79722">
        <ele>1523.83</ele>
        <time>2015-01-19T09:36:37Z</time>
      </trkpt>
      <trkpt lat="42.69945" lon="1.79714">
        <ele>1527.67</ele>
        <time>2015-01-19T09:36:54Z</time>
      </trkpt>
      <trkpt lat="42.69949" lon="1.79706">
        <ele>1533.92</ele>
        <time>2015-01-19T09:37:15Z</time>
      </trkpt>
      <trkpt lat="42.69955" lon="1.79698">
        <ele>1532</ele>
        <time>2015-01-19T09:37:25Z</time>
      </trkpt>
      <trkpt lat="42.69969" lon="1.79686">
        <ele>1529.59</ele>
        <time>2015-01-19T09:37:39Z</time>
      </trkpt>
      <trkpt lat="42.69978" lon="1.79674">
        <ele>1527.19</ele>
        <time>2015-01-19T09:37:51Z</time>
      </trkpt>
      <trkpt lat="42.6998" lon="1.79669">
        <ele>1527.19</ele>
        <time>2015-01-19T09:37:55Z</time>
      </trkpt>
      <trkpt lat="42.69982" lon="1.79662">
        <ele>1527.67</ele>
        <time>2015-01-19T09:38:00Z</time>
      </trkpt>
      <trkpt lat="42.69984" lon="1.79652">
        <ele>1528.63</ele>
        <time>2015-01-19T09:38:07Z</time>
      </trkpt>
      <trkpt lat="42.69986" lon="1.7964">
        <ele>1530.56</ele>
        <time>2015-01-19T09:38:15Z</time>
      </trkpt>
      <trkpt lat="42.69984" lon="1.79629">
        <ele>1532.96</ele>
        <time>2015-01-19T09:38:22Z</time>
      </trkpt>
      <trkpt lat="42.69984" lon="1.79624">
        <ele>1534.4</ele>
        <time>2015-01-19T09:38:26Z</time>
      </trkpt>
      <trkpt lat="42.69975" lon="1.79605">
        <ele>1539.21</ele>
        <time>2015-01-19T09:38:40Z</time>
      </trkpt>
      <trkpt lat="42.69961" lon="1.7959">
        <ele>1541.61</ele>
        <time>2015-01-19T09:38:55Z</time>
      </trkpt>
      <trkpt lat="42.69949" lon="1.79578">
        <ele>1543.53</ele>
        <time>2015-01-19T09:39:09Z</time>
      </trkpt>
      <trkpt lat="42.69936" lon="1.79566">
        <ele>1547.86</ele>
        <time>2015-01-19T09:39:23Z</time>
      </trkpt>
      <trkpt lat="42.69923" lon="1.79556">
        <ele>1552.19</ele>
        <time>2015-01-19T09:39:38Z</time>
      </trkpt>
      <trkpt lat="42.69912" lon="1.79549">
        <ele>1554.59</ele>
        <time>2015-01-19T09:39:50Z</time>
      </trkpt>
      <trkpt lat="42.69898" lon="1.79542">
        <ele>1556.03</ele>
        <time>2015-01-19T09:40:05Z</time>
      </trkpt>
      <trkpt lat="42.69884" lon="1.79536">
        <ele>1559.4</ele>
        <time>2015-01-19T09:40:18Z</time>
      </trkpt>
      <trkpt lat="42.6987" lon="1.7953">
        <ele>1561.32</ele>
        <time>2015-01-19T09:40:33Z</time>
      </trkpt>
      <trkpt lat="42.69859" lon="1.79526">
        <ele>1562.28</ele>
        <time>2015-01-19T09:40:46Z</time>
      </trkpt>
      <trkpt lat="42.69847" lon="1.79522">
        <ele>1564.68</ele>
        <time>2015-01-19T09:40:58Z</time>
      </trkpt>
      <trkpt lat="42.69835" lon="1.79519">
        <ele>1564.2</ele>
        <time>2015-01-19T09:41:12Z</time>
      </trkpt>
      <trkpt lat="42.69823" lon="1.79517">
        <ele>1565.64</ele>
        <time>2015-01-19T09:41:24Z</time>
      </trkpt>
      <trkpt lat="42.69803" lon="1.79516">
        <ele>1567.09</ele>
        <time>2015-01-19T09:41:42Z</time>
      </trkpt>
      <trkpt lat="42.69787" lon="1.79512">
        <ele>1569.97</ele>
        <time>2015-01-19T09:41:58Z</time>
      </trkpt>
      <trkpt lat="42.69775" lon="1.79509">
        <ele>1573.33</ele>
        <time>2015-01-19T09:42:11Z</time>
      </trkpt>
      <trkpt lat="42.69763" lon="1.79506">
        <ele>1573.33</ele>
        <time>2015-01-19T09:42:22Z</time>
      </trkpt>
      <trkpt lat="42.69749" lon="1.795">
        <ele>1575.74</ele>
        <time>2015-01-19T09:42:37Z</time>
      </trkpt>
      <trkpt lat="42.69738" lon="1.79498">
        <ele>1576.22</ele>
        <time>2015-01-19T09:42:48Z</time>
      </trkpt>
      <trkpt lat="42.69725" lon="1.79496">
        <ele>1576.22</ele>
        <time>2015-01-19T09:43:03Z</time>
      </trkpt>
      <trkpt lat="42.69711" lon="1.79493">
        <ele>1577.66</ele>
        <time>2015-01-19T09:43:17Z</time>
      </trkpt>
      <trkpt lat="42.69699" lon="1.7949">
        <ele>1579.1</ele>
        <time>2015-01-19T09:43:32Z</time>
      </trkpt>
      <trkpt lat="42.69686" lon="1.79488">
        <ele>1581.51</ele>
        <time>2015-01-19T09:43:47Z</time>
      </trkpt>
      <trkpt lat="42.69671" lon="1.79489">
        <ele>1584.87</ele>
        <time>2015-01-19T09:44:02Z</time>
      </trkpt>
      <trkpt lat="42.69658" lon="1.79488">
        <ele>1586.79</ele>
        <time>2015-01-19T09:44:15Z</time>
      </trkpt>
      <trkpt lat="42.69646" lon="1.79487">
        <ele>1587.27</ele>
        <time>2015-01-19T09:44:28Z</time>
      </trkpt>
      <trkpt lat="42.69632" lon="1.79483">
        <ele>1589.2</ele>
        <time>2015-01-19T09:44:42Z</time>
      </trkpt>
      <trkpt lat="42.69623" lon="1.79478">
        <ele>1590.16</ele>
        <time>2015-01-19T09:44:53Z</time>
      </trkpt>
      <trkpt lat="42.69611" lon="1.7947">
        <ele>1591.6</ele>
        <time>2015-01-19T09:45:08Z</time>
      </trkpt>
      <trkpt lat="42.69601" lon="1.79464">
        <ele>1592.56</ele>
        <time>2015-01-19T09:45:20Z</time>
      </trkpt>
      <trkpt lat="42.69592" lon="1.79457">
        <ele>1592.56</ele>
        <time>2015-01-19T09:45:33Z</time>
      </trkpt>
      <trkpt lat="42.69581" lon="1.79449">
        <ele>1593.52</ele>
        <time>2015-01-19T09:45:47Z</time>
      </trkpt>
      <trkpt lat="42.69568" lon="1.79438">
        <ele>1595.45</ele>
        <time>2015-01-19T09:46:03Z</time>
      </trkpt>
      <trkpt lat="42.69557" lon="1.7943">
        <ele>1595.93</ele>
        <time>2015-01-19T09:46:17Z</time>
      </trkpt>
      <trkpt lat="42.69544" lon="1.79425">
        <ele>1596.89</ele>
        <time>2015-01-19T09:46:30Z</time>
      </trkpt>
      <trkpt lat="42.69532" lon="1.79421">
        <ele>1597.85</ele>
        <time>2015-01-19T09:46:43Z</time>
      </trkpt>
      <trkpt lat="42.69519" lon="1.79419">
        <ele>1599.77</ele>
        <time>2015-01-19T09:46:59Z</time>
      </trkpt>
      <trkpt lat="42.69519" lon="1.7942">
        <ele>1600.73</ele>
        <time>2015-01-19T09:47:18Z</time>
      </trkpt>
      <trkpt lat="42.69516" lon="1.79423">
        <ele>1594</ele>
        <time>2015-01-19T09:47:42Z</time>
      </trkpt>
      <trkpt lat="42.69517" lon="1.79423">
        <ele>1595.93</ele>
        <time>2015-01-19T09:48:06Z</time>
      </trkpt>
      <trkpt lat="42.69512" lon="1.79417">
        <ele>1598.81</ele>
        <time>2015-01-19T09:48:24Z</time>
      </trkpt>
      <trkpt lat="42.695" lon="1.79411">
        <ele>1600.73</ele>
        <time>2015-01-19T09:48:38Z</time>
      </trkpt>
      <trkpt lat="42.69487" lon="1.79406">
        <ele>1602.66</ele>
        <time>2015-01-19T09:48:51Z</time>
      </trkpt>
      <trkpt lat="42.69484" lon="1.79405">
        <ele>1603.14</ele>
        <time>2015-01-19T09:48:54Z</time>
      </trkpt>
      <trkpt lat="42.69469" lon="1.79401">
        <ele>1604.58</ele>
        <time>2015-01-19T09:49:10Z</time>
      </trkpt>
      <trkpt lat="42.69457" lon="1.79397">
        <ele>1605.54</ele>
        <time>2015-01-19T09:49:23Z</time>
      </trkpt>
      <trkpt lat="42.69445" lon="1.79393">
        <ele>1606.98</ele>
        <time>2015-01-19T09:49:35Z</time>
      </trkpt>
      <trkpt lat="42.69433" lon="1.7939">
        <ele>1608.42</ele>
        <time>2015-01-19T09:49:48Z</time>
      </trkpt>
      <trkpt lat="42.69418" lon="1.79384">
        <ele>1610.35</ele>
        <time>2015-01-19T09:50:03Z</time>
      </trkpt>
      <trkpt lat="42.69406" lon="1.79379">
        <ele>1610.83</ele>
        <time>2015-01-19T09:50:17Z</time>
      </trkpt>
      <trkpt lat="42.69393" lon="1.79376">
        <ele>1611.79</ele>
        <time>2015-01-19T09:50:31Z</time>
      </trkpt>
      <trkpt lat="42.69382" lon="1.79372">
        <ele>1614.19</ele>
        <time>2015-01-19T09:50:43Z</time>
      </trkpt>
      <trkpt lat="42.69368" lon="1.7937">
        <ele>1615.63</ele>
        <time>2015-01-19T09:50:57Z</time>
      </trkpt>
      <trkpt lat="42.69353" lon="1.79368">
        <ele>1618.52</ele>
        <time>2015-01-19T09:51:11Z</time>
      </trkpt>
      <trkpt lat="42.69339" lon="1.79364">
        <ele>1620.92</ele>
        <time>2015-01-19T09:51:26Z</time>
      </trkpt>
      <trkpt lat="42.69329" lon="1.79361">
        <ele>1620.92</ele>
        <time>2015-01-19T09:51:37Z</time>
      </trkpt>
      <trkpt lat="42.69315" lon="1.79362">
        <ele>1620.92</ele>
        <time>2015-01-19T09:51:52Z</time>
      </trkpt>
      <trkpt lat="42.69302" lon="1.7936">
        <ele>1624.28</ele>
        <time>2015-01-19T09:52:05Z</time>
      </trkpt>
      <trkpt lat="42.69289" lon="1.79359">
        <ele>1626.21</ele>
        <time>2015-01-19T09:52:19Z</time>
      </trkpt>
      <trkpt lat="42.69276" lon="1.7936">
        <ele>1628.13</ele>
        <time>2015-01-19T09:52:33Z</time>
      </trkpt>
      <trkpt lat="42.69263" lon="1.7936">
        <ele>1629.09</ele>
        <time>2015-01-19T09:52:46Z</time>
      </trkpt>
      <trkpt lat="42.69254" lon="1.79359">
        <ele>1630.53</ele>
        <time>2015-01-19T09:52:56Z</time>
      </trkpt>
      <trkpt lat="42.69243" lon="1.79357">
        <ele>1631.01</ele>
        <time>2015-01-19T09:53:08Z</time>
      </trkpt>
      <trkpt lat="42.69239" lon="1.79357">
        <ele>1631.49</ele>
        <time>2015-01-19T09:53:12Z</time>
      </trkpt>
      <trkpt lat="42.69227" lon="1.79355">
        <ele>1633.42</ele>
        <time>2015-01-19T09:53:24Z</time>
      </trkpt>
      <trkpt lat="42.69215" lon="1.79353">
        <ele>1634.38</ele>
        <time>2015-01-19T09:53:38Z</time>
      </trkpt>
      <trkpt lat="42.69205" lon="1.7935">
        <ele>1634.86</ele>
        <time>2015-01-19T09:53:50Z</time>
      </trkpt>
      <trkpt lat="42.69192" lon="1.79349">
        <ele>1635.34</ele>
        <time>2015-01-19T09:54:06Z</time>
      </trkpt>
      <trkpt lat="42.69176" lon="1.79349">
        <ele>1636.3</ele>
        <time>2015-01-19T09:54:20Z</time>
      </trkpt>
      <trkpt lat="42.69161" lon="1.7935">
        <ele>1639.19</ele>
        <time>2015-01-19T09:54:35Z</time>
      </trkpt>
      <trkpt lat="42.6916" lon="1.7935">
        <ele>1639.67</ele>
        <time>2015-01-19T09:54:37Z</time>
      </trkpt>
      <trkpt lat="42.69148" lon="1.79348">
        <ele>1642.55</ele>
        <time>2015-01-19T09:54:49Z</time>
      </trkpt>
      <trkpt lat="42.69138" lon="1.79347">
        <ele>1642.55</ele>
        <time>2015-01-19T09:55:01Z</time>
      </trkpt>
      <trkpt lat="42.6913" lon="1.79347">
        <ele>1644.47</ele>
        <time>2015-01-19T09:55:16Z</time>
      </trkpt>
      <trkpt lat="42.69118" lon="1.79343">
        <ele>1646.4</ele>
        <time>2015-01-19T09:55:28Z</time>
      </trkpt>
      <trkpt lat="42.69107" lon="1.79342">
        <ele>1643.51</ele>
        <time>2015-01-19T09:55:40Z</time>
      </trkpt>
      <trkpt lat="42.69092" lon="1.79337">
        <ele>1643.99</ele>
        <time>2015-01-19T09:55:56Z</time>
      </trkpt>
      <trkpt lat="42.69075" lon="1.79333">
        <ele>1646.4</ele>
        <time>2015-01-19T09:56:13Z</time>
      </trkpt>
      <trkpt lat="42.69064" lon="1.79329">
        <ele>1648.8</ele>
        <time>2015-01-19T09:56:25Z</time>
      </trkpt>
      <trkpt lat="42.69054" lon="1.79325">
        <ele>1649.28</ele>
        <time>2015-01-19T09:56:37Z</time>
      </trkpt>
      <trkpt lat="42.69041" lon="1.79321">
        <ele>1650.72</ele>
        <time>2015-01-19T09:56:50Z</time>
      </trkpt>
      <trkpt lat="42.69029" lon="1.79316">
        <ele>1653.6</ele>
        <time>2015-01-19T09:57:03Z</time>
      </trkpt>
      <trkpt lat="42.69028" lon="1.79316">
        <ele>1653.6</ele>
        <time>2015-01-19T09:57:04Z</time>
      </trkpt>
      <trkpt lat="42.69014" lon="1.7931">
        <ele>1656.49</ele>
        <time>2015-01-19T09:57:19Z</time>
      </trkpt>
      <trkpt lat="42.69001" lon="1.79306">
        <ele>1658.41</ele>
        <time>2015-01-19T09:57:34Z</time>
      </trkpt>
      <trkpt lat="42.68988" lon="1.79302">
        <ele>1659.37</ele>
        <time>2015-01-19T09:57:49Z</time>
      </trkpt>
      <trkpt lat="42.68977" lon="1.79298">
        <ele>1660.33</ele>
        <time>2015-01-19T09:58:02Z</time>
      </trkpt>
      <trkpt lat="42.68963" lon="1.79293">
        <ele>1662.74</ele>
        <time>2015-01-19T09:58:17Z</time>
      </trkpt>
      <trkpt lat="42.6895" lon="1.7929">
        <ele>1662.74</ele>
        <time>2015-01-19T09:58:31Z</time>
      </trkpt>
      <trkpt lat="42.68938" lon="1.79287">
        <ele>1665.14</ele>
        <time>2015-01-19T09:58:44Z</time>
      </trkpt>
      <trkpt lat="42.68931" lon="1.79286">
        <ele>1665.14</ele>
        <time>2015-01-19T09:58:53Z</time>
      </trkpt>
      <trkpt lat="42.68916" lon="1.79286">
        <ele>1668.51</ele>
        <time>2015-01-19T09:59:08Z</time>
      </trkpt>
      <trkpt lat="42.68904" lon="1.79286">
        <ele>1668.99</ele>
        <time>2015-01-19T09:59:21Z</time>
      </trkpt>
      <trkpt lat="42.68889" lon="1.79287">
        <ele>1669.95</ele>
        <time>2015-01-19T09:59:36Z</time>
      </trkpt>
      <trkpt lat="42.68875" lon="1.7929">
        <ele>1670.91</ele>
        <time>2015-01-19T09:59:51Z</time>
      </trkpt>
      <trkpt lat="42.6886" lon="1.79288">
        <ele>1671.87</ele>
        <time>2015-01-19T10:00:05Z</time>
      </trkpt>
      <trkpt lat="42.68847" lon="1.79291">
        <ele>1673.31</ele>
        <time>2015-01-19T10:00:18Z</time>
      </trkpt>
      <trkpt lat="42.68848" lon="1.79292">
        <ele>1674.27</ele>
        <time>2015-01-19T10:00:32Z</time>
      </trkpt>
      <trkpt lat="42.68848" lon="1.79289">
        <ele>1677.16</ele>
        <time>2015-01-19T10:01:06Z</time>
      </trkpt>
      <trkpt lat="42.68847" lon="1.79291">
        <ele>1676.68</ele>
        <time>2015-01-19T10:01:25Z</time>
      </trkpt>
      <trkpt lat="42.68844" lon="1.79292">
        <ele>1676.2</ele>
        <time>2015-01-19T10:01:28Z</time>
      </trkpt>
      <trkpt lat="42.68834" lon="1.79292">
        <ele>1674.75</ele>
        <time>2015-01-19T10:01:36Z</time>
      </trkpt>
      <trkpt lat="42.68822" lon="1.79292">
        <ele>1675.72</ele>
        <time>2015-01-19T10:01:47Z</time>
      </trkpt>
      <trkpt lat="42.68808" lon="1.79293">
        <ele>1680.52</ele>
        <time>2015-01-19T10:02:01Z</time>
      </trkpt>
      <trkpt lat="42.68798" lon="1.79295">
        <ele>1681</ele>
        <time>2015-01-19T10:02:14Z</time>
      </trkpt>
      <trkpt lat="42.68788" lon="1.79298">
        <ele>1682.44</ele>
        <time>2015-01-19T10:02:27Z</time>
      </trkpt>
      <trkpt lat="42.68775" lon="1.793">
        <ele>1683.89</ele>
        <time>2015-01-19T10:02:39Z</time>
      </trkpt>
      <trkpt lat="42.68763" lon="1.79298">
        <ele>1686.77</ele>
        <time>2015-01-19T10:02:52Z</time>
      </trkpt>
      <trkpt lat="42.6875" lon="1.79301">
        <ele>1688.69</ele>
        <time>2015-01-19T10:03:05Z</time>
      </trkpt>
      <trkpt lat="42.68736" lon="1.79308">
        <ele>1690.14</ele>
        <time>2015-01-19T10:03:22Z</time>
      </trkpt>
      <trkpt lat="42.68724" lon="1.79315">
        <ele>1689.65</ele>
        <time>2015-01-19T10:03:36Z</time>
      </trkpt>
      <trkpt lat="42.68712" lon="1.79325">
        <ele>1691.1</ele>
        <time>2015-01-19T10:03:50Z</time>
      </trkpt>
      <trkpt lat="42.687" lon="1.79337">
        <ele>1693.02</ele>
        <time>2015-01-19T10:04:06Z</time>
      </trkpt>
      <trkpt lat="42.68696" lon="1.79343">
        <ele>1693.98</ele>
        <time>2015-01-19T10:04:13Z</time>
      </trkpt>
      <trkpt lat="42.68688" lon="1.79352">
        <ele>1695.9</ele>
        <time>2015-01-19T10:04:25Z</time>
      </trkpt>
      <trkpt lat="42.68679" lon="1.79363">
        <ele>1697.34</ele>
        <time>2015-01-19T10:04:39Z</time>
      </trkpt>
      <trkpt lat="42.68672" lon="1.79373">
        <ele>1694.94</ele>
        <time>2015-01-19T10:04:52Z</time>
      </trkpt>
      <trkpt lat="42.68664" lon="1.79383">
        <ele>1698.79</ele>
        <time>2015-01-19T10:05:06Z</time>
      </trkpt>
      <trkpt lat="42.68655" lon="1.79391">
        <ele>1700.71</ele>
        <time>2015-01-19T10:05:18Z</time>
      </trkpt>
      <trkpt lat="42.68646" lon="1.79403">
        <ele>1700.23</ele>
        <time>2015-01-19T10:05:32Z</time>
      </trkpt>
      <trkpt lat="42.68636" lon="1.79418">
        <ele>1701.67</ele>
        <time>2015-01-19T10:05:46Z</time>
      </trkpt>
      <trkpt lat="42.68626" lon="1.79431">
        <ele>1704.07</ele>
        <time>2015-01-19T10:06:02Z</time>
      </trkpt>
      <trkpt lat="42.68619" lon="1.79442">
        <ele>1704.55</ele>
        <time>2015-01-19T10:06:15Z</time>
      </trkpt>
      <trkpt lat="42.68613" lon="1.79454">
        <ele>1702.63</ele>
        <time>2015-01-19T10:06:29Z</time>
      </trkpt>
      <trkpt lat="42.68607" lon="1.79461">
        <ele>1701.19</ele>
        <time>2015-01-19T10:06:44Z</time>
      </trkpt>
      <trkpt lat="42.68598" lon="1.79473">
        <ele>1705.04</ele>
        <time>2015-01-19T10:06:57Z</time>
      </trkpt>
      <trkpt lat="42.68591" lon="1.79483">
        <ele>1708.88</ele>
        <time>2015-01-19T10:07:09Z</time>
      </trkpt>
      <trkpt lat="42.68586" lon="1.79494">
        <ele>1712.73</ele>
        <time>2015-01-19T10:07:22Z</time>
      </trkpt>
      <trkpt lat="42.68575" lon="1.79499">
        <ele>1715.13</ele>
        <time>2015-01-19T10:07:34Z</time>
      </trkpt>
      <trkpt lat="42.68575" lon="1.79501">
        <ele>1715.13</ele>
        <time>2015-01-19T10:07:50Z</time>
      </trkpt>
      <trkpt lat="42.68575" lon="1.79504">
        <ele>1713.21</ele>
        <time>2015-01-19T10:08:17Z</time>
      </trkpt>
      <trkpt lat="42.68571" lon="1.795">
        <ele>1717.05</ele>
        <time>2015-01-19T10:08:42Z</time>
      </trkpt>
      <trkpt lat="42.6857" lon="1.79501">
        <ele>1718.49</ele>
        <time>2015-01-19T10:08:57Z</time>
      </trkpt>
      <trkpt lat="42.68551" lon="1.79502">
        <ele>1715.61</ele>
        <time>2015-01-19T10:09:13Z</time>
      </trkpt>
      <trkpt lat="42.6855" lon="1.79502">
        <ele>1715.61</ele>
        <time>2015-01-19T10:09:14Z</time>
      </trkpt>
      <trkpt lat="42.68534" lon="1.795">
        <ele>1717.53</ele>
        <time>2015-01-19T10:09:29Z</time>
      </trkpt>
      <trkpt lat="42.68518" lon="1.79499">
        <ele>1715.61</ele>
        <time>2015-01-19T10:09:44Z</time>
      </trkpt>
      <trkpt lat="42.68502" lon="1.79493">
        <ele>1715.61</ele>
        <time>2015-01-19T10:09:58Z</time>
      </trkpt>
      <trkpt lat="42.68501" lon="1.79492">
        <ele>1716.09</ele>
        <time>2015-01-19T10:09:59Z</time>
      </trkpt>
      <trkpt lat="42.68491" lon="1.79473">
        <ele>1716.09</ele>
        <time>2015-01-19T10:10:13Z</time>
      </trkpt>
      <trkpt lat="42.68489" lon="1.7947">
        <ele>1715.61</ele>
        <time>2015-01-19T10:10:30Z</time>
      </trkpt>
      <trkpt lat="42.68488" lon="1.79469">
        <ele>1716.57</ele>
        <time>2015-01-19T10:10:36Z</time>
      </trkpt>
      <trkpt lat="42.68487" lon="1.79454">
        <ele>1718.49</ele>
        <time>2015-01-19T10:10:48Z</time>
      </trkpt>
      <trkpt lat="42.68486" lon="1.79448">
        <ele>1718.97</ele>
        <time>2015-01-19T10:10:52Z</time>
      </trkpt>
      <trkpt lat="42.68485" lon="1.79432">
        <ele>1718.01</ele>
        <time>2015-01-19T10:11:01Z</time>
      </trkpt>
      <trkpt lat="42.68482" lon="1.79421">
        <ele>1717.53</ele>
        <time>2015-01-19T10:11:08Z</time>
      </trkpt>
      <trkpt lat="42.6848" lon="1.79413">
        <ele>1717.05</ele>
        <time>2015-01-19T10:11:13Z</time>
      </trkpt>
      <trkpt lat="42.68475" lon="1.79395">
        <ele>1715.61</ele>
        <time>2015-01-19T10:11:25Z</time>
      </trkpt>
      <trkpt lat="42.68471" lon="1.79384">
        <ele>1714.65</ele>
        <time>2015-01-19T10:11:32Z</time>
      </trkpt>
      <trkpt lat="42.68464" lon="1.79368">
        <ele>1712.73</ele>
        <time>2015-01-19T10:11:43Z</time>
      </trkpt>
      <trkpt lat="42.68462" lon="1.79355">
        <ele>1712.25</ele>
        <time>2015-01-19T10:11:51Z</time>
      </trkpt>
      <trkpt lat="42.68458" lon="1.79347">
        <ele>1711.28</ele>
        <time>2015-01-19T10:11:57Z</time>
      </trkpt>
      <trkpt lat="42.68456" lon="1.79338">
        <ele>1711.28</ele>
        <time>2015-01-19T10:12:04Z</time>
      </trkpt>
      <trkpt lat="42.68447" lon="1.79316">
        <ele>1713.21</ele>
        <time>2015-01-19T10:12:19Z</time>
      </trkpt>
      <trkpt lat="42.68441" lon="1.79305">
        <ele>1713.21</ele>
        <time>2015-01-19T10:12:27Z</time>
      </trkpt>
      <trkpt lat="42.68428" lon="1.79287">
        <ele>1715.61</ele>
        <time>2015-01-19T10:12:43Z</time>
      </trkpt>
      <trkpt lat="42.68423" lon="1.79279">
        <ele>1715.13</ele>
        <time>2015-01-19T10:12:50Z</time>
      </trkpt>
      <trkpt lat="42.68412" lon="1.79263">
        <ele>1712.25</ele>
        <time>2015-01-19T10:13:04Z</time>
      </trkpt>
      <trkpt lat="42.68408" lon="1.79256">
        <ele>1712.25</ele>
        <time>2015-01-19T10:13:09Z</time>
      </trkpt>
      <trkpt lat="42.68397" lon="1.79237">
        <ele>1712.73</ele>
        <time>2015-01-19T10:13:23Z</time>
      </trkpt>
      <trkpt lat="42.68395" lon="1.79233">
        <ele>1712.25</ele>
        <time>2015-01-19T10:13:26Z</time>
      </trkpt>
      <trkpt lat="42.68384" lon="1.79209">
        <ele>1713.69</ele>
        <time>2015-01-19T10:13:43Z</time>
      </trkpt>
      <trkpt lat="42.68372" lon="1.79189">
        <ele>1714.17</ele>
        <time>2015-01-19T10:13:59Z</time>
      </trkpt>
      <trkpt lat="42.68365" lon="1.79176">
        <ele>1714.17</ele>
        <time>2015-01-19T10:14:09Z</time>
      </trkpt>
      <trkpt lat="42.68358" lon="1.79164">
        <ele>1713.69</ele>
        <time>2015-01-19T10:14:19Z</time>
      </trkpt>
      <trkpt lat="42.68349" lon="1.79153">
        <ele>1713.69</ele>
        <time>2015-01-19T10:14:30Z</time>
      </trkpt>
      <trkpt lat="42.68345" lon="1.79147">
        <ele>1713.69</ele>
        <time>2015-01-19T10:14:44Z</time>
      </trkpt>
      <trkpt lat="42.68345" lon="1.79149">
        <ele>1714.17</ele>
        <time>2015-01-19T10:15:08Z</time>
      </trkpt>
      <trkpt lat="42.68341" lon="1.79142">
        <ele>1715.13</ele>
        <time>2015-01-19T10:15:15Z</time>
      </trkpt>
      <trkpt lat="42.68336" lon="1.79137">
        <ele>1715.61</ele>
        <time>2015-01-19T10:15:20Z</time>
      </trkpt>
      <trkpt lat="42.68327" lon="1.79127">
        <ele>1714.65</ele>
        <time>2015-01-19T10:15:31Z</time>
      </trkpt>
      <trkpt lat="42.68318" lon="1.79115">
        <ele>1712.73</ele>
        <time>2015-01-19T10:15:42Z</time>
      </trkpt>
      <trkpt lat="42.68316" lon="1.79112">
        <ele>1712.25</ele>
        <time>2015-01-19T10:15:45Z</time>
      </trkpt>
      <trkpt lat="42.68314" lon="1.79109">
        <ele>1711.76</ele>
        <time>2015-01-19T10:15:48Z</time>
      </trkpt>
      <trkpt lat="42.68311" lon="1.79102">
        <ele>1710.8</ele>
        <time>2015-01-19T10:15:52Z</time>
      </trkpt>
      <trkpt lat="42.68304" lon="1.79082">
        <ele>1711.28</ele>
        <time>2015-01-19T10:16:04Z</time>
      </trkpt>
      <trkpt lat="42.68297" lon="1.79063">
        <ele>1711.76</ele>
        <time>2015-01-19T10:16:16Z</time>
      </trkpt>
      <trkpt lat="42.68295" lon="1.79044">
        <ele>1712.25</ele>
        <time>2015-01-19T10:16:29Z</time>
      </trkpt>
      <trkpt lat="42.68294" lon="1.79036">
        <ele>1711.76</ele>
        <time>2015-01-19T10:16:36Z</time>
      </trkpt>
      <trkpt lat="42.6829" lon="1.79022">
        <ele>1713.21</ele>
        <time>2015-01-19T10:16:46Z</time>
      </trkpt>
      <trkpt lat="42.68288" lon="1.79014">
        <ele>1713.69</ele>
        <time>2015-01-19T10:16:51Z</time>
      </trkpt>
      <trkpt lat="42.68287" lon="1.79011">
        <ele>1714.17</ele>
        <time>2015-01-19T10:16:53Z</time>
      </trkpt>
      <trkpt lat="42.68278" lon="1.78991">
        <ele>1714.65</ele>
        <time>2015-01-19T10:17:09Z</time>
      </trkpt>
      <trkpt lat="42.68277" lon="1.7899">
        <ele>1714.17</ele>
        <time>2015-01-19T10:17:10Z</time>
      </trkpt>
      <trkpt lat="42.68268" lon="1.78983">
        <ele>1712.73</ele>
        <time>2015-01-19T10:17:19Z</time>
      </trkpt>
      <trkpt lat="42.68266" lon="1.78982">
        <ele>1711.76</ele>
        <time>2015-01-19T10:17:21Z</time>
      </trkpt>
      <trkpt lat="42.68261" lon="1.78979">
        <ele>1710.8</ele>
        <time>2015-01-19T10:17:26Z</time>
      </trkpt>
      <trkpt lat="42.68255" lon="1.78976">
        <ele>1709.36</ele>
        <time>2015-01-19T10:17:32Z</time>
      </trkpt>
      <trkpt lat="42.68237" lon="1.78969">
        <ele>1708.4</ele>
        <time>2015-01-19T10:17:47Z</time>
      </trkpt>
      <trkpt lat="42.68226" lon="1.78965">
        <ele>1708.4</ele>
        <time>2015-01-19T10:17:56Z</time>
      </trkpt>
      <trkpt lat="42.68213" lon="1.7896">
        <ele>1706.96</ele>
        <time>2015-01-19T10:18:08Z</time>
      </trkpt>
      <trkpt lat="42.68198" lon="1.78956">
        <ele>1705.52</ele>
        <time>2015-01-19T10:18:21Z</time>
      </trkpt>
      <trkpt lat="42.68183" lon="1.78955">
        <ele>1706.96</ele>
        <time>2015-01-19T10:18:33Z</time>
      </trkpt>
      <trkpt lat="42.68176" lon="1.78953">
        <ele>1705.52</ele>
        <time>2015-01-19T10:18:39Z</time>
      </trkpt>
      <trkpt lat="42.68158" lon="1.78946">
        <ele>1704.07</ele>
        <time>2015-01-19T10:18:55Z</time>
      </trkpt>
      <trkpt lat="42.68144" lon="1.78938">
        <ele>1703.59</ele>
        <time>2015-01-19T10:19:08Z</time>
      </trkpt>
      <trkpt lat="42.68135" lon="1.78933">
        <ele>1703.59</ele>
        <time>2015-01-19T10:19:16Z</time>
      </trkpt>
      <trkpt lat="42.68133" lon="1.78933">
        <ele>1704.55</ele>
        <time>2015-01-19T10:19:18Z</time>
      </trkpt>
      <trkpt lat="42.68119" lon="1.78925">
        <ele>1705.52</ele>
        <time>2015-01-19T10:19:32Z</time>
      </trkpt>
      <trkpt lat="42.68106" lon="1.78918">
        <ele>1706</ele>
        <time>2015-01-19T10:19:45Z</time>
      </trkpt>
      <trkpt lat="42.68102" lon="1.78915">
        <ele>1706.48</ele>
        <time>2015-01-19T10:19:49Z</time>
      </trkpt>
      <trkpt lat="42.68086" lon="1.78902">
        <ele>1707.44</ele>
        <time>2015-01-19T10:20:04Z</time>
      </trkpt>
      <trkpt lat="42.68079" lon="1.78899">
        <ele>1707.92</ele>
        <time>2015-01-19T10:20:10Z</time>
      </trkpt>
      <trkpt lat="42.68071" lon="1.78894">
        <ele>1707.44</ele>
        <time>2015-01-19T10:20:18Z</time>
      </trkpt>
      <trkpt lat="42.68055" lon="1.78888">
        <ele>1709.36</ele>
        <time>2015-01-19T10:20:32Z</time>
      </trkpt>
      <trkpt lat="42.68049" lon="1.78885">
        <ele>1710.32</ele>
        <time>2015-01-19T10:20:38Z</time>
      </trkpt>
      <trkpt lat="42.68036" lon="1.7888">
        <ele>1711.28</ele>
        <time>2015-01-19T10:20:47Z</time>
      </trkpt>
      <trkpt lat="42.6802" lon="1.78871">
        <ele>1709.84</ele>
        <time>2015-01-19T10:21:00Z</time>
      </trkpt>
      <trkpt lat="42.68019" lon="1.78871">
        <ele>1709.84</ele>
        <time>2015-01-19T10:21:01Z</time>
      </trkpt>
      <trkpt lat="42.68002" lon="1.78864">
        <ele>1706.96</ele>
        <time>2015-01-19T10:21:15Z</time>
      </trkpt>
      <trkpt lat="42.67986" lon="1.78859">
        <ele>1706</ele>
        <time>2015-01-19T10:21:29Z</time>
      </trkpt>
      <trkpt lat="42.67978" lon="1.78857">
        <ele>1707.44</ele>
        <time>2015-01-19T10:21:38Z</time>
      </trkpt>
      <trkpt lat="42.67966" lon="1.78853">
        <ele>1707.44</ele>
        <time>2015-01-19T10:21:47Z</time>
      </trkpt>
      <trkpt lat="42.67948" lon="1.78847">
        <ele>1708.4</ele>
        <time>2015-01-19T10:22:02Z</time>
      </trkpt>
      <trkpt lat="42.67934" lon="1.78841">
        <ele>1708.88</ele>
        <time>2015-01-19T10:22:15Z</time>
      </trkpt>
      <trkpt lat="42.67931" lon="1.78842">
        <ele>1709.36</ele>
        <time>2015-01-19T10:22:17Z</time>
      </trkpt>
      <trkpt lat="42.67926" lon="1.7884">
        <ele>1709.36</ele>
        <time>2015-01-19T10:22:21Z</time>
      </trkpt>
      <trkpt lat="42.67915" lon="1.78838">
        <ele>1708.88</ele>
        <time>2015-01-19T10:22:30Z</time>
      </trkpt>
      <trkpt lat="42.67897" lon="1.78832">
        <ele>1706.96</ele>
        <time>2015-01-19T10:22:44Z</time>
      </trkpt>
      <trkpt lat="42.67893" lon="1.78831">
        <ele>1706</ele>
        <time>2015-01-19T10:22:48Z</time>
      </trkpt>
      <trkpt lat="42.67876" lon="1.78825">
        <ele>1706</ele>
        <time>2015-01-19T10:23:02Z</time>
      </trkpt>
      <trkpt lat="42.6787" lon="1.78823">
        <ele>1706.48</ele>
        <time>2015-01-19T10:23:06Z</time>
      </trkpt>
      <trkpt lat="42.67861" lon="1.78821">
        <ele>1706</ele>
        <time>2015-01-19T10:23:13Z</time>
      </trkpt>
      <trkpt lat="42.67858" lon="1.7882">
        <ele>1706</ele>
        <time>2015-01-19T10:23:16Z</time>
      </trkpt>
      <trkpt lat="42.67852" lon="1.78819">
        <ele>1706.48</ele>
        <time>2015-01-19T10:23:20Z</time>
      </trkpt>
      <trkpt lat="42.67845" lon="1.78817">
        <ele>1707.44</ele>
        <time>2015-01-19T10:23:26Z</time>
      </trkpt>
      <trkpt lat="42.67835" lon="1.78815">
        <ele>1708.4</ele>
        <time>2015-01-19T10:23:35Z</time>
      </trkpt>
      <trkpt lat="42.67832" lon="1.78816">
        <ele>1708.88</ele>
        <time>2015-01-19T10:23:37Z</time>
      </trkpt>
      <trkpt lat="42.67817" lon="1.78815">
        <ele>1708.4</ele>
        <time>2015-01-19T10:23:50Z</time>
      </trkpt>
      <trkpt lat="42.67802" lon="1.78813">
        <ele>1709.36</ele>
        <time>2015-01-19T10:24:03Z</time>
      </trkpt>
      <trkpt lat="42.67787" lon="1.78812">
        <ele>1708.4</ele>
        <time>2015-01-19T10:24:16Z</time>
      </trkpt>
      <trkpt lat="42.67772" lon="1.78811">
        <ele>1708.4</ele>
        <time>2015-01-19T10:24:30Z</time>
      </trkpt>
      <trkpt lat="42.67762" lon="1.7881">
        <ele>1707.92</ele>
        <time>2015-01-19T10:24:39Z</time>
      </trkpt>
      <trkpt lat="42.67757" lon="1.7881">
        <ele>1709.36</ele>
        <time>2015-01-19T10:24:45Z</time>
      </trkpt>
      <trkpt lat="42.67742" lon="1.78809">
        <ele>1711.76</ele>
        <time>2015-01-19T10:24:58Z</time>
      </trkpt>
      <trkpt lat="42.67729" lon="1.78809">
        <ele>1716.09</ele>
        <time>2015-01-19T10:25:08Z</time>
      </trkpt>
      <trkpt lat="42.67727" lon="1.78809">
        <ele>1717.05</ele>
        <time>2015-01-19T10:25:10Z</time>
      </trkpt>
      <trkpt lat="42.67723" lon="1.78809">
        <ele>1718.97</ele>
        <time>2015-01-19T10:25:13Z</time>
      </trkpt>
      <trkpt lat="42.67709" lon="1.78808">
        <ele>1724.74</ele>
        <time>2015-01-19T10:25:27Z</time>
      </trkpt>
      <trkpt lat="42.67699" lon="1.78809">
        <ele>1724.74</ele>
        <time>2015-01-19T10:25:35Z</time>
      </trkpt>
      <trkpt lat="42.67689" lon="1.7881">
        <ele>1723.78</ele>
        <time>2015-01-19T10:25:50Z</time>
      </trkpt>
      <trkpt lat="42.6769" lon="1.78806">
        <ele>1722.34</ele>
        <time>2015-01-19T10:26:16Z</time>
      </trkpt>
      <trkpt lat="42.67682" lon="1.78805">
        <ele>1722.34</ele>
        <time>2015-01-19T10:26:30Z</time>
      </trkpt>
      <trkpt lat="42.67666" lon="1.78803">
        <ele>1721.38</ele>
        <time>2015-01-19T10:26:43Z</time>
      </trkpt>
      <trkpt lat="42.67652" lon="1.78808">
        <ele>1720.42</ele>
        <time>2015-01-19T10:26:54Z</time>
      </trkpt>
      <trkpt lat="42.67638" lon="1.78807">
        <ele>1718.49</ele>
        <time>2015-01-19T10:27:07Z</time>
      </trkpt>
      <trkpt lat="42.67632" lon="1.78801">
        <ele>1717.53</ele>
        <time>2015-01-19T10:27:16Z</time>
      </trkpt>
      <trkpt lat="42.67625" lon="1.78777">
        <ele>1717.53</ele>
        <time>2015-01-19T10:27:32Z</time>
      </trkpt>
      <trkpt lat="42.67625" lon="1.78772">
        <ele>1717.05</ele>
        <time>2015-01-19T10:27:35Z</time>
      </trkpt>
      <trkpt lat="42.67626" lon="1.7875">
        <ele>1713.69</ele>
        <time>2015-01-19T10:27:49Z</time>
      </trkpt>
      <trkpt lat="42.67626" lon="1.78747">
        <ele>1713.69</ele>
        <time>2015-01-19T10:27:51Z</time>
      </trkpt>
      <trkpt lat="42.67628" lon="1.78734">
        <ele>1712.25</ele>
        <time>2015-01-19T10:28:00Z</time>
      </trkpt>
      <trkpt lat="42.6763" lon="1.7872">
        <ele>1710.8</ele>
        <time>2015-01-19T10:28:10Z</time>
      </trkpt>
      <trkpt lat="42.6763" lon="1.78704">
        <ele>1711.76</ele>
        <time>2015-01-19T10:28:20Z</time>
      </trkpt>
      <trkpt lat="42.67632" lon="1.78697">
        <ele>1711.76</ele>
        <time>2015-01-19T10:28:25Z</time>
      </trkpt>
      <trkpt lat="42.67634" lon="1.78676">
        <ele>1710.8</ele>
        <time>2015-01-19T10:28:39Z</time>
      </trkpt>
      <trkpt lat="42.67633" lon="1.78671">
        <ele>1710.8</ele>
        <time>2015-01-19T10:28:42Z</time>
      </trkpt>
      <trkpt lat="42.67634" lon="1.78667">
        <ele>1710.8</ele>
        <time>2015-01-19T10:28:45Z</time>
      </trkpt>
      <trkpt lat="42.67636" lon="1.78661">
        <ele>1711.76</ele>
        <time>2015-01-19T10:28:50Z</time>
      </trkpt>
      <trkpt lat="42.67638" lon="1.78655">
        <ele>1712.25</ele>
        <time>2015-01-19T10:28:55Z</time>
      </trkpt>
      <trkpt lat="42.67641" lon="1.78631">
        <ele>1713.69</ele>
        <time>2015-01-19T10:29:10Z</time>
      </trkpt>
      <trkpt lat="42.67639" lon="1.78614">
        <ele>1715.61</ele>
        <time>2015-01-19T10:29:23Z</time>
      </trkpt>
      <trkpt lat="42.67636" lon="1.78602">
        <ele>1718.97</ele>
        <time>2015-01-19T10:29:36Z</time>
      </trkpt>
      <trkpt lat="42.67634" lon="1.78589">
        <ele>1718.49</ele>
        <time>2015-01-19T10:29:50Z</time>
      </trkpt>
      <trkpt lat="42.6763" lon="1.78581">
        <ele>1720.9</ele>
        <time>2015-01-19T10:30:06Z</time>
      </trkpt>
      <trkpt lat="42.67627" lon="1.78576">
        <ele>1721.38</ele>
        <time>2015-01-19T10:30:25Z</time>
      </trkpt>
      <trkpt lat="42.67622" lon="1.78567">
        <ele>1723.3</ele>
        <time>2015-01-19T10:30:38Z</time>
      </trkpt>
      <trkpt lat="42.67612" lon="1.78557">
        <ele>1721.86</ele>
        <time>2015-01-19T10:30:53Z</time>
      </trkpt>
      <trkpt lat="42.6761" lon="1.78555">
        <ele>1719.94</ele>
        <time>2015-01-19T10:31:06Z</time>
      </trkpt>
      <trkpt lat="42.67604" lon="1.78553">
        <ele>1720.9</ele>
        <time>2015-01-19T10:31:21Z</time>
      </trkpt>
      <trkpt lat="42.67598" lon="1.78546">
        <ele>1725.22</ele>
        <time>2015-01-19T10:31:35Z</time>
      </trkpt>
      <trkpt lat="42.6759" lon="1.78544">
        <ele>1730.51</ele>
        <time>2015-01-19T10:31:49Z</time>
      </trkpt>
      <trkpt lat="42.67583" lon="1.78539">
        <ele>1737.72</ele>
        <time>2015-01-19T10:32:04Z</time>
      </trkpt>
      <trkpt lat="42.67574" lon="1.78536">
        <ele>1744.45</ele>
        <time>2015-01-19T10:32:19Z</time>
      </trkpt>
      <trkpt lat="42.67569" lon="1.78533">
        <ele>1746.85</ele>
        <time>2015-01-19T10:32:33Z</time>
      </trkpt>
      <trkpt lat="42.67562" lon="1.78536">
        <ele>1751.66</ele>
        <time>2015-01-19T10:32:49Z</time>
      </trkpt>
      <trkpt lat="42.67555" lon="1.78538">
        <ele>1755.02</ele>
        <time>2015-01-19T10:33:03Z</time>
      </trkpt>
      <trkpt lat="42.67547" lon="1.78536">
        <ele>1760.79</ele>
        <time>2015-01-19T10:33:20Z</time>
      </trkpt>
      <trkpt lat="42.6754" lon="1.78536">
        <ele>1763.68</ele>
        <time>2015-01-19T10:33:33Z</time>
      </trkpt>
      <trkpt lat="42.67533" lon="1.78532">
        <ele>1767.04</ele>
        <time>2015-01-19T10:33:47Z</time>
      </trkpt>
      <trkpt lat="42.67523" lon="1.78525">
        <ele>1769.92</ele>
        <time>2015-01-19T10:34:01Z</time>
      </trkpt>
      <trkpt lat="42.67515" lon="1.78523">
        <ele>1769.44</ele>
        <time>2015-01-19T10:34:14Z</time>
      </trkpt>
      <trkpt lat="42.67509" lon="1.78523">
        <ele>1765.6</ele>
        <time>2015-01-19T10:34:28Z</time>
      </trkpt>
      <trkpt lat="42.67501" lon="1.78524">
        <ele>1767.52</ele>
        <time>2015-01-19T10:34:41Z</time>
      </trkpt>
      <trkpt lat="42.67496" lon="1.7853">
        <ele>1772.81</ele>
        <time>2015-01-19T10:34:54Z</time>
      </trkpt>
      <trkpt lat="42.67495" lon="1.78536">
        <ele>1774.25</ele>
        <time>2015-01-19T10:35:08Z</time>
      </trkpt>
      <trkpt lat="42.67492" lon="1.78539">
        <ele>1775.21</ele>
        <time>2015-01-19T10:35:21Z</time>
      </trkpt>
      <trkpt lat="42.67493" lon="1.78545">
        <ele>1777.13</ele>
        <time>2015-01-19T10:35:34Z</time>
      </trkpt>
      <trkpt lat="42.67488" lon="1.78549">
        <ele>1779.54</ele>
        <time>2015-01-19T10:35:49Z</time>
      </trkpt>
      <trkpt lat="42.67487" lon="1.78556">
        <ele>1780.98</ele>
        <time>2015-01-19T10:36:04Z</time>
      </trkpt>
      <trkpt lat="42.67483" lon="1.78556">
        <ele>1782.9</ele>
        <time>2015-01-19T10:36:20Z</time>
      </trkpt>
      <trkpt lat="42.67477" lon="1.78558">
        <ele>1785.31</ele>
        <time>2015-01-19T10:36:34Z</time>
      </trkpt>
      <trkpt lat="42.67477" lon="1.78564">
        <ele>1788.67</ele>
        <time>2015-01-19T10:36:47Z</time>
      </trkpt>
      <trkpt lat="42.67482" lon="1.78575">
        <ele>1790.59</ele>
        <time>2015-01-19T10:37:02Z</time>
      </trkpt>
      <trkpt lat="42.67484" lon="1.78581">
        <ele>1790.59</ele>
        <time>2015-01-19T10:37:14Z</time>
      </trkpt>
      <trkpt lat="42.67481" lon="1.78588">
        <ele>1789.63</ele>
        <time>2015-01-19T10:37:28Z</time>
      </trkpt>
      <trkpt lat="42.67481" lon="1.78599">
        <ele>1793.96</ele>
        <time>2015-01-19T10:37:43Z</time>
      </trkpt>
      <trkpt lat="42.67481" lon="1.7861">
        <ele>1798.28</ele>
        <time>2015-01-19T10:37:56Z</time>
      </trkpt>
      <trkpt lat="42.6748" lon="1.78621">
        <ele>1800.69</ele>
        <time>2015-01-19T10:38:11Z</time>
      </trkpt>
      <trkpt lat="42.67482" lon="1.78633">
        <ele>1803.57</ele>
        <time>2015-01-19T10:38:25Z</time>
      </trkpt>
      <trkpt lat="42.67481" lon="1.78645">
        <ele>1805.97</ele>
        <time>2015-01-19T10:38:38Z</time>
      </trkpt>
      <trkpt lat="42.67478" lon="1.78658">
        <ele>1808.86</ele>
        <time>2015-01-19T10:38:52Z</time>
      </trkpt>
      <trkpt lat="42.67475" lon="1.7867">
        <ele>1811.26</ele>
        <time>2015-01-19T10:39:08Z</time>
      </trkpt>
      <trkpt lat="42.6747" lon="1.78664">
        <ele>1809.82</ele>
        <time>2015-01-19T10:39:18Z</time>
      </trkpt>
      <trkpt lat="42.6746" lon="1.78655">
        <ele>1806.45</ele>
        <time>2015-01-19T10:39:32Z</time>
      </trkpt>
      <trkpt lat="42.67452" lon="1.7865">
        <ele>1808.38</ele>
        <time>2015-01-19T10:39:45Z</time>
      </trkpt>
      <trkpt lat="42.67446" lon="1.78652">
        <ele>1815.59</ele>
        <time>2015-01-19T10:40:01Z</time>
      </trkpt>
      <trkpt lat="42.67446" lon="1.78663">
        <ele>1819.43</ele>
        <time>2015-01-19T10:40:15Z</time>
      </trkpt>
      <trkpt lat="42.67438" lon="1.78666">
        <ele>1821.35</ele>
        <time>2015-01-19T10:40:31Z</time>
      </trkpt>
      <trkpt lat="42.6744" lon="1.78666">
        <ele>1823.28</ele>
        <time>2015-01-19T10:40:54Z</time>
      </trkpt>
      <trkpt lat="42.67438" lon="1.7867">
        <ele>1822.8</ele>
        <time>2015-01-19T10:41:14Z</time>
      </trkpt>
      <trkpt lat="42.67433" lon="1.7868">
        <ele>1825.2</ele>
        <time>2015-01-19T10:41:30Z</time>
      </trkpt>
      <trkpt lat="42.67426" lon="1.78685">
        <ele>1827.6</ele>
        <time>2015-01-19T10:41:45Z</time>
      </trkpt>
      <trkpt lat="42.67419" lon="1.78687">
        <ele>1829.05</ele>
        <time>2015-01-19T10:42:01Z</time>
      </trkpt>
      <trkpt lat="42.67412" lon="1.78688">
        <ele>1831.45</ele>
        <time>2015-01-19T10:42:14Z</time>
      </trkpt>
      <trkpt lat="42.67408" lon="1.78696">
        <ele>1834.33</ele>
        <time>2015-01-19T10:42:30Z</time>
      </trkpt>
      <trkpt lat="42.67401" lon="1.78698">
        <ele>1834.81</ele>
        <time>2015-01-19T10:42:47Z</time>
      </trkpt>
      <trkpt lat="42.67395" lon="1.78703">
        <ele>1834.33</ele>
        <time>2015-01-19T10:43:03Z</time>
      </trkpt>
      <trkpt lat="42.67395" lon="1.78704">
        <ele>1836.74</ele>
        <time>2015-01-19T10:43:22Z</time>
      </trkpt>
      <trkpt lat="42.67399" lon="1.78713">
        <ele>1839.14</ele>
        <time>2015-01-19T10:43:38Z</time>
      </trkpt>
      <trkpt lat="42.67397" lon="1.7872">
        <ele>1842.02</ele>
        <time>2015-01-19T10:43:52Z</time>
      </trkpt>
      <trkpt lat="42.67399" lon="1.7873">
        <ele>1844.91</ele>
        <time>2015-01-19T10:44:07Z</time>
      </trkpt>
      <trkpt lat="42.67396" lon="1.78734">
        <ele>1847.79</ele>
        <time>2015-01-19T10:44:22Z</time>
      </trkpt>
      <trkpt lat="42.67395" lon="1.78744">
        <ele>1850.68</ele>
        <time>2015-01-19T10:44:37Z</time>
      </trkpt>
      <trkpt lat="42.67388" lon="1.78743">
        <ele>1853.56</ele>
        <time>2015-01-19T10:44:51Z</time>
      </trkpt>
      <trkpt lat="42.67382" lon="1.78737">
        <ele>1855.48</ele>
        <time>2015-01-19T10:45:09Z</time>
      </trkpt>
      <trkpt lat="42.67376" lon="1.78734">
        <ele>1855.48</ele>
        <time>2015-01-19T10:45:21Z</time>
      </trkpt>
      <trkpt lat="42.67376" lon="1.78738">
        <ele>1858.85</ele>
        <time>2015-01-19T10:45:35Z</time>
      </trkpt>
      <trkpt lat="42.67375" lon="1.78745">
        <ele>1859.33</ele>
        <time>2015-01-19T10:45:48Z</time>
      </trkpt>
      <trkpt lat="42.67372" lon="1.78744">
        <ele>1860.29</ele>
        <time>2015-01-19T10:46:02Z</time>
      </trkpt>
      <trkpt lat="42.67365" lon="1.78755">
        <ele>1864.61</ele>
        <time>2015-01-19T10:46:20Z</time>
      </trkpt>
      <trkpt lat="42.67361" lon="1.78759">
        <ele>1864.61</ele>
        <time>2015-01-19T10:46:34Z</time>
      </trkpt>
      <trkpt lat="42.67356" lon="1.78755">
        <ele>1865.58</ele>
        <time>2015-01-19T10:46:47Z</time>
      </trkpt>
      <trkpt lat="42.67355" lon="1.7875">
        <ele>1867.5</ele>
        <time>2015-01-19T10:47:01Z</time>
      </trkpt>
      <trkpt lat="42.67351" lon="1.78756">
        <ele>1869.9</ele>
        <time>2015-01-19T10:47:14Z</time>
      </trkpt>
      <trkpt lat="42.67348" lon="1.7876">
        <ele>1869.9</ele>
        <time>2015-01-19T10:47:29Z</time>
      </trkpt>
      <trkpt lat="42.67343" lon="1.78767">
        <ele>1873.75</ele>
        <time>2015-01-19T10:47:45Z</time>
      </trkpt>
      <trkpt lat="42.67338" lon="1.78776">
        <ele>1878.55</ele>
        <time>2015-01-19T10:48:02Z</time>
      </trkpt>
      <trkpt lat="42.67333" lon="1.78771">
        <ele>1878.55</ele>
        <time>2015-01-19T10:48:20Z</time>
      </trkpt>
      <trkpt lat="42.67327" lon="1.78771">
        <ele>1882.4</ele>
        <time>2015-01-19T10:48:35Z</time>
      </trkpt>
      <trkpt lat="42.67321" lon="1.78767">
        <ele>1882.88</ele>
        <time>2015-01-19T10:48:48Z</time>
      </trkpt>
      <trkpt lat="42.67313" lon="1.78767">
        <ele>1887.69</ele>
        <time>2015-01-19T10:49:04Z</time>
      </trkpt>
      <trkpt lat="42.67307" lon="1.78759">
        <ele>1887.69</ele>
        <time>2015-01-19T10:49:18Z</time>
      </trkpt>
      <trkpt lat="42.67303" lon="1.78752">
        <ele>1886.24</ele>
        <time>2015-01-19T10:49:32Z</time>
      </trkpt>
      <trkpt lat="42.67296" lon="1.78759">
        <ele>1888.17</ele>
        <time>2015-01-19T10:49:45Z</time>
      </trkpt>
      <trkpt lat="42.6729" lon="1.78765">
        <ele>1890.09</ele>
        <time>2015-01-19T10:49:57Z</time>
      </trkpt>
      <trkpt lat="42.67284" lon="1.78764">
        <ele>1891.53</ele>
        <time>2015-01-19T10:50:12Z</time>
      </trkpt>
      <trkpt lat="42.67279" lon="1.78765">
        <ele>1895.86</ele>
        <time>2015-01-19T10:50:24Z</time>
      </trkpt>
      <trkpt lat="42.67274" lon="1.78759">
        <ele>1895.38</ele>
        <time>2015-01-19T10:50:39Z</time>
      </trkpt>
      <trkpt lat="42.67268" lon="1.78764">
        <ele>1897.3</ele>
        <time>2015-01-19T10:50:56Z</time>
      </trkpt>
      <trkpt lat="42.67263" lon="1.78774">
        <ele>1901.63</ele>
        <time>2015-01-19T10:51:10Z</time>
      </trkpt>
      <trkpt lat="42.67259" lon="1.7877">
        <ele>1904.03</ele>
        <time>2015-01-19T10:51:21Z</time>
      </trkpt>
      <trkpt lat="42.67254" lon="1.78762">
        <ele>1904.51</ele>
        <time>2015-01-19T10:51:37Z</time>
      </trkpt>
      <trkpt lat="42.67249" lon="1.78762">
        <ele>1908.35</ele>
        <time>2015-01-19T10:51:50Z</time>
      </trkpt>
      <trkpt lat="42.67244" lon="1.78764">
        <ele>1913.16</ele>
        <time>2015-01-19T10:52:09Z</time>
      </trkpt>
      <trkpt lat="42.67239" lon="1.78758">
        <ele>1913.16</ele>
        <time>2015-01-19T10:52:22Z</time>
      </trkpt>
      <trkpt lat="42.67233" lon="1.78749">
        <ele>1917.01</ele>
        <time>2015-01-19T10:52:37Z</time>
      </trkpt>
      <trkpt lat="42.67233" lon="1.78749">
        <ele>1917.49</ele>
        <time>2015-01-19T10:52:49Z</time>
      </trkpt>
      <trkpt lat="42.67229" lon="1.78754">
        <ele>1919.41</ele>
        <time>2015-01-19T10:53:03Z</time>
      </trkpt>
      <trkpt lat="42.67224" lon="1.78762">
        <ele>1921.81</ele>
        <time>2015-01-19T10:53:20Z</time>
      </trkpt>
      <trkpt lat="42.67221" lon="1.78765">
        <ele>1923.25</ele>
        <time>2015-01-19T10:53:36Z</time>
      </trkpt>
      <trkpt lat="42.67217" lon="1.78757">
        <ele>1922.77</ele>
        <time>2015-01-19T10:53:51Z</time>
      </trkpt>
      <trkpt lat="42.67212" lon="1.78748">
        <ele>1925.66</ele>
        <time>2015-01-19T10:54:08Z</time>
      </trkpt>
      <trkpt lat="42.67208" lon="1.7874">
        <ele>1932.39</ele>
        <time>2015-01-19T10:54:24Z</time>
      </trkpt>
      <trkpt lat="42.67206" lon="1.78747">
        <ele>1933.35</ele>
        <time>2015-01-19T10:54:42Z</time>
      </trkpt>
      <trkpt lat="42.67203" lon="1.78755">
        <ele>1936.71</ele>
        <time>2015-01-19T10:54:58Z</time>
      </trkpt>
      <trkpt lat="42.67195" lon="1.78768">
        <ele>1941.04</ele>
        <time>2015-01-19T10:55:21Z</time>
      </trkpt>
      <trkpt lat="42.67191" lon="1.78774">
        <ele>1940.08</ele>
        <time>2015-01-19T10:55:36Z</time>
      </trkpt>
      <trkpt lat="42.67189" lon="1.78772">
        <ele>1941.04</ele>
        <time>2015-01-19T10:55:49Z</time>
      </trkpt>
      <trkpt lat="42.67186" lon="1.78774">
        <ele>1943.92</ele>
        <time>2015-01-19T10:56:03Z</time>
      </trkpt>
      <trkpt lat="42.67184" lon="1.7877">
        <ele>1945.85</ele>
        <time>2015-01-19T10:56:16Z</time>
      </trkpt>
      <trkpt lat="42.67182" lon="1.78765">
        <ele>1947.29</ele>
        <time>2015-01-19T10:56:32Z</time>
      </trkpt>
      <trkpt lat="42.67178" lon="1.78769">
        <ele>1950.17</ele>
        <time>2015-01-19T10:56:49Z</time>
      </trkpt>
      <trkpt lat="42.67174" lon="1.78777">
        <ele>1951.61</ele>
        <time>2015-01-19T10:57:06Z</time>
      </trkpt>
      <trkpt lat="42.6717" lon="1.78787">
        <ele>1956.9</ele>
        <time>2015-01-19T10:57:20Z</time>
      </trkpt>
      <trkpt lat="42.67168" lon="1.78785">
        <ele>1959.78</ele>
        <time>2015-01-19T10:57:33Z</time>
      </trkpt>
      <trkpt lat="42.67165" lon="1.78775">
        <ele>1959.3</ele>
        <time>2015-01-19T10:57:50Z</time>
      </trkpt>
      <trkpt lat="42.67161" lon="1.78767">
        <ele>1958.82</ele>
        <time>2015-01-19T10:58:04Z</time>
      </trkpt>
      <trkpt lat="42.67159" lon="1.78752">
        <ele>1965.07</ele>
        <time>2015-01-19T10:58:22Z</time>
      </trkpt>
      <trkpt lat="42.67158" lon="1.78745">
        <ele>1965.55</ele>
        <time>2015-01-19T10:58:32Z</time>
      </trkpt>
      <trkpt lat="42.67157" lon="1.78736">
        <ele>1966.51</ele>
        <time>2015-01-19T10:58:46Z</time>
      </trkpt>
      <trkpt lat="42.67155" lon="1.78725">
        <ele>1968.92</ele>
        <time>2015-01-19T10:59:02Z</time>
      </trkpt>
      <trkpt lat="42.67155" lon="1.78726">
        <ele>1972.28</ele>
        <time>2015-01-19T10:59:19Z</time>
      </trkpt>
      <trkpt lat="42.67148" lon="1.78733">
        <ele>1972.76</ele>
        <time>2015-01-19T10:59:34Z</time>
      </trkpt>
      <trkpt lat="42.67142" lon="1.78739">
        <ele>1975.65</ele>
        <time>2015-01-19T10:59:49Z</time>
      </trkpt>
      <trkpt lat="42.67138" lon="1.78744">
        <ele>1978.05</ele>
        <time>2015-01-19T11:00:04Z</time>
      </trkpt>
      <trkpt lat="42.67139" lon="1.78745">
        <ele>1980.45</ele>
        <time>2015-01-19T11:00:30Z</time>
      </trkpt>
      <trkpt lat="42.67136" lon="1.78748">
        <ele>1980.45</ele>
        <time>2015-01-19T11:00:52Z</time>
      </trkpt>
      <trkpt lat="42.67134" lon="1.7875">
        <ele>1981.41</ele>
        <time>2015-01-19T11:00:58Z</time>
      </trkpt>
      <trkpt lat="42.67132" lon="1.78741">
        <ele>1980.93</ele>
        <time>2015-01-19T11:01:11Z</time>
      </trkpt>
      <trkpt lat="42.67131" lon="1.78734">
        <ele>1982.38</ele>
        <time>2015-01-19T11:01:27Z</time>
      </trkpt>
      <trkpt lat="42.67125" lon="1.78738">
        <ele>1983.34</ele>
        <time>2015-01-19T11:01:41Z</time>
      </trkpt>
      <trkpt lat="42.67117" lon="1.78744">
        <ele>1986.22</ele>
        <time>2015-01-19T11:01:57Z</time>
      </trkpt>
      <trkpt lat="42.67111" lon="1.7875">
        <ele>1990.07</ele>
        <time>2015-01-19T11:02:12Z</time>
      </trkpt>
      <trkpt lat="42.67104" lon="1.7875">
        <ele>1993.43</ele>
        <time>2015-01-19T11:02:30Z</time>
      </trkpt>
      <trkpt lat="42.67096" lon="1.78747">
        <ele>1997.28</ele>
        <time>2015-01-19T11:02:45Z</time>
      </trkpt>
      <trkpt lat="42.67085" lon="1.78748">
        <ele>2000.64</ele>
        <time>2015-01-19T11:03:01Z</time>
      </trkpt>
      <trkpt lat="42.67084" lon="1.78748">
        <ele>2001.12</ele>
        <time>2015-01-19T11:03:03Z</time>
      </trkpt>
      <trkpt lat="42.67073" lon="1.78749">
        <ele>2002.56</ele>
        <time>2015-01-19T11:03:17Z</time>
      </trkpt>
      <trkpt lat="42.67064" lon="1.78757">
        <ele>2003.52</ele>
        <time>2015-01-19T11:03:31Z</time>
      </trkpt>
      <trkpt lat="42.67055" lon="1.78767">
        <ele>2004.49</ele>
        <time>2015-01-19T11:03:47Z</time>
      </trkpt>
      <trkpt lat="42.67046" lon="1.78775">
        <ele>2006.41</ele>
        <time>2015-01-19T11:04:03Z</time>
      </trkpt>
      <trkpt lat="42.67041" lon="1.78779">
        <ele>2007.37</ele>
        <time>2015-01-19T11:04:16Z</time>
      </trkpt>
      <trkpt lat="42.67033" lon="1.7878">
        <ele>2010.73</ele>
        <time>2015-01-19T11:04:36Z</time>
      </trkpt>
      <trkpt lat="42.67025" lon="1.78778">
        <ele>2012.18</ele>
        <time>2015-01-19T11:04:51Z</time>
      </trkpt>
      <trkpt lat="42.67013" lon="1.78781">
        <ele>2014.58</ele>
        <time>2015-01-19T11:05:05Z</time>
      </trkpt>
      <trkpt lat="42.67004" lon="1.78786">
        <ele>2015.54</ele>
        <time>2015-01-19T11:05:19Z</time>
      </trkpt>
      <trkpt lat="42.66997" lon="1.78791">
        <ele>2016.98</ele>
        <time>2015-01-19T11:05:32Z</time>
      </trkpt>
      <trkpt lat="42.6699" lon="1.7879">
        <ele>2018.43</ele>
        <time>2015-01-19T11:05:45Z</time>
      </trkpt>
      <trkpt lat="42.66982" lon="1.78785">
        <ele>2021.79</ele>
        <time>2015-01-19T11:05:59Z</time>
      </trkpt>
      <trkpt lat="42.6698" lon="1.78782">
        <ele>2021.79</ele>
        <time>2015-01-19T11:06:14Z</time>
      </trkpt>
      <trkpt lat="42.66971" lon="1.78772">
        <ele>2023.23</ele>
        <time>2015-01-19T11:06:29Z</time>
      </trkpt>
      <trkpt lat="42.66962" lon="1.78769">
        <ele>2025.64</ele>
        <time>2015-01-19T11:06:48Z</time>
      </trkpt>
      <trkpt lat="42.66952" lon="1.78772">
        <ele>2026.6</ele>
        <time>2015-01-19T11:07:03Z</time>
      </trkpt>
      <trkpt lat="42.6694" lon="1.78777">
        <ele>2026.12</ele>
        <time>2015-01-19T11:07:15Z</time>
      </trkpt>
      <trkpt lat="42.66928" lon="1.78778">
        <ele>2028.52</ele>
        <time>2015-01-19T11:07:28Z</time>
      </trkpt>
      <trkpt lat="42.66919" lon="1.7878">
        <ele>2028.04</ele>
        <time>2015-01-19T11:07:45Z</time>
      </trkpt>
      <trkpt lat="42.6692" lon="1.7878">
        <ele>2029</ele>
        <time>2015-01-19T11:08:01Z</time>
      </trkpt>
      <trkpt lat="42.66923" lon="1.78776">
        <ele>2028.52</ele>
        <time>2015-01-19T11:08:32Z</time>
      </trkpt>
      <trkpt lat="42.66914" lon="1.78784">
        <ele>2030.44</ele>
        <time>2015-01-19T11:08:57Z</time>
      </trkpt>
      <trkpt lat="42.66914" lon="1.78785">
        <ele>2031.4</ele>
        <time>2015-01-19T11:09:20Z</time>
      </trkpt>
      <trkpt lat="42.66919" lon="1.78782">
        <ele>2032.36</ele>
        <time>2015-01-19T11:09:44Z</time>
      </trkpt>
      <trkpt lat="42.66918" lon="1.78784">
        <ele>2032.36</ele>
        <time>2015-01-19T11:10:01Z</time>
      </trkpt>
      <trkpt lat="42.66917" lon="1.78788">
        <ele>2029.96</ele>
        <time>2015-01-19T11:10:18Z</time>
      </trkpt>
      <trkpt lat="42.66921" lon="1.78793">
        <ele>2027.56</ele>
        <time>2015-01-19T11:10:25Z</time>
      </trkpt>
      <trkpt lat="42.66933" lon="1.78804">
        <ele>2028.52</ele>
        <time>2015-01-19T11:10:41Z</time>
      </trkpt>
      <trkpt lat="42.66936" lon="1.78808">
        <ele>2028.04</ele>
        <time>2015-01-19T11:10:45Z</time>
      </trkpt>
      <trkpt lat="42.6694" lon="1.78814">
        <ele>2028.52</ele>
        <time>2015-01-19T11:11:00Z</time>
      </trkpt>
      <trkpt lat="42.66937" lon="1.78817">
        <ele>2029</ele>
        <time>2015-01-19T11:11:15Z</time>
      </trkpt>
      <trkpt lat="42.6693" lon="1.78828">
        <ele>2029.48</ele>
        <time>2015-01-19T11:11:32Z</time>
      </trkpt>
      <trkpt lat="42.66921" lon="1.78833">
        <ele>2031.4</ele>
        <time>2015-01-19T11:11:48Z</time>
      </trkpt>
      <trkpt lat="42.66918" lon="1.78834">
        <ele>2032.84</ele>
        <time>2015-01-19T11:12:01Z</time>
      </trkpt>
      <trkpt lat="42.66923" lon="1.78839">
        <ele>2033.33</ele>
        <time>2015-01-19T11:12:15Z</time>
      </trkpt>
      <trkpt lat="42.66924" lon="1.78846">
        <ele>2033.33</ele>
        <time>2015-01-19T11:12:28Z</time>
      </trkpt>
      <trkpt lat="42.66921" lon="1.78853">
        <ele>2035.73</ele>
        <time>2015-01-19T11:12:40Z</time>
      </trkpt>
      <trkpt lat="42.66911" lon="1.78854">
        <ele>2039.57</ele>
        <time>2015-01-19T11:12:54Z</time>
      </trkpt>
      <trkpt lat="42.66908" lon="1.78853">
        <ele>2040.05</ele>
        <time>2015-01-19T11:13:11Z</time>
      </trkpt>
      <trkpt lat="42.66907" lon="1.78849">
        <ele>2040.05</ele>
        <time>2015-01-19T11:13:43Z</time>
      </trkpt>
      <trkpt lat="42.66902" lon="1.78851">
        <ele>2040.05</ele>
        <time>2015-01-19T11:13:56Z</time>
      </trkpt>
      <trkpt lat="42.66901" lon="1.78856">
        <ele>2039.57</ele>
        <time>2015-01-19T11:14:10Z</time>
      </trkpt>
      <trkpt lat="42.66906" lon="1.78865">
        <ele>2041.02</ele>
        <time>2015-01-19T11:14:25Z</time>
      </trkpt>
      <trkpt lat="42.66911" lon="1.78878">
        <ele>2043.42</ele>
        <time>2015-01-19T11:14:42Z</time>
      </trkpt>
      <trkpt lat="42.66915" lon="1.78885">
        <ele>2045.82</ele>
        <time>2015-01-19T11:14:55Z</time>
      </trkpt>
      <trkpt lat="42.66919" lon="1.7889">
        <ele>2050.15</ele>
        <time>2015-01-19T11:15:09Z</time>
      </trkpt>
      <trkpt lat="42.66921" lon="1.78893">
        <ele>2051.11</ele>
        <time>2015-01-19T11:15:22Z</time>
      </trkpt>
      <trkpt lat="42.66919" lon="1.78895">
        <ele>2053.03</ele>
        <time>2015-01-19T11:15:38Z</time>
      </trkpt>
      <trkpt lat="42.66922" lon="1.78899">
        <ele>2054.47</ele>
        <time>2015-01-19T11:15:53Z</time>
      </trkpt>
      <trkpt lat="42.66927" lon="1.78905">
        <ele>2055.44</ele>
        <time>2015-01-19T11:16:06Z</time>
      </trkpt>
      <trkpt lat="42.66932" lon="1.7891">
        <ele>2057.84</ele>
        <time>2015-01-19T11:16:22Z</time>
      </trkpt>
      <trkpt lat="42.66938" lon="1.7891">
        <ele>2059.28</ele>
        <time>2015-01-19T11:16:36Z</time>
      </trkpt>
      <trkpt lat="42.66949" lon="1.78917">
        <ele>2062.17</ele>
        <time>2015-01-19T11:16:56Z</time>
      </trkpt>
      <trkpt lat="42.66956" lon="1.78927">
        <ele>2062.65</ele>
        <time>2015-01-19T11:17:11Z</time>
      </trkpt>
      <trkpt lat="42.66957" lon="1.78937">
        <ele>2064.09</ele>
        <time>2015-01-19T11:17:25Z</time>
      </trkpt>
      <trkpt lat="42.6696" lon="1.78947">
        <ele>2066.49</ele>
        <time>2015-01-19T11:17:41Z</time>
      </trkpt>
      <trkpt lat="42.66961" lon="1.78952">
        <ele>2067.45</ele>
        <time>2015-01-19T11:17:54Z</time>
      </trkpt>
      <trkpt lat="42.66961" lon="1.78963">
        <ele>2068.89</ele>
        <time>2015-01-19T11:18:08Z</time>
      </trkpt>
      <trkpt lat="42.66963" lon="1.78973">
        <ele>2071.78</ele>
        <time>2015-01-19T11:18:23Z</time>
      </trkpt>
      <trkpt lat="42.66962" lon="1.78981">
        <ele>2075.62</ele>
        <time>2015-01-19T11:18:44Z</time>
      </trkpt>
      <trkpt lat="42.66958" lon="1.78983">
        <ele>2077.07</ele>
        <time>2015-01-19T11:18:59Z</time>
      </trkpt>
      <trkpt lat="42.66955" lon="1.78991">
        <ele>2079.95</ele>
        <time>2015-01-19T11:19:12Z</time>
      </trkpt>
      <trkpt lat="42.66953" lon="1.78996">
        <ele>2081.39</ele>
        <time>2015-01-19T11:19:26Z</time>
      </trkpt>
      <trkpt lat="42.66948" lon="1.78991">
        <ele>2081.87</ele>
        <time>2015-01-19T11:19:38Z</time>
      </trkpt>
      <trkpt lat="42.66941" lon="1.78985">
        <ele>2084.28</ele>
        <time>2015-01-19T11:19:51Z</time>
      </trkpt>
      <trkpt lat="42.66936" lon="1.78986">
        <ele>2087.16</ele>
        <time>2015-01-19T11:20:07Z</time>
      </trkpt>
      <trkpt lat="42.66935" lon="1.78996">
        <ele>2088.6</ele>
        <time>2015-01-19T11:20:20Z</time>
      </trkpt>
      <trkpt lat="42.6693" lon="1.79002">
        <ele>2091.49</ele>
        <time>2015-01-19T11:20:36Z</time>
      </trkpt>
      <trkpt lat="42.66921" lon="1.78996">
        <ele>2094.85</ele>
        <time>2015-01-19T11:20:52Z</time>
      </trkpt>
      <trkpt lat="42.66915" lon="1.79003">
        <ele>2096.77</ele>
        <time>2015-01-19T11:21:08Z</time>
      </trkpt>
      <trkpt lat="42.66912" lon="1.79011">
        <ele>2098.21</ele>
        <time>2015-01-19T11:21:22Z</time>
      </trkpt>
      <trkpt lat="42.66908" lon="1.79022">
        <ele>2101.1</ele>
        <time>2015-01-19T11:21:39Z</time>
      </trkpt>
      <trkpt lat="42.66906" lon="1.79025">
        <ele>2103.5</ele>
        <time>2015-01-19T11:21:54Z</time>
      </trkpt>
      <trkpt lat="42.66899" lon="1.79017">
        <ele>2104.94</ele>
        <time>2015-01-19T11:22:08Z</time>
      </trkpt>
      <trkpt lat="42.66892" lon="1.7901">
        <ele>2107.83</ele>
        <time>2015-01-19T11:22:25Z</time>
      </trkpt>
      <trkpt lat="42.66885" lon="1.79003">
        <ele>2111.19</ele>
        <time>2015-01-19T11:22:42Z</time>
      </trkpt>
      <trkpt lat="42.66881" lon="1.78997">
        <ele>2112.15</ele>
        <time>2015-01-19T11:22:58Z</time>
      </trkpt>
      <trkpt lat="42.6688" lon="1.78999">
        <ele>2111.67</ele>
        <time>2015-01-19T11:23:11Z</time>
      </trkpt>
      <trkpt lat="42.66879" lon="1.79">
        <ele>2110.71</ele>
        <time>2015-01-19T11:23:24Z</time>
      </trkpt>
      <trkpt lat="42.6688" lon="1.78998">
        <ele>2110.23</ele>
        <time>2015-01-19T11:23:42Z</time>
      </trkpt>
      <trkpt lat="42.66879" lon="1.78999">
        <ele>2109.75</ele>
        <time>2015-01-19T11:23:58Z</time>
      </trkpt>
      <trkpt lat="42.66878" lon="1.78999">
        <ele>2110.23</ele>
        <time>2015-01-19T11:24:16Z</time>
      </trkpt>
      <trkpt lat="42.66877" lon="1.79009">
        <ele>2111.19</ele>
        <time>2015-01-19T11:24:31Z</time>
      </trkpt>
      <trkpt lat="42.66874" lon="1.79019">
        <ele>2113.12</ele>
        <time>2015-01-19T11:24:45Z</time>
      </trkpt>
      <trkpt lat="42.66872" lon="1.79031">
        <ele>2116.96</ele>
        <time>2015-01-19T11:25:01Z</time>
      </trkpt>
      <trkpt lat="42.66872" lon="1.79037">
        <ele>2119.36</ele>
        <time>2015-01-19T11:25:16Z</time>
      </trkpt>
      <trkpt lat="42.66871" lon="1.79047">
        <ele>2120.81</ele>
        <time>2015-01-19T11:25:30Z</time>
      </trkpt>
      <trkpt lat="42.66867" lon="1.79056">
        <ele>2122.73</ele>
        <time>2015-01-19T11:25:44Z</time>
      </trkpt>
      <trkpt lat="42.66862" lon="1.79068">
        <ele>2126.57</ele>
        <time>2015-01-19T11:26:01Z</time>
      </trkpt>
      <trkpt lat="42.66855" lon="1.7908">
        <ele>2129.46</ele>
        <time>2015-01-19T11:26:19Z</time>
      </trkpt>
      <trkpt lat="42.66848" lon="1.79089">
        <ele>2132.82</ele>
        <time>2015-01-19T11:26:34Z</time>
      </trkpt>
      <trkpt lat="42.66839" lon="1.79099">
        <ele>2136.19</ele>
        <time>2015-01-19T11:26:51Z</time>
      </trkpt>
      <trkpt lat="42.66834" lon="1.79104">
        <ele>2138.11</ele>
        <time>2015-01-19T11:27:06Z</time>
      </trkpt>
      <trkpt lat="42.66834" lon="1.79102">
        <ele>2140.03</ele>
        <time>2015-01-19T11:27:19Z</time>
      </trkpt>
      <trkpt lat="42.66831" lon="1.79093">
        <ele>2140.99</ele>
        <time>2015-01-19T11:27:35Z</time>
      </trkpt>
      <trkpt lat="42.66829" lon="1.7908">
        <ele>2143.88</ele>
        <time>2015-01-19T11:27:53Z</time>
      </trkpt>
      <trkpt lat="42.66827" lon="1.79067">
        <ele>2146.28</ele>
        <time>2015-01-19T11:28:12Z</time>
      </trkpt>
      <trkpt lat="42.66825" lon="1.79055">
        <ele>2148.2</ele>
        <time>2015-01-19T11:28:29Z</time>
      </trkpt>
      <trkpt lat="42.66823" lon="1.79043">
        <ele>2150.61</ele>
        <time>2015-01-19T11:28:48Z</time>
      </trkpt>
      <trkpt lat="42.66818" lon="1.79045">
        <ele>2152.05</ele>
        <time>2015-01-19T11:29:04Z</time>
      </trkpt>
      <trkpt lat="42.66813" lon="1.79049">
        <ele>2153.97</ele>
        <time>2015-01-19T11:29:19Z</time>
      </trkpt>
      <trkpt lat="42.66813" lon="1.79048">
        <ele>2153.97</ele>
        <time>2015-01-19T11:29:33Z</time>
      </trkpt>
      <trkpt lat="42.66813" lon="1.79048">
        <ele>2154.93</ele>
        <time>2015-01-19T11:29:52Z</time>
      </trkpt>
      <trkpt lat="42.66812" lon="1.79048">
        <ele>2154.93</ele>
        <time>2015-01-19T11:30:13Z</time>
      </trkpt>
      <trkpt lat="42.66805" lon="1.79057">
        <ele>2157.34</ele>
        <time>2015-01-19T11:30:29Z</time>
      </trkpt>
      <trkpt lat="42.66798" lon="1.79065">
        <ele>2159.74</ele>
        <time>2015-01-19T11:30:45Z</time>
      </trkpt>
      <trkpt lat="42.6679" lon="1.79073">
        <ele>2161.66</ele>
        <time>2015-01-19T11:31:02Z</time>
      </trkpt>
      <trkpt lat="42.66783" lon="1.79082">
        <ele>2165.03</ele>
        <time>2015-01-19T11:31:20Z</time>
      </trkpt>
      <trkpt lat="42.66776" lon="1.79092">
        <ele>2168.39</ele>
        <time>2015-01-19T11:31:36Z</time>
      </trkpt>
      <trkpt lat="42.66772" lon="1.79099">
        <ele>2173.2</ele>
        <time>2015-01-19T11:31:51Z</time>
      </trkpt>
      <trkpt lat="42.66771" lon="1.79094">
        <ele>2175.6</ele>
        <time>2015-01-19T11:32:03Z</time>
      </trkpt>
      <trkpt lat="42.66767" lon="1.79082">
        <ele>2175.6</ele>
        <time>2015-01-19T11:32:19Z</time>
      </trkpt>
      <trkpt lat="42.66765" lon="1.79069">
        <ele>2176.56</ele>
        <time>2015-01-19T11:32:35Z</time>
      </trkpt>
      <trkpt lat="42.66764" lon="1.79057">
        <ele>2178</ele>
        <time>2015-01-19T11:32:51Z</time>
      </trkpt>
      <trkpt lat="42.66761" lon="1.79044">
        <ele>2181.37</ele>
        <time>2015-01-19T11:33:09Z</time>
      </trkpt>
      <trkpt lat="42.66758" lon="1.79032">
        <ele>2183.29</ele>
        <time>2015-01-19T11:33:25Z</time>
      </trkpt>
      <trkpt lat="42.66753" lon="1.79022">
        <ele>2185.69</ele>
        <time>2015-01-19T11:33:41Z</time>
      </trkpt>
      <trkpt lat="42.66747" lon="1.79023">
        <ele>2189.06</ele>
        <time>2015-01-19T11:33:57Z</time>
      </trkpt>
      <trkpt lat="42.6674" lon="1.79027">
        <ele>2191.94</ele>
        <time>2015-01-19T11:34:11Z</time>
      </trkpt>
      <trkpt lat="42.66734" lon="1.79034">
        <ele>2194.35</ele>
        <time>2015-01-19T11:34:28Z</time>
      </trkpt>
      <trkpt lat="42.66729" lon="1.79043">
        <ele>2194.83</ele>
        <time>2015-01-19T11:34:46Z</time>
      </trkpt>
      <trkpt lat="42.66724" lon="1.79049">
        <ele>2196.75</ele>
        <time>2015-01-19T11:35:03Z</time>
      </trkpt>
      <trkpt lat="42.66717" lon="1.79057">
        <ele>2198.67</ele>
        <time>2015-01-19T11:35:17Z</time>
      </trkpt>
      <trkpt lat="42.6671" lon="1.79062">
        <ele>2201.08</ele>
        <time>2015-01-19T11:35:32Z</time>
      </trkpt>
      <trkpt lat="42.66704" lon="1.79067">
        <ele>2202.52</ele>
        <time>2015-01-19T11:35:45Z</time>
      </trkpt>
      <trkpt lat="42.66697" lon="1.79073">
        <ele>2204.44</ele>
        <time>2015-01-19T11:36:00Z</time>
      </trkpt>
      <trkpt lat="42.66689" lon="1.79079">
        <ele>2207.81</ele>
        <time>2015-01-19T11:36:15Z</time>
      </trkpt>
      <trkpt lat="42.66683" lon="1.79086">
        <ele>2209.25</ele>
        <time>2015-01-19T11:36:29Z</time>
      </trkpt>
      <trkpt lat="42.66675" lon="1.79091">
        <ele>2212.61</ele>
        <time>2015-01-19T11:36:45Z</time>
      </trkpt>
      <trkpt lat="42.66668" lon="1.79097">
        <ele>2215.01</ele>
        <time>2015-01-19T11:36:59Z</time>
      </trkpt>
      <trkpt lat="42.66661" lon="1.79092">
        <ele>2217.9</ele>
        <time>2015-01-19T11:37:13Z</time>
      </trkpt>
      <trkpt lat="42.66655" lon="1.79082">
        <ele>2221.26</ele>
        <time>2015-01-19T11:37:30Z</time>
      </trkpt>
      <trkpt lat="42.66651" lon="1.7907">
        <ele>2225.11</ele>
        <time>2015-01-19T11:37:47Z</time>
      </trkpt>
      <trkpt lat="42.66649" lon="1.79067">
        <ele>2227.03</ele>
        <time>2015-01-19T11:38:00Z</time>
      </trkpt>
      <trkpt lat="42.66642" lon="1.79073">
        <ele>2228.95</ele>
        <time>2015-01-19T11:38:16Z</time>
      </trkpt>
      <trkpt lat="42.66636" lon="1.79081">
        <ele>2230.4</ele>
        <time>2015-01-19T11:38:30Z</time>
      </trkpt>
      <trkpt lat="42.66628" lon="1.79083">
        <ele>2231.36</ele>
        <time>2015-01-19T11:38:44Z</time>
      </trkpt>
      <trkpt lat="42.66621" lon="1.79081">
        <ele>2233.28</ele>
        <time>2015-01-19T11:38:57Z</time>
      </trkpt>
      <trkpt lat="42.66614" lon="1.79079">
        <ele>2235.2</ele>
        <time>2015-01-19T11:39:11Z</time>
      </trkpt>
      <trkpt lat="42.66605" lon="1.79076">
        <ele>2238.57</ele>
        <time>2015-01-19T11:39:25Z</time>
      </trkpt>
      <trkpt lat="42.66595" lon="1.79072">
        <ele>2240.97</ele>
        <time>2015-01-19T11:39:41Z</time>
      </trkpt>
      <trkpt lat="42.66586" lon="1.79068">
        <ele>2243.85</ele>
        <time>2015-01-19T11:39:56Z</time>
      </trkpt>
      <trkpt lat="42.66579" lon="1.79065">
        <ele>2246.26</ele>
        <time>2015-01-19T11:40:08Z</time>
      </trkpt>
      <trkpt lat="42.66568" lon="1.7906">
        <ele>2248.18</ele>
        <time>2015-01-19T11:40:23Z</time>
      </trkpt>
      <trkpt lat="42.66562" lon="1.7906">
        <ele>2249.62</ele>
        <time>2015-01-19T11:40:38Z</time>
      </trkpt>
      <trkpt lat="42.66556" lon="1.79057">
        <ele>2250.1</ele>
        <time>2015-01-19T11:40:52Z</time>
      </trkpt>
      <trkpt lat="42.66544" lon="1.79047">
        <ele>2252.51</ele>
        <time>2015-01-19T11:41:07Z</time>
      </trkpt>
      <trkpt lat="42.66533" lon="1.79037">
        <ele>2255.39</ele>
        <time>2015-01-19T11:41:22Z</time>
      </trkpt>
      <trkpt lat="42.66522" lon="1.79028">
        <ele>2257.31</ele>
        <time>2015-01-19T11:41:36Z</time>
      </trkpt>
      <trkpt lat="42.6651" lon="1.79018">
        <ele>2258.27</ele>
        <time>2015-01-19T11:41:51Z</time>
      </trkpt>
      <trkpt lat="42.665" lon="1.79007">
        <ele>2260.68</ele>
        <time>2015-01-19T11:42:06Z</time>
      </trkpt>
      <trkpt lat="42.66488" lon="1.78999">
        <ele>2261.64</ele>
        <time>2015-01-19T11:42:20Z</time>
      </trkpt>
      <trkpt lat="42.6648" lon="1.78998">
        <ele>2262.6</ele>
        <time>2015-01-19T11:42:29Z</time>
      </trkpt>
      <trkpt lat="42.66466" lon="1.79003">
        <ele>2265.96</ele>
        <time>2015-01-19T11:42:43Z</time>
      </trkpt>
      <trkpt lat="42.66454" lon="1.79007">
        <ele>2267.89</ele>
        <time>2015-01-19T11:42:56Z</time>
      </trkpt>
      <trkpt lat="42.66442" lon="1.7901">
        <ele>2268.85</ele>
        <time>2015-01-19T11:43:09Z</time>
      </trkpt>
      <trkpt lat="42.66429" lon="1.79015">
        <ele>2270.29</ele>
        <time>2015-01-19T11:43:23Z</time>
      </trkpt>
      <trkpt lat="42.66414" lon="1.79018">
        <ele>2271.25</ele>
        <time>2015-01-19T11:43:36Z</time>
      </trkpt>
      <trkpt lat="42.66398" lon="1.79019">
        <ele>2273.17</ele>
        <time>2015-01-19T11:43:50Z</time>
      </trkpt>
      <trkpt lat="42.66384" lon="1.79021">
        <ele>2273.66</ele>
        <time>2015-01-19T11:44:02Z</time>
      </trkpt>
      <trkpt lat="42.66368" lon="1.7902">
        <ele>2273.66</ele>
        <time>2015-01-19T11:44:17Z</time>
      </trkpt>
      <trkpt lat="42.66358" lon="1.7902">
        <ele>2274.14</ele>
        <time>2015-01-19T11:44:29Z</time>
      </trkpt>
      <trkpt lat="42.66354" lon="1.79019">
        <ele>2274.62</ele>
        <time>2015-01-19T11:44:34Z</time>
      </trkpt>
      <trkpt lat="42.6634" lon="1.7902">
        <ele>2276.06</ele>
        <time>2015-01-19T11:44:49Z</time>
      </trkpt>
      <trkpt lat="42.66334" lon="1.79019">
        <ele>2277.02</ele>
        <time>2015-01-19T11:44:55Z</time>
      </trkpt>
      <trkpt lat="42.66326" lon="1.79019">
        <ele>2277.5</ele>
        <time>2015-01-19T11:45:03Z</time>
      </trkpt>
      <trkpt lat="42.66312" lon="1.79018">
        <ele>2277.5</ele>
        <time>2015-01-19T11:45:17Z</time>
      </trkpt>
      <trkpt lat="42.6631" lon="1.79018">
        <ele>2277.5</ele>
        <time>2015-01-19T11:45:19Z</time>
      </trkpt>
      <trkpt lat="42.66295" lon="1.79017">
        <ele>2277.98</ele>
        <time>2015-01-19T11:45:33Z</time>
      </trkpt>
      <trkpt lat="42.6628" lon="1.79015">
        <ele>2279.9</ele>
        <time>2015-01-19T11:45:47Z</time>
      </trkpt>
      <trkpt lat="42.66268" lon="1.79014">
        <ele>2282.31</ele>
        <time>2015-01-19T11:46:00Z</time>
      </trkpt>
      <trkpt lat="42.66256" lon="1.79013">
        <ele>2283.27</ele>
        <time>2015-01-19T11:46:13Z</time>
      </trkpt>
      <trkpt lat="42.66246" lon="1.79008">
        <ele>2284.23</ele>
        <time>2015-01-19T11:46:25Z</time>
      </trkpt>
      <trkpt lat="42.66233" lon="1.79002">
        <ele>2285.67</ele>
        <time>2015-01-19T11:46:39Z</time>
      </trkpt>
      <trkpt lat="42.66221" lon="1.78992">
        <ele>2287.11</ele>
        <time>2015-01-19T11:46:54Z</time>
      </trkpt>
      <trkpt lat="42.66209" lon="1.78981">
        <ele>2289.04</ele>
        <time>2015-01-19T11:47:09Z</time>
      </trkpt>
      <trkpt lat="42.66197" lon="1.78971">
        <ele>2291.44</ele>
        <time>2015-01-19T11:47:24Z</time>
      </trkpt>
      <trkpt lat="42.66187" lon="1.78959">
        <ele>2292.88</ele>
        <time>2015-01-19T11:47:39Z</time>
      </trkpt>
      <trkpt lat="42.66183" lon="1.78957">
        <ele>2292.88</ele>
        <time>2015-01-19T11:47:52Z</time>
      </trkpt>
      <trkpt lat="42.66183" lon="1.78956">
        <ele>2292.88</ele>
        <time>2015-01-19T11:48:21Z</time>
      </trkpt>
      <trkpt lat="42.66183" lon="1.78957">
        <ele>2291.92</ele>
        <time>2015-01-19T11:48:40Z</time>
      </trkpt>
      <trkpt lat="42.66183" lon="1.78957">
        <ele>2290.48</ele>
        <time>2015-01-19T11:49:11Z</time>
      </trkpt>
      <trkpt lat="42.66184" lon="1.78956">
        <ele>2289.04</ele>
        <time>2015-01-19T11:49:40Z</time>
      </trkpt>
      <trkpt lat="42.66184" lon="1.78956">
        <ele>2290</ele>
        <time>2015-01-19T11:50:13Z</time>
      </trkpt>
      <trkpt lat="42.66178" lon="1.78953">
        <ele>2290.48</ele>
        <time>2015-01-19T11:50:32Z</time>
      </trkpt>
      <trkpt lat="42.66164" lon="1.78937">
        <ele>2292.4</ele>
        <time>2015-01-19T11:50:46Z</time>
      </trkpt>
      <trkpt lat="42.66151" lon="1.78923">
        <ele>2294.32</ele>
        <time>2015-01-19T11:50:59Z</time>
      </trkpt>
      <trkpt lat="42.66139" lon="1.78909">
        <ele>2298.65</ele>
        <time>2015-01-19T11:51:14Z</time>
      </trkpt>
      <trkpt lat="42.66127" lon="1.78893">
        <ele>2301.05</ele>
        <time>2015-01-19T11:51:30Z</time>
      </trkpt>
      <trkpt lat="42.66119" lon="1.78881">
        <ele>2302.49</ele>
        <time>2015-01-19T11:51:44Z</time>
      </trkpt>
      <trkpt lat="42.66109" lon="1.7887">
        <ele>2304.9</ele>
        <time>2015-01-19T11:51:58Z</time>
      </trkpt>
      <trkpt lat="42.66099" lon="1.78864">
        <ele>2306.82</ele>
        <time>2015-01-19T11:52:09Z</time>
      </trkpt>
      <trkpt lat="42.66085" lon="1.78852">
        <ele>2307.78</ele>
        <time>2015-01-19T11:52:24Z</time>
      </trkpt>
      <trkpt lat="42.66069" lon="1.78845">
        <ele>2308.26</ele>
        <time>2015-01-19T11:52:39Z</time>
      </trkpt>
      <trkpt lat="42.66068" lon="1.78845">
        <ele>2308.74</ele>
        <time>2015-01-19T11:52:40Z</time>
      </trkpt>
      <trkpt lat="42.66054" lon="1.78843">
        <ele>2308.74</ele>
        <time>2015-01-19T11:52:53Z</time>
      </trkpt>
      <trkpt lat="42.66037" lon="1.78834">
        <ele>2309.7</ele>
        <time>2015-01-19T11:53:08Z</time>
      </trkpt>
      <trkpt lat="42.66022" lon="1.78818">
        <ele>2311.63</ele>
        <time>2015-01-19T11:53:25Z</time>
      </trkpt>
      <trkpt lat="42.66008" lon="1.78805">
        <ele>2314.03</ele>
        <time>2015-01-19T11:53:41Z</time>
      </trkpt>
      <trkpt lat="42.65996" lon="1.78793">
        <ele>2316.43</ele>
        <time>2015-01-19T11:53:58Z</time>
      </trkpt>
      <trkpt lat="42.65993" lon="1.78788">
        <ele>2316.91</ele>
        <time>2015-01-19T11:54:13Z</time>
      </trkpt>
      <trkpt lat="42.65986" lon="1.78774">
        <ele>2318.84</ele>
        <time>2015-01-19T11:54:26Z</time>
      </trkpt>
      <trkpt lat="42.65977" lon="1.78765">
        <ele>2322.2</ele>
        <time>2015-01-19T11:54:41Z</time>
      </trkpt>
      <trkpt lat="42.65966" lon="1.78758">
        <ele>2325.09</ele>
        <time>2015-01-19T11:54:58Z</time>
      </trkpt>
      <trkpt lat="42.65958" lon="1.78754">
        <ele>2327.97</ele>
        <time>2015-01-19T11:55:11Z</time>
      </trkpt>
      <trkpt lat="42.65948" lon="1.7875">
        <ele>2331.33</ele>
        <time>2015-01-19T11:55:26Z</time>
      </trkpt>
      <trkpt lat="42.65939" lon="1.78745">
        <ele>2333.74</ele>
        <time>2015-01-19T11:55:42Z</time>
      </trkpt>
      <trkpt lat="42.6593" lon="1.7874">
        <ele>2336.14</ele>
        <time>2015-01-19T11:55:56Z</time>
      </trkpt>
      <trkpt lat="42.6592" lon="1.78737">
        <ele>2338.54</ele>
        <time>2015-01-19T11:56:10Z</time>
      </trkpt>
      <trkpt lat="42.6591" lon="1.78734">
        <ele>2341.91</ele>
        <time>2015-01-19T11:56:23Z</time>
      </trkpt>
      <trkpt lat="42.65899" lon="1.78737">
        <ele>2344.79</ele>
        <time>2015-01-19T11:56:38Z</time>
      </trkpt>
      <trkpt lat="42.65888" lon="1.78749">
        <ele>2345.27</ele>
        <time>2015-01-19T11:56:53Z</time>
      </trkpt>
      <trkpt lat="42.65885" lon="1.78756">
        <ele>2344.31</ele>
        <time>2015-01-19T11:57:07Z</time>
      </trkpt>
      <trkpt lat="42.65883" lon="1.78758">
        <ele>2343.35</ele>
        <time>2015-01-19T11:57:20Z</time>
      </trkpt>
      <trkpt lat="42.65883" lon="1.78762">
        <ele>2343.83</ele>
        <time>2015-01-19T11:57:33Z</time>
      </trkpt>
      <trkpt lat="42.65882" lon="1.78762">
        <ele>2344.79</ele>
        <time>2015-01-19T11:57:51Z</time>
      </trkpt>
      <trkpt lat="42.65882" lon="1.78762">
        <ele>2344.31</ele>
        <time>2015-01-19T11:58:07Z</time>
      </trkpt>
      <trkpt lat="42.65883" lon="1.78764">
        <ele>2344.31</ele>
        <time>2015-01-19T11:58:19Z</time>
      </trkpt>
      <trkpt lat="42.65883" lon="1.78761">
        <ele>2343.83</ele>
        <time>2015-01-19T11:58:39Z</time>
      </trkpt>
      <trkpt lat="42.65882" lon="1.78761">
        <ele>2345.27</ele>
        <time>2015-01-19T11:58:59Z</time>
      </trkpt>
      <trkpt lat="42.65882" lon="1.78761">
        <ele>2344.31</ele>
        <time>2015-01-19T11:59:15Z</time>
      </trkpt>
      <trkpt lat="42.65882" lon="1.78762">
        <ele>2340.47</ele>
        <time>2015-01-19T11:59:30Z</time>
      </trkpt>
      <trkpt lat="42.65883" lon="1.78762">
        <ele>2340.95</ele>
        <time>2015-01-19T11:59:50Z</time>
      </trkpt>
      <trkpt lat="42.65883" lon="1.78762">
        <ele>2339.51</ele>
        <time>2015-01-19T12:00:11Z</time>
      </trkpt>
      <trkpt lat="42.65883" lon="1.78762">
        <ele>2339.99</ele>
        <time>2015-01-19T12:00:32Z</time>
      </trkpt>
      <trkpt lat="42.65883" lon="1.78764">
        <ele>2341.91</ele>
        <time>2015-01-19T12:00:42Z</time>
      </trkpt>
      <trkpt lat="42.65883" lon="1.78764">
        <ele>2344.31</ele>
        <time>2015-01-19T12:01:01Z</time>
      </trkpt>
      <trkpt lat="42.65883" lon="1.78764">
        <ele>2346.23</ele>
        <time>2015-01-19T12:01:27Z</time>
      </trkpt>
      <trkpt lat="42.65884" lon="1.78764">
        <ele>2346.23</ele>
        <time>2015-01-19T12:01:48Z</time>
      </trkpt>
      <trkpt lat="42.65884" lon="1.78764">
        <ele>2347.68</ele>
        <time>2015-01-19T12:02:08Z</time>
      </trkpt>
      <trkpt lat="42.65883" lon="1.78763">
        <ele>2348.16</ele>
        <time>2015-01-19T12:02:28Z</time>
      </trkpt>
      <trkpt lat="42.65883" lon="1.78763">
        <ele>2348.64</ele>
        <time>2015-01-19T12:02:46Z</time>
      </trkpt>
      <trkpt lat="42.65882" lon="1.78762">
        <ele>2347.2</ele>
        <time>2015-01-19T12:02:58Z</time>
      </trkpt>
      <trkpt lat="42.65883" lon="1.78763">
        <ele>2347.68</ele>
        <time>2015-01-19T12:03:10Z</time>
      </trkpt>
      <trkpt lat="42.65883" lon="1.78761">
        <ele>2348.16</ele>
        <time>2015-01-19T12:03:27Z</time>
      </trkpt>
      <trkpt lat="42.65883" lon="1.7876">
        <ele>2346.23</ele>
        <time>2015-01-19T12:03:49Z</time>
      </trkpt>
      <trkpt lat="42.65882" lon="1.78761">
        <ele>2345.27</ele>
        <time>2015-01-19T12:04:02Z</time>
      </trkpt>
      <trkpt lat="42.65882" lon="1.78762">
        <ele>2344.31</ele>
        <time>2015-01-19T12:04:18Z</time>
      </trkpt>
      <trkpt lat="42.65883" lon="1.78762">
        <ele>2345.75</ele>
        <time>2015-01-19T12:04:34Z</time>
      </trkpt>
      <trkpt lat="42.65883" lon="1.78763">
        <ele>2344.79</ele>
        <time>2015-01-19T12:04:51Z</time>
      </trkpt>
      <trkpt lat="42.65884" lon="1.78762">
        <ele>2345.75</ele>
        <time>2015-01-19T12:05:07Z</time>
      </trkpt>
      <trkpt lat="42.65883" lon="1.78762">
        <ele>2346.23</ele>
        <time>2015-01-19T12:05:29Z</time>
      </trkpt>
      <trkpt lat="42.65883" lon="1.78762">
        <ele>2345.75</ele>
        <time>2015-01-19T12:05:44Z</time>
      </trkpt>
      <trkpt lat="42.65882" lon="1.78761">
        <ele>2346.23</ele>
        <time>2015-01-19T12:06:05Z</time>
      </trkpt>
      <trkpt lat="42.65882" lon="1.7876">
        <ele>2347.2</ele>
        <time>2015-01-19T12:06:24Z</time>
      </trkpt>
      <trkpt lat="42.65883" lon="1.78762">
        <ele>2346.23</ele>
        <time>2015-01-19T12:06:45Z</time>
      </trkpt>
      <trkpt lat="42.65884" lon="1.78764">
        <ele>2345.75</ele>
        <time>2015-01-19T12:07:05Z</time>
      </trkpt>
      <trkpt lat="42.65882" lon="1.78762">
        <ele>2344.79</ele>
        <time>2015-01-19T12:07:25Z</time>
      </trkpt>
      <trkpt lat="42.65882" lon="1.78762">
        <ele>2345.27</ele>
        <time>2015-01-19T12:07:47Z</time>
      </trkpt>
      <trkpt lat="42.65883" lon="1.78764">
        <ele>2345.75</ele>
        <time>2015-01-19T12:08:06Z</time>
      </trkpt>
      <trkpt lat="42.65883" lon="1.78763">
        <ele>2345.75</ele>
        <time>2015-01-19T12:08:28Z</time>
      </trkpt>
      <trkpt lat="42.65883" lon="1.78763">
        <ele>2345.75</ele>
        <time>2015-01-19T12:08:45Z</time>
      </trkpt>
      <trkpt lat="42.65883" lon="1.78763">
        <ele>2343.83</ele>
        <time>2015-01-19T12:09:00Z</time>
      </trkpt>
      <trkpt lat="42.65882" lon="1.78763">
        <ele>2343.35</ele>
        <time>2015-01-19T12:09:19Z</time>
      </trkpt>
      <trkpt lat="42.65882" lon="1.78762">
        <ele>2343.83</ele>
        <time>2015-01-19T12:09:38Z</time>
      </trkpt>
      <trkpt lat="42.65882" lon="1.78763">
        <ele>2343.35</ele>
        <time>2015-01-19T12:09:51Z</time>
      </trkpt>
      <trkpt lat="42.65882" lon="1.78761">
        <ele>2342.87</ele>
        <time>2015-01-19T12:10:19Z</time>
      </trkpt>
      <trkpt lat="42.65882" lon="1.78761">
        <ele>2344.31</ele>
        <time>2015-01-19T12:10:44Z</time>
      </trkpt>
      <trkpt lat="42.65882" lon="1.78761">
        <ele>2343.83</ele>
        <time>2015-01-19T12:11:07Z</time>
      </trkpt>
      <trkpt lat="42.65884" lon="1.78761">
        <ele>2342.39</ele>
        <time>2015-01-19T12:11:32Z</time>
      </trkpt>
      <trkpt lat="42.65882" lon="1.78763">
        <ele>2343.35</ele>
        <time>2015-01-19T12:11:48Z</time>
      </trkpt>
      <trkpt lat="42.65882" lon="1.78763">
        <ele>2343.83</ele>
        <time>2015-01-19T12:12:04Z</time>
      </trkpt>
      <trkpt lat="42.65882" lon="1.78762">
        <ele>2344.31</ele>
        <time>2015-01-19T12:12:21Z</time>
      </trkpt>
      <trkpt lat="42.65881" lon="1.78754">
        <ele>2344.31</ele>
        <time>2015-01-19T12:12:38Z</time>
      </trkpt>
      <trkpt lat="42.65884" lon="1.78748">
        <ele>2344.79</ele>
        <time>2015-01-19T12:12:53Z</time>
      </trkpt>
      <trkpt lat="42.65884" lon="1.78749">
        <ele>2345.27</ele>
        <time>2015-01-19T12:13:08Z</time>
      </trkpt>
      <trkpt lat="42.65884" lon="1.78749">
        <ele>2346.72</ele>
        <time>2015-01-19T12:13:25Z</time>
      </trkpt>
      <trkpt lat="42.65885" lon="1.78745">
        <ele>2346.72</ele>
        <time>2015-01-19T12:13:44Z</time>
      </trkpt>
      <trkpt lat="42.65899" lon="1.78735">
        <ele>2344.79</ele>
        <time>2015-01-19T12:13:55Z</time>
      </trkpt>
      <trkpt lat="42.65902" lon="1.78734">
        <ele>2344.31</ele>
        <time>2015-01-19T12:13:56Z</time>
      </trkpt>
      <trkpt lat="42.65904" lon="1.78734">
        <ele>2343.83</ele>
        <time>2015-01-19T12:13:57Z</time>
      </trkpt>
      <trkpt lat="42.65907" lon="1.78735">
        <ele>2343.35</ele>
        <time>2015-01-19T12:13:58Z</time>
      </trkpt>
      <trkpt lat="42.6591" lon="1.78734">
        <ele>2342.87</ele>
        <time>2015-01-19T12:13:59Z</time>
      </trkpt>
      <trkpt lat="42.65911" lon="1.78733">
        <ele>2341.91</ele>
        <time>2015-01-19T12:14:00Z</time>
      </trkpt>
      <trkpt lat="42.65913" lon="1.78732">
        <ele>2341.91</ele>
        <time>2015-01-19T12:14:01Z</time>
      </trkpt>
      <trkpt lat="42.65914" lon="1.78731">
        <ele>2341.43</ele>
        <time>2015-01-19T12:14:13Z</time>
      </trkpt>
      <trkpt lat="42.65915" lon="1.78733">
        <ele>2341.43</ele>
        <time>2015-01-19T12:14:16Z</time>
      </trkpt>
      <trkpt lat="42.65916" lon="1.78735">
        <ele>2340.95</ele>
        <time>2015-01-19T12:14:17Z</time>
      </trkpt>
      <trkpt lat="42.65918" lon="1.78737">
        <ele>2340.95</ele>
        <time>2015-01-19T12:14:18Z</time>
      </trkpt>
      <trkpt lat="42.65921" lon="1.7874">
        <ele>2340.47</ele>
        <time>2015-01-19T12:14:19Z</time>
      </trkpt>
      <trkpt lat="42.65924" lon="1.78742">
        <ele>2339.99</ele>
        <time>2015-01-19T12:14:20Z</time>
      </trkpt>
      <trkpt lat="42.65928" lon="1.78744">
        <ele>2339.51</ele>
        <time>2015-01-19T12:14:21Z</time>
      </trkpt>
      <trkpt lat="42.65932" lon="1.78747">
        <ele>2339.02</ele>
        <time>2015-01-19T12:14:22Z</time>
      </trkpt>
      <trkpt lat="42.65937" lon="1.78749">
        <ele>2338.06</ele>
        <time>2015-01-19T12:14:23Z</time>
      </trkpt>
      <trkpt lat="42.65941" lon="1.78752">
        <ele>2337.1</ele>
        <time>2015-01-19T12:14:24Z</time>
      </trkpt>
      <trkpt lat="42.65946" lon="1.78754">
        <ele>2336.14</ele>
        <time>2015-01-19T12:14:25Z</time>
      </trkpt>
      <trkpt lat="42.6595" lon="1.78755">
        <ele>2335.18</ele>
        <time>2015-01-19T12:14:26Z</time>
      </trkpt>
      <trkpt lat="42.65955" lon="1.78758">
        <ele>2333.74</ele>
        <time>2015-01-19T12:14:27Z</time>
      </trkpt>
      <trkpt lat="42.6596" lon="1.78761">
        <ele>2332.78</ele>
        <time>2015-01-19T12:14:28Z</time>
      </trkpt>
      <trkpt lat="42.65965" lon="1.78764">
        <ele>2331.33</ele>
        <time>2015-01-19T12:14:29Z</time>
      </trkpt>
      <trkpt lat="42.6597" lon="1.78767">
        <ele>2330.37</ele>
        <time>2015-01-19T12:14:30Z</time>
      </trkpt>
      <trkpt lat="42.65974" lon="1.78769">
        <ele>2328.93</ele>
        <time>2015-01-19T12:14:31Z</time>
      </trkpt>
      <trkpt lat="42.65979" lon="1.78772">
        <ele>2327.97</ele>
        <time>2015-01-19T12:14:32Z</time>
      </trkpt>
      <trkpt lat="42.65983" lon="1.78776">
        <ele>2326.53</ele>
        <time>2015-01-19T12:14:33Z</time>
      </trkpt>
      <trkpt lat="42.65988" lon="1.78779">
        <ele>2325.09</ele>
        <time>2015-01-19T12:14:34Z</time>
      </trkpt>
      <trkpt lat="42.65992" lon="1.78784">
        <ele>2324.12</ele>
        <time>2015-01-19T12:14:35Z</time>
      </trkpt>
      <trkpt lat="42.65996" lon="1.7879">
        <ele>2323.16</ele>
        <time>2015-01-19T12:14:36Z</time>
      </trkpt>
      <trkpt lat="42.66001" lon="1.78795">
        <ele>2321.72</ele>
        <time>2015-01-19T12:14:37Z</time>
      </trkpt>
      <trkpt lat="42.66007" lon="1.78799">
        <ele>2320.76</ele>
        <time>2015-01-19T12:14:38Z</time>
      </trkpt>
      <trkpt lat="42.66012" lon="1.78803">
        <ele>2319.32</ele>
        <time>2015-01-19T12:14:39Z</time>
      </trkpt>
      <trkpt lat="42.66018" lon="1.78807">
        <ele>2318.36</ele>
        <time>2015-01-19T12:14:40Z</time>
      </trkpt>
      <trkpt lat="42.66065" lon="1.78841">
        <ele>2311.15</ele>
        <time>2015-01-19T12:14:51Z</time>
      </trkpt>
      <trkpt lat="42.66095" lon="1.78862">
        <ele>2308.74</ele>
        <time>2015-01-19T12:15:03Z</time>
      </trkpt>
      <trkpt lat="42.66108" lon="1.78875">
        <ele>2306.82</ele>
        <time>2015-01-19T12:15:08Z</time>
      </trkpt>
      <trkpt lat="42.66112" lon="1.7888">
        <ele>2306.34</ele>
        <time>2015-01-19T12:15:09Z</time>
      </trkpt>
      <trkpt lat="42.66115" lon="1.78884">
        <ele>2305.86</ele>
        <time>2015-01-19T12:15:10Z</time>
      </trkpt>
      <trkpt lat="42.66123" lon="1.78894">
        <ele>2304.42</ele>
        <time>2015-01-19T12:15:12Z</time>
      </trkpt>
      <trkpt lat="42.66127" lon="1.78899">
        <ele>2303.46</ele>
        <time>2015-01-19T12:15:13Z</time>
      </trkpt>
      <trkpt lat="42.66131" lon="1.78904">
        <ele>2302.49</ele>
        <time>2015-01-19T12:15:14Z</time>
      </trkpt>
      <trkpt lat="42.6614" lon="1.78915">
        <ele>2300.57</ele>
        <time>2015-01-19T12:15:16Z</time>
      </trkpt>
      <trkpt lat="42.66145" lon="1.78922">
        <ele>2299.61</ele>
        <time>2015-01-19T12:15:17Z</time>
      </trkpt>
      <trkpt lat="42.6615" lon="1.78928">
        <ele>2298.17</ele>
        <time>2015-01-19T12:15:18Z</time>
      </trkpt>
      <trkpt lat="42.66181" lon="1.78962">
        <ele>2294.32</ele>
        <time>2015-01-19T12:15:24Z</time>
      </trkpt>
      <trkpt lat="42.66186" lon="1.78967">
        <ele>2293.36</ele>
        <time>2015-01-19T12:15:25Z</time>
      </trkpt>
      <trkpt lat="42.66191" lon="1.78971">
        <ele>2292.88</ele>
        <time>2015-01-19T12:15:26Z</time>
      </trkpt>
      <trkpt lat="42.66194" lon="1.78976">
        <ele>2292.4</ele>
        <time>2015-01-19T12:15:27Z</time>
      </trkpt>
      <trkpt lat="42.66197" lon="1.78982">
        <ele>2291.92</ele>
        <time>2015-01-19T12:15:28Z</time>
      </trkpt>
      <trkpt lat="42.66205" lon="1.78992">
        <ele>2290.48</ele>
        <time>2015-01-19T12:15:30Z</time>
      </trkpt>
      <trkpt lat="42.66209" lon="1.78995">
        <ele>2290</ele>
        <time>2015-01-19T12:15:31Z</time>
      </trkpt>
      <trkpt lat="42.66214" lon="1.78998">
        <ele>2289.52</ele>
        <time>2015-01-19T12:15:32Z</time>
      </trkpt>
      <trkpt lat="42.66218" lon="1.79001">
        <ele>2289.04</ele>
        <time>2015-01-19T12:15:33Z</time>
      </trkpt>
      <trkpt lat="42.66221" lon="1.79006">
        <ele>2288.08</ele>
        <time>2015-01-19T12:15:34Z</time>
      </trkpt>
      <trkpt lat="42.66224" lon="1.79008">
        <ele>2287.59</ele>
        <time>2015-01-19T12:15:35Z</time>
      </trkpt>
      <trkpt lat="42.66227" lon="1.7901">
        <ele>2287.11</ele>
        <time>2015-01-19T12:15:36Z</time>
      </trkpt>
      <trkpt lat="42.66229" lon="1.79013">
        <ele>2286.63</ele>
        <time>2015-01-19T12:15:37Z</time>
      </trkpt>
      <trkpt lat="42.6623" lon="1.79016">
        <ele>2286.15</ele>
        <time>2015-01-19T12:15:38Z</time>
      </trkpt>
      <trkpt lat="42.66231" lon="1.79019">
        <ele>2285.67</ele>
        <time>2015-01-19T12:15:39Z</time>
      </trkpt>
      <trkpt lat="42.66231" lon="1.79019">
        <ele>2285.19</ele>
        <time>2015-01-19T12:15:50Z</time>
      </trkpt>
      <trkpt lat="42.66231" lon="1.79019">
        <ele>2284.71</ele>
        <time>2015-01-19T12:16:12Z</time>
      </trkpt>
      <trkpt lat="42.66233" lon="1.79019">
        <ele>2284.23</ele>
        <time>2015-01-19T12:16:36Z</time>
      </trkpt>
      <trkpt lat="42.66233" lon="1.79018">
        <ele>2284.23</ele>
        <time>2015-01-19T12:16:55Z</time>
      </trkpt>
      <trkpt lat="42.66232" lon="1.79019">
        <ele>2285.19</ele>
        <time>2015-01-19T12:17:19Z</time>
      </trkpt>
      <trkpt lat="42.66233" lon="1.79019">
        <ele>2286.15</ele>
        <time>2015-01-19T12:17:35Z</time>
      </trkpt>
      <trkpt lat="42.66234" lon="1.79019">
        <ele>2286.15</ele>
        <time>2015-01-19T12:17:38Z</time>
      </trkpt>
      <trkpt lat="42.66236" lon="1.79019">
        <ele>2286.15</ele>
        <time>2015-01-19T12:17:39Z</time>
      </trkpt>
      <trkpt lat="42.66238" lon="1.79019">
        <ele>2286.15</ele>
        <time>2015-01-19T12:17:40Z</time>
      </trkpt>
      <trkpt lat="42.66278" lon="1.79015">
        <ele>2281.35</ele>
        <time>2015-01-19T12:17:52Z</time>
      </trkpt>
      <trkpt lat="42.66328" lon="1.7902">
        <ele>2275.58</ele>
        <time>2015-01-19T12:18:05Z</time>
      </trkpt>
      <trkpt lat="42.66387" lon="1.79023">
        <ele>2269.81</ele>
        <time>2015-01-19T12:18:17Z</time>
      </trkpt>
      <trkpt lat="42.66433" lon="1.79015">
        <ele>2267.41</ele>
        <time>2015-01-19T12:18:29Z</time>
      </trkpt>
      <trkpt lat="42.66476" lon="1.79004">
        <ele>2262.6</ele>
        <time>2015-01-19T12:18:39Z</time>
      </trkpt>
      <trkpt lat="42.6651" lon="1.7902">
        <ele>2257.79</ele>
        <time>2015-01-19T12:18:46Z</time>
      </trkpt>
      <trkpt lat="42.66542" lon="1.79049">
        <ele>2252.51</ele>
        <time>2015-01-19T12:18:54Z</time>
      </trkpt>
      <trkpt lat="42.66567" lon="1.79074">
        <ele>2249.14</ele>
        <time>2015-01-19T12:18:59Z</time>
      </trkpt>
      <trkpt lat="42.6658" lon="1.79101">
        <ele>2247.22</ele>
        <time>2015-01-19T12:19:04Z</time>
      </trkpt>
      <trkpt lat="42.66589" lon="1.79126">
        <ele>2244.82</ele>
        <time>2015-01-19T12:19:08Z</time>
      </trkpt>
      <trkpt lat="42.66606" lon="1.79166">
        <ele>2239.05</ele>
        <time>2015-01-19T12:19:15Z</time>
      </trkpt>
      <trkpt lat="42.66613" lon="1.79183">
        <ele>2235.68</ele>
        <time>2015-01-19T12:19:18Z</time>
      </trkpt>
      <trkpt lat="42.66616" lon="1.79195">
        <ele>2233.76</ele>
        <time>2015-01-19T12:19:23Z</time>
      </trkpt>
      <trkpt lat="42.66634" lon="1.79208">
        <ele>2229.43</ele>
        <time>2015-01-19T12:19:29Z</time>
      </trkpt>
      <trkpt lat="42.66648" lon="1.7922">
        <ele>2223.19</ele>
        <time>2015-01-19T12:19:35Z</time>
      </trkpt>
      <trkpt lat="42.6667" lon="1.79224">
        <ele>2216.46</ele>
        <time>2015-01-19T12:19:40Z</time>
      </trkpt>
      <trkpt lat="42.66679" lon="1.79225">
        <ele>2213.57</ele>
        <time>2015-01-19T12:19:42Z</time>
      </trkpt>
      <trkpt lat="42.66709" lon="1.7923">
        <ele>2203.96</ele>
        <time>2015-01-19T12:19:48Z</time>
      </trkpt>
      <trkpt lat="42.66731" lon="1.79231">
        <ele>2193.87</ele>
        <time>2015-01-19T12:19:53Z</time>
      </trkpt>
      <trkpt lat="42.66738" lon="1.79228">
        <ele>2179.93</ele>
        <time>2015-01-19T12:20:04Z</time>
      </trkpt>
      <trkpt lat="42.66738" lon="1.79228">
        <ele>2178.97</ele>
        <time>2015-01-19T12:20:07Z</time>
      </trkpt>
      <trkpt lat="42.66756" lon="1.79242">
        <ele>2175.6</ele>
        <time>2015-01-19T12:20:14Z</time>
      </trkpt>
      <trkpt lat="42.6676" lon="1.79246">
        <ele>2174.64</ele>
        <time>2015-01-19T12:20:15Z</time>
      </trkpt>
      <trkpt lat="42.66768" lon="1.79255">
        <ele>2171.76</ele>
        <time>2015-01-19T12:20:17Z</time>
      </trkpt>
      <trkpt lat="42.66772" lon="1.79261">
        <ele>2170.31</ele>
        <time>2015-01-19T12:20:18Z</time>
      </trkpt>
      <trkpt lat="42.66776" lon="1.79265">
        <ele>2169.35</ele>
        <time>2015-01-19T12:20:19Z</time>
      </trkpt>
      <trkpt lat="42.6678" lon="1.7927">
        <ele>2167.91</ele>
        <time>2015-01-19T12:20:20Z</time>
      </trkpt>
      <trkpt lat="42.66784" lon="1.79275">
        <ele>2166.47</ele>
        <time>2015-01-19T12:20:21Z</time>
      </trkpt>
      <trkpt lat="42.66788" lon="1.7928">
        <ele>2165.03</ele>
        <time>2015-01-19T12:20:22Z</time>
      </trkpt>
      <trkpt lat="42.66791" lon="1.79286">
        <ele>2163.58</ele>
        <time>2015-01-19T12:20:23Z</time>
      </trkpt>
      <trkpt lat="42.66794" lon="1.79292">
        <ele>2162.62</ele>
        <time>2015-01-19T12:20:24Z</time>
      </trkpt>
      <trkpt lat="42.66797" lon="1.79298">
        <ele>2161.18</ele>
        <time>2015-01-19T12:20:25Z</time>
      </trkpt>
      <trkpt lat="42.66799" lon="1.79304">
        <ele>2160.22</ele>
        <time>2015-01-19T12:20:26Z</time>
      </trkpt>
      <trkpt lat="42.66801" lon="1.79309">
        <ele>2158.78</ele>
        <time>2015-01-19T12:20:27Z</time>
      </trkpt>
      <trkpt lat="42.66804" lon="1.79315">
        <ele>2157.82</ele>
        <time>2015-01-19T12:20:28Z</time>
      </trkpt>
      <trkpt lat="42.66807" lon="1.7932">
        <ele>2156.86</ele>
        <time>2015-01-19T12:20:29Z</time>
      </trkpt>
      <trkpt lat="42.66809" lon="1.79326">
        <ele>2155.89</ele>
        <time>2015-01-19T12:20:30Z</time>
      </trkpt>
      <trkpt lat="42.66812" lon="1.79331">
        <ele>2155.41</ele>
        <time>2015-01-19T12:20:31Z</time>
      </trkpt>
      <trkpt lat="42.66815" lon="1.79337">
        <ele>2154.45</ele>
        <time>2015-01-19T12:20:32Z</time>
      </trkpt>
      <trkpt lat="42.66817" lon="1.79343">
        <ele>2153.49</ele>
        <time>2015-01-19T12:20:33Z</time>
      </trkpt>
      <trkpt lat="42.6682" lon="1.79348">
        <ele>2152.53</ele>
        <time>2015-01-19T12:20:34Z</time>
      </trkpt>
      <trkpt lat="42.66822" lon="1.79354">
        <ele>2151.57</ele>
        <time>2015-01-19T12:20:35Z</time>
      </trkpt>
      <trkpt lat="42.66825" lon="1.7936">
        <ele>2150.61</ele>
        <time>2015-01-19T12:20:36Z</time>
      </trkpt>
      <trkpt lat="42.66827" lon="1.79365">
        <ele>2149.65</ele>
        <time>2015-01-19T12:20:37Z</time>
      </trkpt>
      <trkpt lat="42.66831" lon="1.79376">
        <ele>2148.2</ele>
        <time>2015-01-19T12:20:39Z</time>
      </trkpt>
      <trkpt lat="42.66834" lon="1.79381">
        <ele>2147.72</ele>
        <time>2015-01-19T12:20:40Z</time>
      </trkpt>
      <trkpt lat="42.66836" lon="1.79386">
        <ele>2146.76</ele>
        <time>2015-01-19T12:20:41Z</time>
      </trkpt>
      <trkpt lat="42.66839" lon="1.79391">
        <ele>2145.8</ele>
        <time>2015-01-19T12:20:42Z</time>
      </trkpt>
      <trkpt lat="42.66842" lon="1.79396">
        <ele>2145.32</ele>
        <time>2015-01-19T12:20:43Z</time>
      </trkpt>
      <trkpt lat="42.66845" lon="1.79401">
        <ele>2144.84</ele>
        <time>2015-01-19T12:20:44Z</time>
      </trkpt>
      <trkpt lat="42.66847" lon="1.79406">
        <ele>2143.88</ele>
        <time>2015-01-19T12:20:45Z</time>
      </trkpt>
      <trkpt lat="42.66849" lon="1.79411">
        <ele>2142.92</ele>
        <time>2015-01-19T12:20:46Z</time>
      </trkpt>
      <trkpt lat="42.66851" lon="1.79417">
        <ele>2141.95</ele>
        <time>2015-01-19T12:20:47Z</time>
      </trkpt>
      <trkpt lat="42.66854" lon="1.79422">
        <ele>2141.47</ele>
        <time>2015-01-19T12:20:48Z</time>
      </trkpt>
      <trkpt lat="42.66857" lon="1.79427">
        <ele>2140.51</ele>
        <time>2015-01-19T12:20:49Z</time>
      </trkpt>
      <trkpt lat="42.66861" lon="1.79433">
        <ele>2139.55</ele>
        <time>2015-01-19T12:20:50Z</time>
      </trkpt>
      <trkpt lat="42.66864" lon="1.7944">
        <ele>2138.59</ele>
        <time>2015-01-19T12:20:51Z</time>
      </trkpt>
      <trkpt lat="42.66867" lon="1.79446">
        <ele>2137.15</ele>
        <time>2015-01-19T12:20:52Z</time>
      </trkpt>
      <trkpt lat="42.66871" lon="1.79453">
        <ele>2136.19</ele>
        <time>2015-01-19T12:20:53Z</time>
      </trkpt>
      <trkpt lat="42.66874" lon="1.79459">
        <ele>2135.23</ele>
        <time>2015-01-19T12:20:54Z</time>
      </trkpt>
      <trkpt lat="42.66878" lon="1.79465">
        <ele>2134.26</ele>
        <time>2015-01-19T12:20:55Z</time>
      </trkpt>
      <trkpt lat="42.66882" lon="1.79472">
        <ele>2133.3</ele>
        <time>2015-01-19T12:20:56Z</time>
      </trkpt>
      <trkpt lat="42.66885" lon="1.79478">
        <ele>2132.34</ele>
        <time>2015-01-19T12:20:57Z</time>
      </trkpt>
      <trkpt lat="42.66888" lon="1.79485">
        <ele>2131.38</ele>
        <time>2015-01-19T12:20:58Z</time>
      </trkpt>
      <trkpt lat="42.66892" lon="1.79491">
        <ele>2130.42</ele>
        <time>2015-01-19T12:20:59Z</time>
      </trkpt>
      <trkpt lat="42.66894" lon="1.79498">
        <ele>2128.98</ele>
        <time>2015-01-19T12:21:00Z</time>
      </trkpt>
      <trkpt lat="42.66897" lon="1.79505">
        <ele>2128.02</ele>
        <time>2015-01-19T12:21:01Z</time>
      </trkpt>
      <trkpt lat="42.669" lon="1.79512">
        <ele>2127.05</ele>
        <time>2015-01-19T12:21:02Z</time>
      </trkpt>
      <trkpt lat="42.66903" lon="1.79518">
        <ele>2125.61</ele>
        <time>2015-01-19T12:21:03Z</time>
      </trkpt>
      <trkpt lat="42.66906" lon="1.79524">
        <ele>2124.65</ele>
        <time>2015-01-19T12:21:04Z</time>
      </trkpt>
      <trkpt lat="42.66909" lon="1.79531">
        <ele>2123.69</ele>
        <time>2015-01-19T12:21:05Z</time>
      </trkpt>
      <trkpt lat="42.66912" lon="1.79537">
        <ele>2122.73</ele>
        <time>2015-01-19T12:21:06Z</time>
      </trkpt>
      <trkpt lat="42.66914" lon="1.79544">
        <ele>2121.77</ele>
        <time>2015-01-19T12:21:07Z</time>
      </trkpt>
      <trkpt lat="42.66918" lon="1.7955">
        <ele>2120.81</ele>
        <time>2015-01-19T12:21:08Z</time>
      </trkpt>
      <trkpt lat="42.6692" lon="1.79557">
        <ele>2119.84</ele>
        <time>2015-01-19T12:21:09Z</time>
      </trkpt>
      <trkpt lat="42.66922" lon="1.79572">
        <ele>2117.92</ele>
        <time>2015-01-19T12:21:11Z</time>
      </trkpt>
      <trkpt lat="42.66935" lon="1.79634">
        <ele>2115.52</ele>
        <time>2015-01-19T12:21:21Z</time>
      </trkpt>
      <trkpt lat="42.66941" lon="1.797">
        <ele>2112.15</ele>
        <time>2015-01-19T12:21:36Z</time>
      </trkpt>
      <trkpt lat="42.66945" lon="1.7975">
        <ele>2109.75</ele>
        <time>2015-01-19T12:21:48Z</time>
      </trkpt>
      <trkpt lat="42.66947" lon="1.79761">
        <ele>2108.79</ele>
        <time>2015-01-19T12:21:50Z</time>
      </trkpt>
      <trkpt lat="42.66961" lon="1.79808">
        <ele>2102.54</ele>
        <time>2015-01-19T12:21:57Z</time>
      </trkpt>
      <trkpt lat="42.66963" lon="1.79835">
        <ele>2099.18</ele>
        <time>2015-01-19T12:22:02Z</time>
      </trkpt>
      <trkpt lat="42.66965" lon="1.79837">
        <ele>2098.21</ele>
        <time>2015-01-19T12:22:09Z</time>
      </trkpt>
      <trkpt lat="42.66977" lon="1.79831">
        <ele>2097.25</ele>
        <time>2015-01-19T12:22:14Z</time>
      </trkpt>
      <trkpt lat="42.66993" lon="1.79823">
        <ele>2093.41</ele>
        <time>2015-01-19T12:22:22Z</time>
      </trkpt>
      <trkpt lat="42.66993" lon="1.79823">
        <ele>2093.41</ele>
        <time>2015-01-19T12:22:23Z</time>
      </trkpt>
      <trkpt lat="42.6701" lon="1.79836">
        <ele>2086.2</ele>
        <time>2015-01-19T12:22:30Z</time>
      </trkpt>
      <trkpt lat="42.67019" lon="1.7984">
        <ele>2083.79</ele>
        <time>2015-01-19T12:22:32Z</time>
      </trkpt>
      <trkpt lat="42.67028" lon="1.79845">
        <ele>2080.91</ele>
        <time>2015-01-19T12:22:34Z</time>
      </trkpt>
      <trkpt lat="42.67032" lon="1.79849">
        <ele>2079.47</ele>
        <time>2015-01-19T12:22:35Z</time>
      </trkpt>
      <trkpt lat="42.67036" lon="1.79852">
        <ele>2078.51</ele>
        <time>2015-01-19T12:22:36Z</time>
      </trkpt>
      <trkpt lat="42.67041" lon="1.79855">
        <ele>2076.59</ele>
        <time>2015-01-19T12:22:37Z</time>
      </trkpt>
      <trkpt lat="42.67045" lon="1.79859">
        <ele>2075.14</ele>
        <time>2015-01-19T12:22:38Z</time>
      </trkpt>
      <trkpt lat="42.6705" lon="1.79863">
        <ele>2073.7</ele>
        <time>2015-01-19T12:22:39Z</time>
      </trkpt>
      <trkpt lat="42.67055" lon="1.79866">
        <ele>2072.26</ele>
        <time>2015-01-19T12:22:40Z</time>
      </trkpt>
      <trkpt lat="42.6706" lon="1.79869">
        <ele>2070.82</ele>
        <time>2015-01-19T12:22:41Z</time>
      </trkpt>
      <trkpt lat="42.67064" lon="1.79871">
        <ele>2069.38</ele>
        <time>2015-01-19T12:22:42Z</time>
      </trkpt>
      <trkpt lat="42.67067" lon="1.79875">
        <ele>2067.93</ele>
        <time>2015-01-19T12:22:43Z</time>
      </trkpt>
      <trkpt lat="42.67069" lon="1.79879">
        <ele>2066.97</ele>
        <time>2015-01-19T12:22:44Z</time>
      </trkpt>
      <trkpt lat="42.67072" lon="1.7988">
        <ele>2061.68</ele>
        <time>2015-01-19T12:22:51Z</time>
      </trkpt>
      <trkpt lat="42.67072" lon="1.79879">
        <ele>2061.2</ele>
        <time>2015-01-19T12:22:54Z</time>
      </trkpt>
      <trkpt lat="42.67075" lon="1.7988">
        <ele>2060.72</ele>
        <time>2015-01-19T12:22:56Z</time>
      </trkpt>
      <trkpt lat="42.67077" lon="1.79882">
        <ele>2060.24</ele>
        <time>2015-01-19T12:22:57Z</time>
      </trkpt>
      <trkpt lat="42.6708" lon="1.79883">
        <ele>2060.24</ele>
        <time>2015-01-19T12:22:58Z</time>
      </trkpt>
      <trkpt lat="42.67083" lon="1.79884">
        <ele>2059.76</ele>
        <time>2015-01-19T12:22:59Z</time>
      </trkpt>
      <trkpt lat="42.67084" lon="1.79887">
        <ele>2059.28</ele>
        <time>2015-01-19T12:23:00Z</time>
      </trkpt>
      <trkpt lat="42.67085" lon="1.7989">
        <ele>2058.32</ele>
        <time>2015-01-19T12:23:01Z</time>
      </trkpt>
      <trkpt lat="42.67085" lon="1.79892">
        <ele>2058.32</ele>
        <time>2015-01-19T12:23:02Z</time>
      </trkpt>
      <trkpt lat="42.67086" lon="1.79895">
        <ele>2057.84</ele>
        <time>2015-01-19T12:23:03Z</time>
      </trkpt>
      <trkpt lat="42.67088" lon="1.79898">
        <ele>2057.36</ele>
        <time>2015-01-19T12:23:04Z</time>
      </trkpt>
      <trkpt lat="42.67092" lon="1.79899">
        <ele>2056.4</ele>
        <time>2015-01-19T12:23:05Z</time>
      </trkpt>
      <trkpt lat="42.67095" lon="1.79898">
        <ele>2055.92</ele>
        <time>2015-01-19T12:23:06Z</time>
      </trkpt>
      <trkpt lat="42.67099" lon="1.79899">
        <ele>2054.96</ele>
        <time>2015-01-19T12:23:07Z</time>
      </trkpt>
      <trkpt lat="42.67103" lon="1.79901">
        <ele>2053.99</ele>
        <time>2015-01-19T12:23:08Z</time>
      </trkpt>
      <trkpt lat="42.67106" lon="1.79902">
        <ele>2053.03</ele>
        <time>2015-01-19T12:23:09Z</time>
      </trkpt>
      <trkpt lat="42.67116" lon="1.79898">
        <ele>2050.63</ele>
        <time>2015-01-19T12:23:11Z</time>
      </trkpt>
      <trkpt lat="42.67122" lon="1.79897">
        <ele>2049.19</ele>
        <time>2015-01-19T12:23:12Z</time>
      </trkpt>
      <trkpt lat="42.67144" lon="1.79891">
        <ele>2046.78</ele>
        <time>2015-01-19T12:23:16Z</time>
      </trkpt>
      <trkpt lat="42.67153" lon="1.79893">
        <ele>2045.82</ele>
        <time>2015-01-19T12:23:18Z</time>
      </trkpt>
      <trkpt lat="42.67163" lon="1.79894">
        <ele>2044.86</ele>
        <time>2015-01-19T12:23:20Z</time>
      </trkpt>
      <trkpt lat="42.67174" lon="1.79892">
        <ele>2043.9</ele>
        <time>2015-01-19T12:23:22Z</time>
      </trkpt>
      <trkpt lat="42.6718" lon="1.79889">
        <ele>2042.94</ele>
        <time>2015-01-19T12:23:23Z</time>
      </trkpt>
      <trkpt lat="42.67184" lon="1.79886">
        <ele>2042.46</ele>
        <time>2015-01-19T12:23:24Z</time>
      </trkpt>
      <trkpt lat="42.67189" lon="1.79883">
        <ele>2041.5</ele>
        <time>2015-01-19T12:23:25Z</time>
      </trkpt>
      <trkpt lat="42.67193" lon="1.7988">
        <ele>2041.02</ele>
        <time>2015-01-19T12:23:26Z</time>
      </trkpt>
      <trkpt lat="42.67198" lon="1.79876">
        <ele>2040.05</ele>
        <time>2015-01-19T12:23:27Z</time>
      </trkpt>
      <trkpt lat="42.67202" lon="1.79874">
        <ele>2039.57</ele>
        <time>2015-01-19T12:23:28Z</time>
      </trkpt>
      <trkpt lat="42.67206" lon="1.79871">
        <ele>2038.61</ele>
        <time>2015-01-19T12:23:29Z</time>
      </trkpt>
      <trkpt lat="42.6721" lon="1.79867">
        <ele>2038.13</ele>
        <time>2015-01-19T12:23:30Z</time>
      </trkpt>
      <trkpt lat="42.67213" lon="1.79863">
        <ele>2037.65</ele>
        <time>2015-01-19T12:23:31Z</time>
      </trkpt>
      <trkpt lat="42.67216" lon="1.79858">
        <ele>2037.17</ele>
        <time>2015-01-19T12:23:32Z</time>
      </trkpt>
      <trkpt lat="42.67217" lon="1.79853">
        <ele>2036.69</ele>
        <time>2015-01-19T12:23:33Z</time>
      </trkpt>
      <trkpt lat="42.67234" lon="1.79818">
        <ele>2031.4</ele>
        <time>2015-01-19T12:23:41Z</time>
      </trkpt>
      <trkpt lat="42.6724" lon="1.79809">
        <ele>2029.96</ele>
        <time>2015-01-19T12:23:43Z</time>
      </trkpt>
      <trkpt lat="42.67254" lon="1.79776">
        <ele>2025.64</ele>
        <time>2015-01-19T12:23:49Z</time>
      </trkpt>
      <trkpt lat="42.6727" lon="1.79732">
        <ele>2018.91</ele>
        <time>2015-01-19T12:23:58Z</time>
      </trkpt>
      <trkpt lat="42.6727" lon="1.79727">
        <ele>2017.46</ele>
        <time>2015-01-19T12:24:00Z</time>
      </trkpt>
      <trkpt lat="42.6727" lon="1.79722">
        <ele>2014.1</ele>
        <time>2015-01-19T12:24:08Z</time>
      </trkpt>
      <trkpt lat="42.67286" lon="1.79693">
        <ele>2011.22</ele>
        <time>2015-01-19T12:24:16Z</time>
      </trkpt>
      <trkpt lat="42.67299" lon="1.79667">
        <ele>2008.81</ele>
        <time>2015-01-19T12:24:21Z</time>
      </trkpt>
      <trkpt lat="42.67306" lon="1.79647">
        <ele>2007.37</ele>
        <time>2015-01-19T12:24:24Z</time>
      </trkpt>
      <trkpt lat="42.67313" lon="1.79619">
        <ele>2004.49</ele>
        <time>2015-01-19T12:24:28Z</time>
      </trkpt>
      <trkpt lat="42.67336" lon="1.7958">
        <ele>1998.24</ele>
        <time>2015-01-19T12:24:36Z</time>
      </trkpt>
      <trkpt lat="42.67349" lon="1.7956">
        <ele>1993.43</ele>
        <time>2015-01-19T12:24:40Z</time>
      </trkpt>
      <trkpt lat="42.67358" lon="1.79553">
        <ele>1991.03</ele>
        <time>2015-01-19T12:24:42Z</time>
      </trkpt>
      <trkpt lat="42.67379" lon="1.79543">
        <ele>1985.74</ele>
        <time>2015-01-19T12:24:46Z</time>
      </trkpt>
      <trkpt lat="42.67408" lon="1.79535">
        <ele>1979.97</ele>
        <time>2015-01-19T12:24:50Z</time>
      </trkpt>
      <trkpt lat="42.6745" lon="1.79534">
        <ele>1972.28</ele>
        <time>2015-01-19T12:24:58Z</time>
      </trkpt>
      <trkpt lat="42.67456" lon="1.79533">
        <ele>1971.8</ele>
        <time>2015-01-19T12:24:59Z</time>
      </trkpt>
      <trkpt lat="42.6746" lon="1.79531">
        <ele>1971.32</ele>
        <time>2015-01-19T12:25:00Z</time>
      </trkpt>
      <trkpt lat="42.67482" lon="1.79523">
        <ele>1968.44</ele>
        <time>2015-01-19T12:25:04Z</time>
      </trkpt>
      <trkpt lat="42.67497" lon="1.79517">
        <ele>1966.03</ele>
        <time>2015-01-19T12:25:07Z</time>
      </trkpt>
      <trkpt lat="42.67502" lon="1.79515">
        <ele>1965.07</ele>
        <time>2015-01-19T12:25:08Z</time>
      </trkpt>
      <trkpt lat="42.67516" lon="1.79507">
        <ele>1962.67</ele>
        <time>2015-01-19T12:25:11Z</time>
      </trkpt>
      <trkpt lat="42.67521" lon="1.79503">
        <ele>1961.71</ele>
        <time>2015-01-19T12:25:12Z</time>
      </trkpt>
      <trkpt lat="42.67526" lon="1.795">
        <ele>1960.75</ele>
        <time>2015-01-19T12:25:13Z</time>
      </trkpt>
      <trkpt lat="42.67534" lon="1.79495">
        <ele>1959.3</ele>
        <time>2015-01-19T12:25:15Z</time>
      </trkpt>
      <trkpt lat="42.67538" lon="1.79493">
        <ele>1958.82</ele>
        <time>2015-01-19T12:25:16Z</time>
      </trkpt>
      <trkpt lat="42.67542" lon="1.7949">
        <ele>1957.86</ele>
        <time>2015-01-19T12:25:17Z</time>
      </trkpt>
      <trkpt lat="42.67546" lon="1.79488">
        <ele>1957.38</ele>
        <time>2015-01-19T12:25:18Z</time>
      </trkpt>
      <trkpt lat="42.6755" lon="1.79485">
        <ele>1956.42</ele>
        <time>2015-01-19T12:25:19Z</time>
      </trkpt>
      <trkpt lat="42.67581" lon="1.79465">
        <ele>1951.61</ele>
        <time>2015-01-19T12:25:25Z</time>
      </trkpt>
      <trkpt lat="42.67612" lon="1.7945">
        <ele>1946.33</ele>
        <time>2015-01-19T12:25:31Z</time>
      </trkpt>
      <trkpt lat="42.6762" lon="1.79444">
        <ele>1944.88</ele>
        <time>2015-01-19T12:25:33Z</time>
      </trkpt>
      <trkpt lat="42.6765" lon="1.79414">
        <ele>1939.12</ele>
        <time>2015-01-19T12:25:40Z</time>
      </trkpt>
      <trkpt lat="42.6766" lon="1.79401">
        <ele>1935.75</ele>
        <time>2015-01-19T12:25:47Z</time>
      </trkpt>
      <trkpt lat="42.67664" lon="1.79389">
        <ele>1932.87</ele>
        <time>2015-01-19T12:26:01Z</time>
      </trkpt>
      <trkpt lat="42.67693" lon="1.79365">
        <ele>1927.58</ele>
        <time>2015-01-19T12:26:12Z</time>
      </trkpt>
      <trkpt lat="42.677" lon="1.79359">
        <ele>1926.14</ele>
        <time>2015-01-19T12:26:14Z</time>
      </trkpt>
      <trkpt lat="42.67711" lon="1.79351">
        <ele>1923.74</ele>
        <time>2015-01-19T12:26:17Z</time>
      </trkpt>
      <trkpt lat="42.67718" lon="1.79345">
        <ele>1922.29</ele>
        <time>2015-01-19T12:26:19Z</time>
      </trkpt>
      <trkpt lat="42.67722" lon="1.79342">
        <ele>1921.33</ele>
        <time>2015-01-19T12:26:20Z</time>
      </trkpt>
      <trkpt lat="42.67726" lon="1.79338">
        <ele>1920.85</ele>
        <time>2015-01-19T12:26:21Z</time>
      </trkpt>
      <trkpt lat="42.67759" lon="1.79305">
        <ele>1916.04</ele>
        <time>2015-01-19T12:26:29Z</time>
      </trkpt>
      <trkpt lat="42.67765" lon="1.79299">
        <ele>1915.56</ele>
        <time>2015-01-19T12:26:35Z</time>
      </trkpt>
      <trkpt lat="42.67778" lon="1.79289">
        <ele>1917.01</ele>
        <time>2015-01-19T12:26:55Z</time>
      </trkpt>
      <trkpt lat="42.67811" lon="1.79277">
        <ele>1912.2</ele>
        <time>2015-01-19T12:27:04Z</time>
      </trkpt>
      <trkpt lat="42.6782" lon="1.79275">
        <ele>1911.72</ele>
        <time>2015-01-19T12:27:06Z</time>
      </trkpt>
      <trkpt lat="42.67825" lon="1.79275">
        <ele>1911.24</ele>
        <time>2015-01-19T12:27:07Z</time>
      </trkpt>
      <trkpt lat="42.67834" lon="1.79275">
        <ele>1909.8</ele>
        <time>2015-01-19T12:27:09Z</time>
      </trkpt>
      <trkpt lat="42.67839" lon="1.79275">
        <ele>1909.32</ele>
        <time>2015-01-19T12:27:10Z</time>
      </trkpt>
      <trkpt lat="42.67843" lon="1.79274">
        <ele>1908.83</ele>
        <time>2015-01-19T12:27:11Z</time>
      </trkpt>
      <trkpt lat="42.67848" lon="1.79273">
        <ele>1908.35</ele>
        <time>2015-01-19T12:27:12Z</time>
      </trkpt>
      <trkpt lat="42.67853" lon="1.79273">
        <ele>1907.39</ele>
        <time>2015-01-19T12:27:13Z</time>
      </trkpt>
      <trkpt lat="42.67858" lon="1.79272">
        <ele>1906.91</ele>
        <time>2015-01-19T12:27:14Z</time>
      </trkpt>
      <trkpt lat="42.67863" lon="1.79272">
        <ele>1906.43</ele>
        <time>2015-01-19T12:27:15Z</time>
      </trkpt>
      <trkpt lat="42.67867" lon="1.79273">
        <ele>1905.95</ele>
        <time>2015-01-19T12:27:16Z</time>
      </trkpt>
      <trkpt lat="42.67872" lon="1.79273">
        <ele>1905.47</ele>
        <time>2015-01-19T12:27:17Z</time>
      </trkpt>
      <trkpt lat="42.67876" lon="1.79273">
        <ele>1904.99</ele>
        <time>2015-01-19T12:27:18Z</time>
      </trkpt>
      <trkpt lat="42.67881" lon="1.79272">
        <ele>1904.03</ele>
        <time>2015-01-19T12:27:19Z</time>
      </trkpt>
      <trkpt lat="42.67886" lon="1.79271">
        <ele>1903.55</ele>
        <time>2015-01-19T12:27:20Z</time>
      </trkpt>
      <trkpt lat="42.67891" lon="1.79272">
        <ele>1902.59</ele>
        <time>2015-01-19T12:27:21Z</time>
      </trkpt>
      <trkpt lat="42.67897" lon="1.79271">
        <ele>1902.11</ele>
        <time>2015-01-19T12:27:22Z</time>
      </trkpt>
      <trkpt lat="42.67902" lon="1.79271">
        <ele>1901.14</ele>
        <time>2015-01-19T12:27:23Z</time>
      </trkpt>
      <trkpt lat="42.67908" lon="1.79271">
        <ele>1900.66</ele>
        <time>2015-01-19T12:27:24Z</time>
      </trkpt>
      <trkpt lat="42.67913" lon="1.7927">
        <ele>1900.18</ele>
        <time>2015-01-19T12:27:25Z</time>
      </trkpt>
      <trkpt lat="42.67919" lon="1.79271">
        <ele>1899.7</ele>
        <time>2015-01-19T12:27:26Z</time>
      </trkpt>
      <trkpt lat="42.67924" lon="1.79272">
        <ele>1898.74</ele>
        <time>2015-01-19T12:27:27Z</time>
      </trkpt>
      <trkpt lat="42.67929" lon="1.79273">
        <ele>1898.26</ele>
        <time>2015-01-19T12:27:28Z</time>
      </trkpt>
      <trkpt lat="42.67991" lon="1.79283">
        <ele>1890.09</ele>
        <time>2015-01-19T12:27:39Z</time>
      </trkpt>
      <trkpt lat="42.67996" lon="1.79285">
        <ele>1889.61</ele>
        <time>2015-01-19T12:27:40Z</time>
      </trkpt>
      <trkpt lat="42.68002" lon="1.79289">
        <ele>1888.65</ele>
        <time>2015-01-19T12:27:41Z</time>
      </trkpt>
      <trkpt lat="42.68071" lon="1.79328">
        <ele>1880</ele>
        <time>2015-01-19T12:27:52Z</time>
      </trkpt>
      <trkpt lat="42.68078" lon="1.79331">
        <ele>1879.51</ele>
        <time>2015-01-19T12:27:53Z</time>
      </trkpt>
      <trkpt lat="42.68169" lon="1.79411">
        <ele>1867.02</ele>
        <time>2015-01-19T12:28:08Z</time>
      </trkpt>
      <trkpt lat="42.68181" lon="1.79424">
        <ele>1865.58</ele>
        <time>2015-01-19T12:28:10Z</time>
      </trkpt>
      <trkpt lat="42.68186" lon="1.7943">
        <ele>1864.61</ele>
        <time>2015-01-19T12:28:11Z</time>
      </trkpt>
      <trkpt lat="42.68203" lon="1.7946">
        <ele>1861.25</ele>
        <time>2015-01-19T12:28:15Z</time>
      </trkpt>
      <trkpt lat="42.68207" lon="1.79469">
        <ele>1860.77</ele>
        <time>2015-01-19T12:28:16Z</time>
      </trkpt>
      <trkpt lat="42.68233" lon="1.7953">
        <ele>1855.48</ele>
        <time>2015-01-19T12:28:23Z</time>
      </trkpt>
      <trkpt lat="42.68236" lon="1.7954">
        <ele>1855</ele>
        <time>2015-01-19T12:28:24Z</time>
      </trkpt>
      <trkpt lat="42.68241" lon="1.7956">
        <ele>1853.56</ele>
        <time>2015-01-19T12:28:26Z</time>
      </trkpt>
      <trkpt lat="42.68247" lon="1.79589">
        <ele>1851.16</ele>
        <time>2015-01-19T12:28:29Z</time>
      </trkpt>
      <trkpt lat="42.68249" lon="1.79597">
        <ele>1850.68</ele>
        <time>2015-01-19T12:28:30Z</time>
      </trkpt>
      <trkpt lat="42.68251" lon="1.79606">
        <ele>1850.19</ele>
        <time>2015-01-19T12:28:31Z</time>
      </trkpt>
      <trkpt lat="42.68252" lon="1.79615">
        <ele>1849.71</ele>
        <time>2015-01-19T12:28:32Z</time>
      </trkpt>
      <trkpt lat="42.68253" lon="1.79624">
        <ele>1849.23</ele>
        <time>2015-01-19T12:28:33Z</time>
      </trkpt>
      <trkpt lat="42.68258" lon="1.79651">
        <ele>1847.31</ele>
        <time>2015-01-19T12:28:36Z</time>
      </trkpt>
      <trkpt lat="42.6826" lon="1.7966">
        <ele>1846.83</ele>
        <time>2015-01-19T12:28:37Z</time>
      </trkpt>
      <trkpt lat="42.68261" lon="1.79668">
        <ele>1846.35</ele>
        <time>2015-01-19T12:28:38Z</time>
      </trkpt>
      <trkpt lat="42.68263" lon="1.79677">
        <ele>1845.87</ele>
        <time>2015-01-19T12:28:39Z</time>
      </trkpt>
      <trkpt lat="42.68265" lon="1.79685">
        <ele>1845.39</ele>
        <time>2015-01-19T12:28:40Z</time>
      </trkpt>
      <trkpt lat="42.68267" lon="1.79693">
        <ele>1844.91</ele>
        <time>2015-01-19T12:28:41Z</time>
      </trkpt>
      <trkpt lat="42.68273" lon="1.79707">
        <ele>1843.95</ele>
        <time>2015-01-19T12:28:43Z</time>
      </trkpt>
      <trkpt lat="42.68282" lon="1.79718">
        <ele>1842.98</ele>
        <time>2015-01-19T12:28:45Z</time>
      </trkpt>
      <trkpt lat="42.68286" lon="1.79723">
        <ele>1842.02</ele>
        <time>2015-01-19T12:28:46Z</time>
      </trkpt>
      <trkpt lat="42.68291" lon="1.79726">
        <ele>1841.54</ele>
        <time>2015-01-19T12:28:47Z</time>
      </trkpt>
      <trkpt lat="42.68295" lon="1.79731">
        <ele>1841.06</ele>
        <time>2015-01-19T12:28:48Z</time>
      </trkpt>
      <trkpt lat="42.68299" lon="1.79735">
        <ele>1840.1</ele>
        <time>2015-01-19T12:28:49Z</time>
      </trkpt>
      <trkpt lat="42.68303" lon="1.79739">
        <ele>1839.62</ele>
        <time>2015-01-19T12:28:50Z</time>
      </trkpt>
      <trkpt lat="42.68308" lon="1.79742">
        <ele>1838.66</ele>
        <time>2015-01-19T12:28:51Z</time>
      </trkpt>
      <trkpt lat="42.68312" lon="1.79745">
        <ele>1837.7</ele>
        <time>2015-01-19T12:28:52Z</time>
      </trkpt>
      <trkpt lat="42.68317" lon="1.79748">
        <ele>1837.22</ele>
        <time>2015-01-19T12:28:53Z</time>
      </trkpt>
      <trkpt lat="42.68327" lon="1.79755">
        <ele>1835.77</ele>
        <time>2015-01-19T12:28:55Z</time>
      </trkpt>
      <trkpt lat="42.68332" lon="1.79758">
        <ele>1834.81</ele>
        <time>2015-01-19T12:28:56Z</time>
      </trkpt>
      <trkpt lat="42.68337" lon="1.79761">
        <ele>1833.85</ele>
        <time>2015-01-19T12:28:57Z</time>
      </trkpt>
      <trkpt lat="42.68342" lon="1.79762">
        <ele>1833.37</ele>
        <time>2015-01-19T12:28:58Z</time>
      </trkpt>
      <trkpt lat="42.68348" lon="1.79764">
        <ele>1832.89</ele>
        <time>2015-01-19T12:28:59Z</time>
      </trkpt>
      <trkpt lat="42.68353" lon="1.79766">
        <ele>1831.93</ele>
        <time>2015-01-19T12:29:00Z</time>
      </trkpt>
      <trkpt lat="42.68359" lon="1.79767">
        <ele>1830.97</ele>
        <time>2015-01-19T12:29:01Z</time>
      </trkpt>
      <trkpt lat="42.68366" lon="1.79767">
        <ele>1830.49</ele>
        <time>2015-01-19T12:29:02Z</time>
      </trkpt>
      <trkpt lat="42.68422" lon="1.7977">
        <ele>1824.24</ele>
        <time>2015-01-19T12:29:10Z</time>
      </trkpt>
      <trkpt lat="42.68429" lon="1.7977">
        <ele>1823.28</ele>
        <time>2015-01-19T12:29:11Z</time>
      </trkpt>
      <trkpt lat="42.68436" lon="1.7977">
        <ele>1822.32</ele>
        <time>2015-01-19T12:29:12Z</time>
      </trkpt>
      <trkpt lat="42.68455" lon="1.79768">
        <ele>1819.43</ele>
        <time>2015-01-19T12:29:15Z</time>
      </trkpt>
      <trkpt lat="42.6846" lon="1.79767">
        <ele>1818.47</ele>
        <time>2015-01-19T12:29:16Z</time>
      </trkpt>
      <trkpt lat="42.68467" lon="1.79767">
        <ele>1817.51</ele>
        <time>2015-01-19T12:29:17Z</time>
      </trkpt>
      <trkpt lat="42.68478" lon="1.79765">
        <ele>1815.59</ele>
        <time>2015-01-19T12:29:19Z</time>
      </trkpt>
      <trkpt lat="42.68483" lon="1.79764">
        <ele>1815.11</ele>
        <time>2015-01-19T12:29:20Z</time>
      </trkpt>
      <trkpt lat="42.68489" lon="1.79764">
        <ele>1814.15</ele>
        <time>2015-01-19T12:29:21Z</time>
      </trkpt>
      <trkpt lat="42.68495" lon="1.79764">
        <ele>1813.18</ele>
        <time>2015-01-19T12:29:22Z</time>
      </trkpt>
      <trkpt lat="42.68501" lon="1.79763">
        <ele>1812.7</ele>
        <time>2015-01-19T12:29:23Z</time>
      </trkpt>
      <trkpt lat="42.68507" lon="1.79763">
        <ele>1811.74</ele>
        <time>2015-01-19T12:29:24Z</time>
      </trkpt>
      <trkpt lat="42.68513" lon="1.79762">
        <ele>1810.78</ele>
        <time>2015-01-19T12:29:25Z</time>
      </trkpt>
      <trkpt lat="42.68539" lon="1.7976">
        <ele>1807.42</ele>
        <time>2015-01-19T12:29:29Z</time>
      </trkpt>
      <trkpt lat="42.68557" lon="1.79752">
        <ele>1805.01</ele>
        <time>2015-01-19T12:29:32Z</time>
      </trkpt>
      <trkpt lat="42.68563" lon="1.79748">
        <ele>1804.53</ele>
        <time>2015-01-19T12:29:33Z</time>
      </trkpt>
      <trkpt lat="42.68581" lon="1.79734">
        <ele>1802.61</ele>
        <time>2015-01-19T12:29:36Z</time>
      </trkpt>
      <trkpt lat="42.68586" lon="1.7973">
        <ele>1801.65</ele>
        <time>2015-01-19T12:29:37Z</time>
      </trkpt>
      <trkpt lat="42.68592" lon="1.79726">
        <ele>1801.17</ele>
        <time>2015-01-19T12:29:38Z</time>
      </trkpt>
      <trkpt lat="42.68615" lon="1.79712">
        <ele>1798.28</ele>
        <time>2015-01-19T12:29:42Z</time>
      </trkpt>
      <trkpt lat="42.6862" lon="1.79708">
        <ele>1797.32</ele>
        <time>2015-01-19T12:29:43Z</time>
      </trkpt>
      <trkpt lat="42.68626" lon="1.79704">
        <ele>1796.84</ele>
        <time>2015-01-19T12:29:44Z</time>
      </trkpt>
      <trkpt lat="42.68632" lon="1.797">
        <ele>1795.88</ele>
        <time>2015-01-19T12:29:45Z</time>
      </trkpt>
      <trkpt lat="42.68638" lon="1.79698">
        <ele>1794.92</ele>
        <time>2015-01-19T12:29:46Z</time>
      </trkpt>
      <trkpt lat="42.68643" lon="1.79696">
        <ele>1794.44</ele>
        <time>2015-01-19T12:29:47Z</time>
      </trkpt>
      <trkpt lat="42.68649" lon="1.79693">
        <ele>1793.48</ele>
        <time>2015-01-19T12:29:48Z</time>
      </trkpt>
      <trkpt lat="42.68656" lon="1.79689">
        <ele>1792.52</ele>
        <time>2015-01-19T12:29:49Z</time>
      </trkpt>
      <trkpt lat="42.68677" lon="1.7968">
        <ele>1790.11</ele>
        <time>2015-01-19T12:29:52Z</time>
      </trkpt>
      <trkpt lat="42.68684" lon="1.79681">
        <ele>1789.15</ele>
        <time>2015-01-19T12:29:53Z</time>
      </trkpt>
      <trkpt lat="42.6869" lon="1.79681">
        <ele>1788.67</ele>
        <time>2015-01-19T12:29:54Z</time>
      </trkpt>
      <trkpt lat="42.68697" lon="1.7968">
        <ele>1787.71</ele>
        <time>2015-01-19T12:29:55Z</time>
      </trkpt>
      <trkpt lat="42.68702" lon="1.79679">
        <ele>1787.23</ele>
        <time>2015-01-19T12:29:56Z</time>
      </trkpt>
      <trkpt lat="42.68708" lon="1.7968">
        <ele>1786.27</ele>
        <time>2015-01-19T12:29:57Z</time>
      </trkpt>
      <trkpt lat="42.68735" lon="1.79679">
        <ele>1783.86</ele>
        <time>2015-01-19T12:30:01Z</time>
      </trkpt>
      <trkpt lat="42.68742" lon="1.79681">
        <ele>1782.9</ele>
        <time>2015-01-19T12:30:02Z</time>
      </trkpt>
      <trkpt lat="42.68749" lon="1.79682">
        <ele>1781.94</ele>
        <time>2015-01-19T12:30:03Z</time>
      </trkpt>
      <trkpt lat="42.68763" lon="1.79685">
        <ele>1780.5</ele>
        <time>2015-01-19T12:30:05Z</time>
      </trkpt>
      <trkpt lat="42.68769" lon="1.79687">
        <ele>1780.02</ele>
        <time>2015-01-19T12:30:06Z</time>
      </trkpt>
      <trkpt lat="42.68776" lon="1.79688">
        <ele>1779.54</ele>
        <time>2015-01-19T12:30:07Z</time>
      </trkpt>
      <trkpt lat="42.68783" lon="1.79688">
        <ele>1778.58</ele>
        <time>2015-01-19T12:30:08Z</time>
      </trkpt>
      <trkpt lat="42.68789" lon="1.7969">
        <ele>1778.1</ele>
        <time>2015-01-19T12:30:09Z</time>
      </trkpt>
      <trkpt lat="42.68796" lon="1.79691">
        <ele>1777.13</ele>
        <time>2015-01-19T12:30:10Z</time>
      </trkpt>
      <trkpt lat="42.68803" lon="1.79693">
        <ele>1776.65</ele>
        <time>2015-01-19T12:30:11Z</time>
      </trkpt>
      <trkpt lat="42.68809" lon="1.79696">
        <ele>1775.69</ele>
        <time>2015-01-19T12:30:12Z</time>
      </trkpt>
      <trkpt lat="42.68815" lon="1.79699">
        <ele>1774.73</ele>
        <time>2015-01-19T12:30:13Z</time>
      </trkpt>
      <trkpt lat="42.68822" lon="1.79701">
        <ele>1774.25</ele>
        <time>2015-01-19T12:30:14Z</time>
      </trkpt>
      <trkpt lat="42.68828" lon="1.79702">
        <ele>1773.29</ele>
        <time>2015-01-19T12:30:15Z</time>
      </trkpt>
      <trkpt lat="42.68835" lon="1.79705">
        <ele>1772.81</ele>
        <time>2015-01-19T12:30:16Z</time>
      </trkpt>
      <trkpt lat="42.68841" lon="1.79706">
        <ele>1772.33</ele>
        <time>2015-01-19T12:30:17Z</time>
      </trkpt>
      <trkpt lat="42.68848" lon="1.79707">
        <ele>1771.37</ele>
        <time>2015-01-19T12:30:18Z</time>
      </trkpt>
      <trkpt lat="42.68854" lon="1.7971">
        <ele>1770.89</ele>
        <time>2015-01-19T12:30:19Z</time>
      </trkpt>
      <trkpt lat="42.68861" lon="1.79712">
        <ele>1769.92</ele>
        <time>2015-01-19T12:30:20Z</time>
      </trkpt>
      <trkpt lat="42.68868" lon="1.79712">
        <ele>1769.44</ele>
        <time>2015-01-19T12:30:21Z</time>
      </trkpt>
      <trkpt lat="42.68876" lon="1.79714">
        <ele>1768</ele>
        <time>2015-01-19T12:30:22Z</time>
      </trkpt>
      <trkpt lat="42.68883" lon="1.79716">
        <ele>1767.04</ele>
        <time>2015-01-19T12:30:23Z</time>
      </trkpt>
      <trkpt lat="42.6889" lon="1.79717">
        <ele>1766.08</ele>
        <time>2015-01-19T12:30:24Z</time>
      </trkpt>
      <trkpt lat="42.68896" lon="1.7972">
        <ele>1765.12</ele>
        <time>2015-01-19T12:30:25Z</time>
      </trkpt>
      <trkpt lat="42.68902" lon="1.79723">
        <ele>1764.16</ele>
        <time>2015-01-19T12:30:26Z</time>
      </trkpt>
      <trkpt lat="42.68907" lon="1.79724">
        <ele>1763.2</ele>
        <time>2015-01-19T12:30:27Z</time>
      </trkpt>
      <trkpt lat="42.68913" lon="1.79727">
        <ele>1762.23</ele>
        <time>2015-01-19T12:30:28Z</time>
      </trkpt>
      <trkpt lat="42.68918" lon="1.79729">
        <ele>1761.27</ele>
        <time>2015-01-19T12:30:29Z</time>
      </trkpt>
      <trkpt lat="42.68924" lon="1.79731">
        <ele>1760.31</ele>
        <time>2015-01-19T12:30:30Z</time>
      </trkpt>
      <trkpt lat="42.6893" lon="1.79735">
        <ele>1759.35</ele>
        <time>2015-01-19T12:30:31Z</time>
      </trkpt>
      <trkpt lat="42.68935" lon="1.79739">
        <ele>1758.39</ele>
        <time>2015-01-19T12:30:32Z</time>
      </trkpt>
      <trkpt lat="42.6894" lon="1.79742">
        <ele>1757.43</ele>
        <time>2015-01-19T12:30:33Z</time>
      </trkpt>
      <trkpt lat="42.68946" lon="1.79745">
        <ele>1756.47</ele>
        <time>2015-01-19T12:30:34Z</time>
      </trkpt>
      <trkpt lat="42.68958" lon="1.79753">
        <ele>1755.02</ele>
        <time>2015-01-19T12:30:36Z</time>
      </trkpt>
      <trkpt lat="42.68967" lon="1.79764">
        <ele>1753.1</ele>
        <time>2015-01-19T12:30:38Z</time>
      </trkpt>
      <trkpt lat="42.68972" lon="1.79769">
        <ele>1752.14</ele>
        <time>2015-01-19T12:30:39Z</time>
      </trkpt>
      <trkpt lat="42.68976" lon="1.79775">
        <ele>1751.18</ele>
        <time>2015-01-19T12:30:40Z</time>
      </trkpt>
      <trkpt lat="42.68981" lon="1.7978">
        <ele>1750.22</ele>
        <time>2015-01-19T12:30:41Z</time>
      </trkpt>
      <trkpt lat="42.68986" lon="1.79786">
        <ele>1749.26</ele>
        <time>2015-01-19T12:30:42Z</time>
      </trkpt>
      <trkpt lat="42.6899" lon="1.79792">
        <ele>1748.29</ele>
        <time>2015-01-19T12:30:43Z</time>
      </trkpt>
      <trkpt lat="42.68995" lon="1.79796">
        <ele>1747.33</ele>
        <time>2015-01-19T12:30:44Z</time>
      </trkpt>
      <trkpt lat="42.69001" lon="1.798">
        <ele>1746.85</ele>
        <time>2015-01-19T12:30:45Z</time>
      </trkpt>
      <trkpt lat="42.69006" lon="1.79804">
        <ele>1745.89</ele>
        <time>2015-01-19T12:30:46Z</time>
      </trkpt>
      <trkpt lat="42.69012" lon="1.79807">
        <ele>1745.41</ele>
        <time>2015-01-19T12:30:47Z</time>
      </trkpt>
      <trkpt lat="42.69018" lon="1.79811">
        <ele>1744.45</ele>
        <time>2015-01-19T12:30:48Z</time>
      </trkpt>
      <trkpt lat="42.69023" lon="1.79816">
        <ele>1743.49</ele>
        <time>2015-01-19T12:30:49Z</time>
      </trkpt>
      <trkpt lat="42.69027" lon="1.79821">
        <ele>1743.01</ele>
        <time>2015-01-19T12:30:50Z</time>
      </trkpt>
      <trkpt lat="42.69036" lon="1.79827">
        <ele>1742.53</ele>
        <time>2015-01-19T12:30:56Z</time>
      </trkpt>
      <trkpt lat="42.69051" lon="1.79838">
        <ele>1746.37</ele>
        <time>2015-01-19T12:31:11Z</time>
      </trkpt>
      <trkpt lat="42.69058" lon="1.79843">
        <ele>1745.89</ele>
        <time>2015-01-19T12:31:13Z</time>
      </trkpt>
      <trkpt lat="42.69116" lon="1.79871">
        <ele>1741.57</ele>
        <time>2015-01-19T12:31:24Z</time>
      </trkpt>
      <trkpt lat="42.69121" lon="1.79875">
        <ele>1741.08</ele>
        <time>2015-01-19T12:31:25Z</time>
      </trkpt>
      <trkpt lat="42.69126" lon="1.79879">
        <ele>1740.12</ele>
        <time>2015-01-19T12:31:26Z</time>
      </trkpt>
      <trkpt lat="42.69131" lon="1.79882">
        <ele>1739.64</ele>
        <time>2015-01-19T12:31:27Z</time>
      </trkpt>
      <trkpt lat="42.69137" lon="1.79884">
        <ele>1739.16</ele>
        <time>2015-01-19T12:31:28Z</time>
      </trkpt>
      <trkpt lat="42.69143" lon="1.79883">
        <ele>1738.2</ele>
        <time>2015-01-19T12:31:29Z</time>
      </trkpt>
      <trkpt lat="42.69148" lon="1.79881">
        <ele>1737.72</ele>
        <time>2015-01-19T12:31:30Z</time>
      </trkpt>
      <trkpt lat="42.69154" lon="1.7988">
        <ele>1736.76</ele>
        <time>2015-01-19T12:31:31Z</time>
      </trkpt>
      <trkpt lat="42.69159" lon="1.7988">
        <ele>1735.8</ele>
        <time>2015-01-19T12:31:32Z</time>
      </trkpt>
      <trkpt lat="42.69165" lon="1.79879">
        <ele>1734.84</ele>
        <time>2015-01-19T12:31:33Z</time>
      </trkpt>
      <trkpt lat="42.69175" lon="1.79875">
        <ele>1732.91</ele>
        <time>2015-01-19T12:31:35Z</time>
      </trkpt>
      <trkpt lat="42.6918" lon="1.79871">
        <ele>1732.43</ele>
        <time>2015-01-19T12:31:36Z</time>
      </trkpt>
      <trkpt lat="42.69189" lon="1.79864">
        <ele>1731.47</ele>
        <time>2015-01-19T12:31:38Z</time>
      </trkpt>
      <trkpt lat="42.69193" lon="1.79863">
        <ele>1730.99</ele>
        <time>2015-01-19T12:31:39Z</time>
      </trkpt>
      <trkpt lat="42.69197" lon="1.79863">
        <ele>1730.51</ele>
        <time>2015-01-19T12:31:40Z</time>
      </trkpt>
      <trkpt lat="42.69201" lon="1.79861">
        <ele>1730.03</ele>
        <time>2015-01-19T12:31:41Z</time>
      </trkpt>
      <trkpt lat="42.69205" lon="1.79858">
        <ele>1729.07</ele>
        <time>2015-01-19T12:31:42Z</time>
      </trkpt>
      <trkpt lat="42.69209" lon="1.79856">
        <ele>1728.59</ele>
        <time>2015-01-19T12:31:43Z</time>
      </trkpt>
      <trkpt lat="42.69214" lon="1.79856">
        <ele>1728.11</ele>
        <time>2015-01-19T12:31:44Z</time>
      </trkpt>
      <trkpt lat="42.69219" lon="1.79855">
        <ele>1727.15</ele>
        <time>2015-01-19T12:31:45Z</time>
      </trkpt>
      <trkpt lat="42.69223" lon="1.79853">
        <ele>1726.18</ele>
        <time>2015-01-19T12:31:46Z</time>
      </trkpt>
      <trkpt lat="42.69228" lon="1.79853">
        <ele>1725.22</ele>
        <time>2015-01-19T12:31:47Z</time>
      </trkpt>
      <trkpt lat="42.69232" lon="1.79852">
        <ele>1724.26</ele>
        <time>2015-01-19T12:31:48Z</time>
      </trkpt>
      <trkpt lat="42.69237" lon="1.7985">
        <ele>1723.78</ele>
        <time>2015-01-19T12:31:49Z</time>
      </trkpt>
      <trkpt lat="42.69242" lon="1.79848">
        <ele>1722.82</ele>
        <time>2015-01-19T12:31:50Z</time>
      </trkpt>
      <trkpt lat="42.69247" lon="1.79848">
        <ele>1721.86</ele>
        <time>2015-01-19T12:31:51Z</time>
      </trkpt>
      <trkpt lat="42.69252" lon="1.79847">
        <ele>1720.9</ele>
        <time>2015-01-19T12:31:52Z</time>
      </trkpt>
      <trkpt lat="42.69258" lon="1.79846">
        <ele>1719.94</ele>
        <time>2015-01-19T12:31:53Z</time>
      </trkpt>
      <trkpt lat="42.69262" lon="1.79844">
        <ele>1718.97</ele>
        <time>2015-01-19T12:31:54Z</time>
      </trkpt>
      <trkpt lat="42.69266" lon="1.79841">
        <ele>1718.01</ele>
        <time>2015-01-19T12:31:55Z</time>
      </trkpt>
      <trkpt lat="42.69269" lon="1.79838">
        <ele>1717.05</ele>
        <time>2015-01-19T12:31:56Z</time>
      </trkpt>
      <trkpt lat="42.69273" lon="1.79835">
        <ele>1715.61</ele>
        <time>2015-01-19T12:31:57Z</time>
      </trkpt>
      <trkpt lat="42.69292" lon="1.79814">
        <ele>1710.32</ele>
        <time>2015-01-19T12:32:02Z</time>
      </trkpt>
      <trkpt lat="42.69296" lon="1.79809">
        <ele>1709.36</ele>
        <time>2015-01-19T12:32:03Z</time>
      </trkpt>
      <trkpt lat="42.693" lon="1.79805">
        <ele>1708.88</ele>
        <time>2015-01-19T12:32:04Z</time>
      </trkpt>
      <trkpt lat="42.69304" lon="1.798">
        <ele>1707.92</ele>
        <time>2015-01-19T12:32:05Z</time>
      </trkpt>
      <trkpt lat="42.69307" lon="1.79794">
        <ele>1707.44</ele>
        <time>2015-01-19T12:32:06Z</time>
      </trkpt>
      <trkpt lat="42.69309" lon="1.79786">
        <ele>1706.96</ele>
        <time>2015-01-19T12:32:07Z</time>
      </trkpt>
      <trkpt lat="42.6931" lon="1.7978">
        <ele>1706</ele>
        <time>2015-01-19T12:32:08Z</time>
      </trkpt>
      <trkpt lat="42.6931" lon="1.79773">
        <ele>1705.52</ele>
        <time>2015-01-19T12:32:09Z</time>
      </trkpt>
      <trkpt lat="42.69311" lon="1.79767">
        <ele>1705.04</ele>
        <time>2015-01-19T12:32:10Z</time>
      </trkpt>
      <trkpt lat="42.69312" lon="1.7976">
        <ele>1704.07</ele>
        <time>2015-01-19T12:32:11Z</time>
      </trkpt>
      <trkpt lat="42.69312" lon="1.79754">
        <ele>1703.59</ele>
        <time>2015-01-19T12:32:12Z</time>
      </trkpt>
      <trkpt lat="42.69314" lon="1.79736">
        <ele>1701.67</ele>
        <time>2015-01-19T12:32:15Z</time>
      </trkpt>
      <trkpt lat="42.6932" lon="1.7972">
        <ele>1699.75</ele>
        <time>2015-01-19T12:32:18Z</time>
      </trkpt>
      <trkpt lat="42.6932" lon="1.79713">
        <ele>1699.27</ele>
        <time>2015-01-19T12:32:19Z</time>
      </trkpt>
      <trkpt lat="42.69319" lon="1.79705">
        <ele>1699.27</ele>
        <time>2015-01-19T12:32:20Z</time>
      </trkpt>
      <trkpt lat="42.69317" lon="1.79697">
        <ele>1699.27</ele>
        <time>2015-01-19T12:32:21Z</time>
      </trkpt>
      <trkpt lat="42.69315" lon="1.7969">
        <ele>1699.75</ele>
        <time>2015-01-19T12:32:22Z</time>
      </trkpt>
      <trkpt lat="42.69301" lon="1.79634">
        <ele>1700.71</ele>
        <time>2015-01-19T12:32:34Z</time>
      </trkpt>
      <trkpt lat="42.69255" lon="1.79577">
        <ele>1691.1</ele>
        <time>2015-01-19T12:32:49Z</time>
      </trkpt>
      <trkpt lat="42.6921" lon="1.79555">
        <ele>1683.41</ele>
        <time>2015-01-19T12:33:02Z</time>
      </trkpt>
      <trkpt lat="42.69172" lon="1.79537">
        <ele>1681.96</ele>
        <time>2015-01-19T12:33:12Z</time>
      </trkpt>
      <trkpt lat="42.69132" lon="1.79512">
        <ele>1681.96</ele>
        <time>2015-01-19T12:33:22Z</time>
      </trkpt>
      <trkpt lat="42.69129" lon="1.79509">
        <ele>1682.44</ele>
        <time>2015-01-19T12:33:23Z</time>
      </trkpt>
      <trkpt lat="42.69094" lon="1.79479">
        <ele>1682.44</ele>
        <time>2015-01-19T12:33:33Z</time>
      </trkpt>
      <trkpt lat="42.6909" lon="1.79477">
        <ele>1681.96</ele>
        <time>2015-01-19T12:33:34Z</time>
      </trkpt>
      <trkpt lat="42.69086" lon="1.79473">
        <ele>1681.48</ele>
        <time>2015-01-19T12:33:35Z</time>
      </trkpt>
      <trkpt lat="42.69075" lon="1.79464">
        <ele>1681</ele>
        <time>2015-01-19T12:33:38Z</time>
      </trkpt>
      <trkpt lat="42.69067" lon="1.79457">
        <ele>1680.52</ele>
        <time>2015-01-19T12:33:40Z</time>
      </trkpt>
      <trkpt lat="42.69063" lon="1.79455">
        <ele>1680.04</ele>
        <time>2015-01-19T12:33:41Z</time>
      </trkpt>
      <trkpt lat="42.69056" lon="1.79448">
        <ele>1680.04</ele>
        <time>2015-01-19T12:33:43Z</time>
      </trkpt>
      <trkpt lat="42.69053" lon="1.79445">
        <ele>1679.08</ele>
        <time>2015-01-19T12:33:44Z</time>
      </trkpt>
      <trkpt lat="42.69017" lon="1.7941">
        <ele>1675.23</ele>
        <time>2015-01-19T12:33:56Z</time>
      </trkpt>
      <trkpt lat="42.68978" lon="1.79377">
        <ele>1678.12</ele>
        <time>2015-01-19T12:34:07Z</time>
      </trkpt>
      <trkpt lat="42.68961" lon="1.79358">
        <ele>1678.12</ele>
        <time>2015-01-19T12:34:12Z</time>
      </trkpt>
      <trkpt lat="42.68957" lon="1.79354">
        <ele>1678.6</ele>
        <time>2015-01-19T12:34:13Z</time>
      </trkpt>
      <trkpt lat="42.68926" lon="1.79328">
        <ele>1677.16</ele>
        <time>2015-01-19T12:34:21Z</time>
      </trkpt>
      <trkpt lat="42.68897" lon="1.79314">
        <ele>1676.2</ele>
        <time>2015-01-19T12:34:27Z</time>
      </trkpt>
      <trkpt lat="42.68892" lon="1.79311">
        <ele>1675.72</ele>
        <time>2015-01-19T12:34:28Z</time>
      </trkpt>
      <trkpt lat="42.68877" lon="1.79305">
        <ele>1674.75</ele>
        <time>2015-01-19T12:34:31Z</time>
      </trkpt>
      <trkpt lat="42.68854" lon="1.79298">
        <ele>1674.27</ele>
        <time>2015-01-19T12:34:36Z</time>
      </trkpt>
      <trkpt lat="42.6885" lon="1.79296">
        <ele>1674.27</ele>
        <time>2015-01-19T12:34:37Z</time>
      </trkpt>
      <trkpt lat="42.68836" lon="1.79288">
        <ele>1674.27</ele>
        <time>2015-01-19T12:34:46Z</time>
      </trkpt>
      <trkpt lat="42.68836" lon="1.79288">
        <ele>1673.79</ele>
        <time>2015-01-19T12:35:05Z</time>
      </trkpt>
      <trkpt lat="42.68837" lon="1.79289">
        <ele>1676.2</ele>
        <time>2015-01-19T12:35:25Z</time>
      </trkpt>
      <trkpt lat="42.68836" lon="1.7929">
        <ele>1679.08</ele>
        <time>2015-01-19T12:35:53Z</time>
      </trkpt>
      <trkpt lat="42.68837" lon="1.79288">
        <ele>1682.44</ele>
        <time>2015-01-19T12:36:30Z</time>
      </trkpt>
      <trkpt lat="42.68839" lon="1.7929">
        <ele>1679.56</ele>
        <time>2015-01-19T12:37:00Z</time>
      </trkpt>
      <trkpt lat="42.68838" lon="1.79288">
        <ele>1677.64</ele>
        <time>2015-01-19T12:37:34Z</time>
      </trkpt>
      <trkpt lat="42.68837" lon="1.79288">
        <ele>1678.12</ele>
        <time>2015-01-19T12:37:57Z</time>
      </trkpt>
      <trkpt lat="42.68836" lon="1.79287">
        <ele>1679.08</ele>
        <time>2015-01-19T12:38:12Z</time>
      </trkpt>
      <trkpt lat="42.68833" lon="1.79292">
        <ele>1678.12</ele>
        <time>2015-01-19T12:38:25Z</time>
      </trkpt>
      <trkpt lat="42.68833" lon="1.79294">
        <ele>1676.2</ele>
        <time>2015-01-19T12:38:39Z</time>
      </trkpt>
      <trkpt lat="42.68833" lon="1.79296">
        <ele>1675.72</ele>
        <time>2015-01-19T12:38:58Z</time>
      </trkpt>
      <trkpt lat="42.68832" lon="1.79296">
        <ele>1677.64</ele>
        <time>2015-01-19T12:39:19Z</time>
      </trkpt>
      <trkpt lat="42.68831" lon="1.79301">
        <ele>1677.64</ele>
        <time>2015-01-19T12:39:39Z</time>
      </trkpt>
      <trkpt lat="42.68833" lon="1.79298">
        <ele>1678.12</ele>
        <time>2015-01-19T12:39:53Z</time>
      </trkpt>
      <trkpt lat="42.68834" lon="1.79297">
        <ele>1677.16</ele>
        <time>2015-01-19T12:40:08Z</time>
      </trkpt>
      <trkpt lat="42.68834" lon="1.79298">
        <ele>1674.27</ele>
        <time>2015-01-19T12:40:22Z</time>
      </trkpt>
      <trkpt lat="42.68837" lon="1.79293">
        <ele>1671.39</ele>
        <time>2015-01-19T12:40:46Z</time>
      </trkpt>
      <trkpt lat="42.68837" lon="1.79292">
        <ele>1671.39</ele>
        <time>2015-01-19T12:41:08Z</time>
      </trkpt>
      <trkpt lat="42.68836" lon="1.79291">
        <ele>1671.39</ele>
        <time>2015-01-19T12:41:27Z</time>
      </trkpt>
      <trkpt lat="42.68835" lon="1.79292">
        <ele>1672.83</ele>
        <time>2015-01-19T12:41:42Z</time>
      </trkpt>
      <trkpt lat="42.68835" lon="1.79288">
        <ele>1674.27</ele>
        <time>2015-01-19T12:42:04Z</time>
      </trkpt>
      <trkpt lat="42.68832" lon="1.79286">
        <ele>1674.75</ele>
        <time>2015-01-19T12:42:20Z</time>
      </trkpt>
      <trkpt lat="42.68833" lon="1.79288">
        <ele>1675.72</ele>
        <time>2015-01-19T12:42:36Z</time>
      </trkpt>
      <trkpt lat="42.68833" lon="1.7929">
        <ele>1675.23</ele>
        <time>2015-01-19T12:42:52Z</time>
      </trkpt>
      <trkpt lat="42.68834" lon="1.79293">
        <ele>1674.75</ele>
        <time>2015-01-19T12:43:10Z</time>
      </trkpt>
      <trkpt lat="42.68834" lon="1.79295">
        <ele>1674.75</ele>
        <time>2015-01-19T12:43:27Z</time>
      </trkpt>
      <trkpt lat="42.68835" lon="1.79295">
        <ele>1677.64</ele>
        <time>2015-01-19T12:43:47Z</time>
      </trkpt>
      <trkpt lat="42.68834" lon="1.79294">
        <ele>1680.04</ele>
        <time>2015-01-19T12:44:05Z</time>
      </trkpt>
      <trkpt lat="42.68832" lon="1.79297">
        <ele>1680.52</ele>
        <time>2015-01-19T12:44:29Z</time>
      </trkpt>
      <trkpt lat="42.68831" lon="1.79291">
        <ele>1681.96</ele>
        <time>2015-01-19T12:44:49Z</time>
      </trkpt>
      <trkpt lat="42.68832" lon="1.79289">
        <ele>1680.52</ele>
        <time>2015-01-19T12:45:12Z</time>
      </trkpt>
      <trkpt lat="42.68833" lon="1.79292">
        <ele>1678.12</ele>
        <time>2015-01-19T12:45:35Z</time>
      </trkpt>
      <trkpt lat="42.68832" lon="1.79295">
        <ele>1678.6</ele>
        <time>2015-01-19T12:45:50Z</time>
      </trkpt>
      <trkpt lat="42.68834" lon="1.79294">
        <ele>1678.12</ele>
        <time>2015-01-19T12:46:14Z</time>
      </trkpt>
      <trkpt lat="42.68832" lon="1.79294">
        <ele>1679.08</ele>
        <time>2015-01-19T12:46:30Z</time>
      </trkpt>
      <trkpt lat="42.68831" lon="1.79295">
        <ele>1678.6</ele>
        <time>2015-01-19T12:46:42Z</time>
      </trkpt>
      <trkpt lat="42.68832" lon="1.79291">
        <ele>1676.68</ele>
        <time>2015-01-19T12:46:57Z</time>
      </trkpt>
      <trkpt lat="42.68833" lon="1.79291">
        <ele>1676.2</ele>
        <time>2015-01-19T12:47:12Z</time>
      </trkpt>
      <trkpt lat="42.68831" lon="1.79291">
        <ele>1675.72</ele>
        <time>2015-01-19T12:47:19Z</time>
      </trkpt>
      <trkpt lat="42.6883" lon="1.79291">
        <ele>1675.72</ele>
        <time>2015-01-19T12:47:20Z</time>
      </trkpt>
      <trkpt lat="42.68816" lon="1.79292">
        <ele>1675.72</ele>
        <time>2015-01-19T12:47:33Z</time>
      </trkpt>
      <trkpt lat="42.68804" lon="1.79292">
        <ele>1676.2</ele>
        <time>2015-01-19T12:47:45Z</time>
      </trkpt>
      <trkpt lat="42.68794" lon="1.79293">
        <ele>1674.75</ele>
        <time>2015-01-19T12:47:59Z</time>
      </trkpt>
      <trkpt lat="42.68784" lon="1.7929">
        <ele>1675.23</ele>
        <time>2015-01-19T12:48:11Z</time>
      </trkpt>
      <trkpt lat="42.68771" lon="1.79292">
        <ele>1677.64</ele>
        <time>2015-01-19T12:48:23Z</time>
      </trkpt>
      <trkpt lat="42.6876" lon="1.79293">
        <ele>1679.56</ele>
        <time>2015-01-19T12:48:35Z</time>
      </trkpt>
      <trkpt lat="42.68747" lon="1.79298">
        <ele>1681.96</ele>
        <time>2015-01-19T12:48:47Z</time>
      </trkpt>
      <trkpt lat="42.68736" lon="1.79303">
        <ele>1684.85</ele>
        <time>2015-01-19T12:48:58Z</time>
      </trkpt>
      <trkpt lat="42.68734" lon="1.79305">
        <ele>1685.33</ele>
        <time>2015-01-19T12:49:00Z</time>
      </trkpt>
      <trkpt lat="42.6872" lon="1.79315">
        <ele>1688.21</ele>
        <time>2015-01-19T12:49:15Z</time>
      </trkpt>
      <trkpt lat="42.6871" lon="1.79323">
        <ele>1688.21</ele>
        <time>2015-01-19T12:49:26Z</time>
      </trkpt>
      <trkpt lat="42.68698" lon="1.79334">
        <ele>1689.65</ele>
        <time>2015-01-19T12:49:41Z</time>
      </trkpt>
      <trkpt lat="42.68688" lon="1.79347">
        <ele>1693.02</ele>
        <time>2015-01-19T12:49:56Z</time>
      </trkpt>
      <trkpt lat="42.6868" lon="1.79356">
        <ele>1693.98</ele>
        <time>2015-01-19T12:50:08Z</time>
      </trkpt>
      <trkpt lat="42.68671" lon="1.79364">
        <ele>1694.46</ele>
        <time>2015-01-19T12:50:19Z</time>
      </trkpt>
      <trkpt lat="42.68664" lon="1.79374">
        <ele>1696.86</ele>
        <time>2015-01-19T12:50:31Z</time>
      </trkpt>
      <trkpt lat="42.68662" lon="1.79376">
        <ele>1697.83</ele>
        <time>2015-01-19T12:50:34Z</time>
      </trkpt>
      <trkpt lat="42.68654" lon="1.79386">
        <ele>1699.27</ele>
        <time>2015-01-19T12:50:45Z</time>
      </trkpt>
      <trkpt lat="42.68645" lon="1.79399">
        <ele>1700.71</ele>
        <time>2015-01-19T12:50:59Z</time>
      </trkpt>
      <trkpt lat="42.68635" lon="1.79408">
        <ele>1701.67</ele>
        <time>2015-01-19T12:51:12Z</time>
      </trkpt>
      <trkpt lat="42.68625" lon="1.79422">
        <ele>1703.59</ele>
        <time>2015-01-19T12:51:27Z</time>
      </trkpt>
      <trkpt lat="42.68617" lon="1.79436">
        <ele>1703.11</ele>
        <time>2015-01-19T12:51:41Z</time>
      </trkpt>
      <trkpt lat="42.68608" lon="1.79452">
        <ele>1703.11</ele>
        <time>2015-01-19T12:51:56Z</time>
      </trkpt>
      <trkpt lat="42.68606" lon="1.79453">
        <ele>1703.59</ele>
        <time>2015-01-19T12:51:58Z</time>
      </trkpt>
      <trkpt lat="42.68596" lon="1.79465">
        <ele>1708.88</ele>
        <time>2015-01-19T12:52:12Z</time>
      </trkpt>
      <trkpt lat="42.68589" lon="1.79475">
        <ele>1711.28</ele>
        <time>2015-01-19T12:52:24Z</time>
      </trkpt>
      <trkpt lat="42.68582" lon="1.79487">
        <ele>1714.17</ele>
        <time>2015-01-19T12:52:38Z</time>
      </trkpt>
      <trkpt lat="42.6858" lon="1.79491">
        <ele>1714.65</ele>
        <time>2015-01-19T12:52:53Z</time>
      </trkpt>
      <trkpt lat="42.68578" lon="1.79491">
        <ele>1717.53</ele>
        <time>2015-01-19T12:53:19Z</time>
      </trkpt>
      <trkpt lat="42.68578" lon="1.79486">
        <ele>1720.42</ele>
        <time>2015-01-19T12:53:46Z</time>
      </trkpt>
      <trkpt lat="42.6858" lon="1.79489">
        <ele>1714.65</ele>
        <time>2015-01-19T12:54:16Z</time>
      </trkpt>
      <trkpt lat="42.68572" lon="1.79494">
        <ele>1717.05</ele>
        <time>2015-01-19T12:54:27Z</time>
      </trkpt>
      <trkpt lat="42.68555" lon="1.79498">
        <ele>1718.97</ele>
        <time>2015-01-19T12:54:40Z</time>
      </trkpt>
      <trkpt lat="42.68553" lon="1.79498">
        <ele>1718.49</ele>
        <time>2015-01-19T12:54:41Z</time>
      </trkpt>
      <trkpt lat="42.68551" lon="1.79498">
        <ele>1718.49</ele>
        <time>2015-01-19T12:54:42Z</time>
      </trkpt>
      <trkpt lat="42.6855" lon="1.79499">
        <ele>1718.49</ele>
        <time>2015-01-19T12:54:43Z</time>
      </trkpt>
      <trkpt lat="42.68549" lon="1.79499">
        <ele>1718.01</ele>
        <time>2015-01-19T12:54:44Z</time>
      </trkpt>
      <trkpt lat="42.68548" lon="1.79499">
        <ele>1718.01</ele>
        <time>2015-01-19T12:54:45Z</time>
      </trkpt>
      <trkpt lat="42.68546" lon="1.79499">
        <ele>1718.01</ele>
        <time>2015-01-19T12:54:46Z</time>
      </trkpt>
      <trkpt lat="42.68545" lon="1.79499">
        <ele>1717.53</ele>
        <time>2015-01-19T12:54:47Z</time>
      </trkpt>
      <trkpt lat="42.68543" lon="1.79499">
        <ele>1717.05</ele>
        <time>2015-01-19T12:54:48Z</time>
      </trkpt>
      <trkpt lat="42.68541" lon="1.79499">
        <ele>1716.57</ele>
        <time>2015-01-19T12:54:50Z</time>
      </trkpt>
      <trkpt lat="42.68536" lon="1.795">
        <ele>1716.09</ele>
        <time>2015-01-19T12:54:54Z</time>
      </trkpt>
      <trkpt lat="42.68534" lon="1.795">
        <ele>1716.57</ele>
        <time>2015-01-19T12:54:55Z</time>
      </trkpt>
      <trkpt lat="42.68533" lon="1.795">
        <ele>1716.57</ele>
        <time>2015-01-19T12:54:56Z</time>
      </trkpt>
      <trkpt lat="42.68532" lon="1.795">
        <ele>1716.57</ele>
        <time>2015-01-19T12:54:57Z</time>
      </trkpt>
      <trkpt lat="42.68517" lon="1.795">
        <ele>1716.57</ele>
        <time>2015-01-19T12:55:09Z</time>
      </trkpt>
      <trkpt lat="42.6851" lon="1.79498">
        <ele>1717.05</ele>
        <time>2015-01-19T12:55:14Z</time>
      </trkpt>
      <trkpt lat="42.68509" lon="1.79498">
        <ele>1717.05</ele>
        <time>2015-01-19T12:55:15Z</time>
      </trkpt>
      <trkpt lat="42.68507" lon="1.79497">
        <ele>1717.05</ele>
        <time>2015-01-19T12:55:16Z</time>
      </trkpt>
      <trkpt lat="42.68506" lon="1.79496">
        <ele>1717.05</ele>
        <time>2015-01-19T12:55:17Z</time>
      </trkpt>
      <trkpt lat="42.68504" lon="1.79494">
        <ele>1717.05</ele>
        <time>2015-01-19T12:55:19Z</time>
      </trkpt>
      <trkpt lat="42.68502" lon="1.79493">
        <ele>1717.05</ele>
        <time>2015-01-19T12:55:20Z</time>
      </trkpt>
      <trkpt lat="42.68501" lon="1.79493">
        <ele>1717.05</ele>
        <time>2015-01-19T12:55:21Z</time>
      </trkpt>
      <trkpt lat="42.68499" lon="1.79493">
        <ele>1717.53</ele>
        <time>2015-01-19T12:55:22Z</time>
      </trkpt>
      <trkpt lat="42.68498" lon="1.79492">
        <ele>1717.53</ele>
        <time>2015-01-19T12:55:23Z</time>
      </trkpt>
      <trkpt lat="42.68497" lon="1.79491">
        <ele>1717.53</ele>
        <time>2015-01-19T12:55:24Z</time>
      </trkpt>
      <trkpt lat="42.68486" lon="1.79473">
        <ele>1718.01</ele>
        <time>2015-01-19T12:55:36Z</time>
      </trkpt>
      <trkpt lat="42.68482" lon="1.79447">
        <ele>1716.09</ele>
        <time>2015-01-19T12:55:50Z</time>
      </trkpt>
      <trkpt lat="42.68479" lon="1.79425">
        <ele>1716.57</ele>
        <time>2015-01-19T12:56:01Z</time>
      </trkpt>
      <trkpt lat="42.68473" lon="1.79404">
        <ele>1715.13</ele>
        <time>2015-01-19T12:56:13Z</time>
      </trkpt>
      <trkpt lat="42.68469" lon="1.79388">
        <ele>1713.21</ele>
        <time>2015-01-19T12:56:22Z</time>
      </trkpt>
      <trkpt lat="42.68469" lon="1.79386">
        <ele>1713.69</ele>
        <time>2015-01-19T12:56:23Z</time>
      </trkpt>
      <trkpt lat="42.68465" lon="1.79376">
        <ele>1712.73</ele>
        <time>2015-01-19T12:56:29Z</time>
      </trkpt>
      <trkpt lat="42.68464" lon="1.79375">
        <ele>1712.73</ele>
        <time>2015-01-19T12:56:30Z</time>
      </trkpt>
      <trkpt lat="42.68464" lon="1.79374">
        <ele>1712.73</ele>
        <time>2015-01-19T12:56:31Z</time>
      </trkpt>
      <trkpt lat="42.68463" lon="1.79372">
        <ele>1712.73</ele>
        <time>2015-01-19T12:56:32Z</time>
      </trkpt>
      <trkpt lat="42.68463" lon="1.79371">
        <ele>1713.21</ele>
        <time>2015-01-19T12:56:33Z</time>
      </trkpt>
      <trkpt lat="42.68461" lon="1.79366">
        <ele>1713.21</ele>
        <time>2015-01-19T12:56:36Z</time>
      </trkpt>
      <trkpt lat="42.68461" lon="1.79364">
        <ele>1713.69</ele>
        <time>2015-01-19T12:56:37Z</time>
      </trkpt>
      <trkpt lat="42.68453" lon="1.79339">
        <ele>1716.09</ele>
        <time>2015-01-19T12:56:52Z</time>
      </trkpt>
      <trkpt lat="42.68451" lon="1.79335">
        <ele>1716.57</ele>
        <time>2015-01-19T12:56:55Z</time>
      </trkpt>
      <trkpt lat="42.68445" lon="1.79317">
        <ele>1715.61</ele>
        <time>2015-01-19T12:57:07Z</time>
      </trkpt>
      <trkpt lat="42.68444" lon="1.79315">
        <ele>1715.13</ele>
        <time>2015-01-19T12:57:09Z</time>
      </trkpt>
      <trkpt lat="42.68443" lon="1.79313">
        <ele>1714.65</ele>
        <time>2015-01-19T12:57:10Z</time>
      </trkpt>
      <trkpt lat="42.68442" lon="1.79312">
        <ele>1714.65</ele>
        <time>2015-01-19T12:57:11Z</time>
      </trkpt>
      <trkpt lat="42.68442" lon="1.79311">
        <ele>1714.65</ele>
        <time>2015-01-19T12:57:12Z</time>
      </trkpt>
      <trkpt lat="42.68432" lon="1.79292">
        <ele>1713.21</ele>
        <time>2015-01-19T12:57:26Z</time>
      </trkpt>
      <trkpt lat="42.68431" lon="1.79291">
        <ele>1712.73</ele>
        <time>2015-01-19T12:57:27Z</time>
      </trkpt>
      <trkpt lat="42.6842" lon="1.79274">
        <ele>1711.28</ele>
        <time>2015-01-19T12:57:38Z</time>
      </trkpt>
      <trkpt lat="42.68411" lon="1.7926">
        <ele>1710.8</ele>
        <time>2015-01-19T12:57:49Z</time>
      </trkpt>
      <trkpt lat="42.6841" lon="1.79259">
        <ele>1710.8</ele>
        <time>2015-01-19T12:57:50Z</time>
      </trkpt>
      <trkpt lat="42.68409" lon="1.79258">
        <ele>1710.8</ele>
        <time>2015-01-19T12:57:51Z</time>
      </trkpt>
      <trkpt lat="42.68408" lon="1.79257">
        <ele>1710.8</ele>
        <time>2015-01-19T12:57:52Z</time>
      </trkpt>
      <trkpt lat="42.68407" lon="1.79255">
        <ele>1710.8</ele>
        <time>2015-01-19T12:57:53Z</time>
      </trkpt>
      <trkpt lat="42.68406" lon="1.79254">
        <ele>1710.8</ele>
        <time>2015-01-19T12:57:54Z</time>
      </trkpt>
      <trkpt lat="42.68395" lon="1.79234">
        <ele>1709.84</ele>
        <time>2015-01-19T12:58:07Z</time>
      </trkpt>
      <trkpt lat="42.68385" lon="1.79214">
        <ele>1710.8</ele>
        <time>2015-01-19T12:58:22Z</time>
      </trkpt>
      <trkpt lat="42.68384" lon="1.79212">
        <ele>1710.8</ele>
        <time>2015-01-19T12:58:23Z</time>
      </trkpt>
      <trkpt lat="42.68383" lon="1.79211">
        <ele>1710.8</ele>
        <time>2015-01-19T12:58:24Z</time>
      </trkpt>
      <trkpt lat="42.68381" lon="1.79206">
        <ele>1711.76</ele>
        <time>2015-01-19T12:58:27Z</time>
      </trkpt>
      <trkpt lat="42.6838" lon="1.79204">
        <ele>1711.76</ele>
        <time>2015-01-19T12:58:28Z</time>
      </trkpt>
      <trkpt lat="42.6838" lon="1.79203">
        <ele>1712.25</ele>
        <time>2015-01-19T12:58:29Z</time>
      </trkpt>
      <trkpt lat="42.68375" lon="1.79192">
        <ele>1714.65</ele>
        <time>2015-01-19T12:58:37Z</time>
      </trkpt>
      <trkpt lat="42.6837" lon="1.79186">
        <ele>1715.61</ele>
        <time>2015-01-19T12:58:42Z</time>
      </trkpt>
      <trkpt lat="42.68369" lon="1.79183">
        <ele>1716.09</ele>
        <time>2015-01-19T12:58:44Z</time>
      </trkpt>
      <trkpt lat="42.68368" lon="1.79181">
        <ele>1716.57</ele>
        <time>2015-01-19T12:58:45Z</time>
      </trkpt>
      <trkpt lat="42.68367" lon="1.7918">
        <ele>1716.57</ele>
        <time>2015-01-19T12:58:46Z</time>
      </trkpt>
      <trkpt lat="42.68357" lon="1.79164">
        <ele>1716.57</ele>
        <time>2015-01-19T12:58:58Z</time>
      </trkpt>
      <trkpt lat="42.68356" lon="1.79159">
        <ele>1716.57</ele>
        <time>2015-01-19T12:59:01Z</time>
      </trkpt>
      <trkpt lat="42.68345" lon="1.79146">
        <ele>1718.01</ele>
        <time>2015-01-19T12:59:13Z</time>
      </trkpt>
      <trkpt lat="42.68333" lon="1.79141">
        <ele>1717.05</ele>
        <time>2015-01-19T12:59:27Z</time>
      </trkpt>
      <trkpt lat="42.68326" lon="1.79136">
        <ele>1718.97</ele>
        <time>2015-01-19T12:59:39Z</time>
      </trkpt>
      <trkpt lat="42.68321" lon="1.79135">
        <ele>1722.82</ele>
        <time>2015-01-19T12:59:54Z</time>
      </trkpt>
      <trkpt lat="42.68314" lon="1.7913">
        <ele>1725.7</ele>
        <time>2015-01-19T13:00:05Z</time>
      </trkpt>
      <trkpt lat="42.68306" lon="1.79125">
        <ele>1728.59</ele>
        <time>2015-01-19T13:00:18Z</time>
      </trkpt>
      <trkpt lat="42.68298" lon="1.7912">
        <ele>1730.51</ele>
        <time>2015-01-19T13:00:31Z</time>
      </trkpt>
      <trkpt lat="42.68291" lon="1.79115">
        <ele>1730.51</ele>
        <time>2015-01-19T13:00:42Z</time>
      </trkpt>
      <trkpt lat="42.68286" lon="1.7911">
        <ele>1734.36</ele>
        <time>2015-01-19T13:00:55Z</time>
      </trkpt>
      <trkpt lat="42.68276" lon="1.79104">
        <ele>1739.64</ele>
        <time>2015-01-19T13:01:11Z</time>
      </trkpt>
      <trkpt lat="42.68272" lon="1.79097">
        <ele>1742.53</ele>
        <time>2015-01-19T13:01:25Z</time>
      </trkpt>
      <trkpt lat="42.68268" lon="1.79094">
        <ele>1743.97</ele>
        <time>2015-01-19T13:01:40Z</time>
      </trkpt>
      <trkpt lat="42.6826" lon="1.79088">
        <ele>1748.29</ele>
        <time>2015-01-19T13:01:55Z</time>
      </trkpt>
      <trkpt lat="42.68254" lon="1.79083">
        <ele>1749.74</ele>
        <time>2015-01-19T13:02:06Z</time>
      </trkpt>
      <trkpt lat="42.68247" lon="1.79079">
        <ele>1750.22</ele>
        <time>2015-01-19T13:02:20Z</time>
      </trkpt>
      <trkpt lat="42.68242" lon="1.79071">
        <ele>1752.62</ele>
        <time>2015-01-19T13:02:33Z</time>
      </trkpt>
      <trkpt lat="42.68234" lon="1.79063">
        <ele>1754.54</ele>
        <time>2015-01-19T13:02:46Z</time>
      </trkpt>
      <trkpt lat="42.68226" lon="1.79055">
        <ele>1756.95</ele>
        <time>2015-01-19T13:03:00Z</time>
      </trkpt>
      <trkpt lat="42.68217" lon="1.7905">
        <ele>1761.27</ele>
        <time>2015-01-19T13:03:15Z</time>
      </trkpt>
      <trkpt lat="42.68212" lon="1.79047">
        <ele>1761.27</ele>
        <time>2015-01-19T13:03:27Z</time>
      </trkpt>
      <trkpt lat="42.68201" lon="1.79043">
        <ele>1760.31</ele>
        <time>2015-01-19T13:03:43Z</time>
      </trkpt>
      <trkpt lat="42.68193" lon="1.79043">
        <ele>1760.79</ele>
        <time>2015-01-19T13:03:57Z</time>
      </trkpt>
      <trkpt lat="42.68184" lon="1.79044">
        <ele>1762.23</ele>
        <time>2015-01-19T13:04:12Z</time>
      </trkpt>
      <trkpt lat="42.68175" lon="1.79043">
        <ele>1764.16</ele>
        <time>2015-01-19T13:04:25Z</time>
      </trkpt>
      <trkpt lat="42.68162" lon="1.79044">
        <ele>1764.16</ele>
        <time>2015-01-19T13:04:41Z</time>
      </trkpt>
      <trkpt lat="42.68151" lon="1.79045">
        <ele>1765.12</ele>
        <time>2015-01-19T13:04:58Z</time>
      </trkpt>
      <trkpt lat="42.68141" lon="1.79044">
        <ele>1768.48</ele>
        <time>2015-01-19T13:05:12Z</time>
      </trkpt>
      <trkpt lat="42.68132" lon="1.79043">
        <ele>1768.48</ele>
        <time>2015-01-19T13:05:25Z</time>
      </trkpt>
      <trkpt lat="42.68118" lon="1.79038">
        <ele>1769.92</ele>
        <time>2015-01-19T13:05:40Z</time>
      </trkpt>
      <trkpt lat="42.68113" lon="1.79036">
        <ele>1769.92</ele>
        <time>2015-01-19T13:05:46Z</time>
      </trkpt>
      <trkpt lat="42.68104" lon="1.79032">
        <ele>1769.92</ele>
        <time>2015-01-19T13:05:57Z</time>
      </trkpt>
      <trkpt lat="42.68101" lon="1.79031">
        <ele>1770.41</ele>
        <time>2015-01-19T13:06:00Z</time>
      </trkpt>
      <trkpt lat="42.68095" lon="1.79027">
        <ele>1770.41</ele>
        <time>2015-01-19T13:06:08Z</time>
      </trkpt>
      <trkpt lat="42.68085" lon="1.79022">
        <ele>1771.85</ele>
        <time>2015-01-19T13:06:17Z</time>
      </trkpt>
      <trkpt lat="42.68071" lon="1.79017">
        <ele>1771.85</ele>
        <time>2015-01-19T13:06:31Z</time>
      </trkpt>
      <trkpt lat="42.68059" lon="1.79013">
        <ele>1772.81</ele>
        <time>2015-01-19T13:06:43Z</time>
      </trkpt>
      <trkpt lat="42.68052" lon="1.7901">
        <ele>1774.73</ele>
        <time>2015-01-19T13:06:58Z</time>
      </trkpt>
      <trkpt lat="42.68043" lon="1.79009">
        <ele>1775.21</ele>
        <time>2015-01-19T13:07:12Z</time>
      </trkpt>
      <trkpt lat="42.68035" lon="1.79009">
        <ele>1780.5</ele>
        <time>2015-01-19T13:07:28Z</time>
      </trkpt>
      <trkpt lat="42.68028" lon="1.79011">
        <ele>1782.42</ele>
        <time>2015-01-19T13:07:42Z</time>
      </trkpt>
      <trkpt lat="42.68018" lon="1.79012">
        <ele>1786.75</ele>
        <time>2015-01-19T13:07:57Z</time>
      </trkpt>
      <trkpt lat="42.68012" lon="1.79013">
        <ele>1788.67</ele>
        <time>2015-01-19T13:08:10Z</time>
      </trkpt>
      <trkpt lat="42.68004" lon="1.79016">
        <ele>1792.52</ele>
        <time>2015-01-19T13:08:25Z</time>
      </trkpt>
      <trkpt lat="42.67997" lon="1.79023">
        <ele>1797.8</ele>
        <time>2015-01-19T13:08:40Z</time>
      </trkpt>
      <trkpt lat="42.67993" lon="1.79028">
        <ele>1800.21</ele>
        <time>2015-01-19T13:08:58Z</time>
      </trkpt>
      <trkpt lat="42.67988" lon="1.79034">
        <ele>1799.73</ele>
        <time>2015-01-19T13:09:13Z</time>
      </trkpt>
      <trkpt lat="42.67979" lon="1.79037">
        <ele>1802.13</ele>
        <time>2015-01-19T13:09:29Z</time>
      </trkpt>
      <trkpt lat="42.67974" lon="1.79042">
        <ele>1805.01</ele>
        <time>2015-01-19T13:09:45Z</time>
      </trkpt>
      <trkpt lat="42.67966" lon="1.79045">
        <ele>1808.38</ele>
        <time>2015-01-19T13:10:00Z</time>
      </trkpt>
      <trkpt lat="42.6796" lon="1.79046">
        <ele>1812.22</ele>
        <time>2015-01-19T13:10:12Z</time>
      </trkpt>
      <trkpt lat="42.6795" lon="1.79044">
        <ele>1815.11</ele>
        <time>2015-01-19T13:10:27Z</time>
      </trkpt>
      <trkpt lat="42.67941" lon="1.79043">
        <ele>1814.15</ele>
        <time>2015-01-19T13:10:42Z</time>
      </trkpt>
      <trkpt lat="42.67928" lon="1.79043">
        <ele>1815.59</ele>
        <time>2015-01-19T13:10:58Z</time>
      </trkpt>
      <trkpt lat="42.67919" lon="1.79042">
        <ele>1817.03</ele>
        <time>2015-01-19T13:11:10Z</time>
      </trkpt>
      <trkpt lat="42.67911" lon="1.79044">
        <ele>1817.99</ele>
        <time>2015-01-19T13:11:22Z</time>
      </trkpt>
      <trkpt lat="42.67902" lon="1.79049">
        <ele>1820.39</ele>
        <time>2015-01-19T13:11:36Z</time>
      </trkpt>
      <trkpt lat="42.67891" lon="1.79049">
        <ele>1821.35</ele>
        <time>2015-01-19T13:11:50Z</time>
      </trkpt>
      <trkpt lat="42.67881" lon="1.79048">
        <ele>1823.76</ele>
        <time>2015-01-19T13:12:04Z</time>
      </trkpt>
      <trkpt lat="42.67872" lon="1.79052">
        <ele>1826.64</ele>
        <time>2015-01-19T13:12:19Z</time>
      </trkpt>
      <trkpt lat="42.67864" lon="1.79054">
        <ele>1828.08</ele>
        <time>2015-01-19T13:12:31Z</time>
      </trkpt>
      <trkpt lat="42.67856" lon="1.79056">
        <ele>1830.49</ele>
        <time>2015-01-19T13:12:44Z</time>
      </trkpt>
      <trkpt lat="42.67847" lon="1.79059">
        <ele>1836.74</ele>
        <time>2015-01-19T13:12:58Z</time>
      </trkpt>
      <trkpt lat="42.67838" lon="1.7906">
        <ele>1839.62</ele>
        <time>2015-01-19T13:13:11Z</time>
      </trkpt>
      <trkpt lat="42.6783" lon="1.79063">
        <ele>1840.1</ele>
        <time>2015-01-19T13:13:24Z</time>
      </trkpt>
      <trkpt lat="42.67822" lon="1.79063">
        <ele>1840.58</ele>
        <time>2015-01-19T13:13:38Z</time>
      </trkpt>
      <trkpt lat="42.67814" lon="1.79067">
        <ele>1842.98</ele>
        <time>2015-01-19T13:13:52Z</time>
      </trkpt>
      <trkpt lat="42.67804" lon="1.79073">
        <ele>1843.95</ele>
        <time>2015-01-19T13:14:08Z</time>
      </trkpt>
      <trkpt lat="42.67798" lon="1.79076">
        <ele>1844.91</ele>
        <time>2015-01-19T13:14:15Z</time>
      </trkpt>
      <trkpt lat="42.67796" lon="1.79076">
        <ele>1845.39</ele>
        <time>2015-01-19T13:14:19Z</time>
      </trkpt>
      <trkpt lat="42.67783" lon="1.79078">
        <ele>1847.79</ele>
        <time>2015-01-19T13:14:33Z</time>
      </trkpt>
      <trkpt lat="42.67774" lon="1.79081">
        <ele>1847.31</ele>
        <time>2015-01-19T13:14:45Z</time>
      </trkpt>
      <trkpt lat="42.67766" lon="1.79087">
        <ele>1847.31</ele>
        <time>2015-01-19T13:14:57Z</time>
      </trkpt>
      <trkpt lat="42.67768" lon="1.79093">
        <ele>1851.64</ele>
        <time>2015-01-19T13:15:12Z</time>
      </trkpt>
      <trkpt lat="42.67776" lon="1.79095">
        <ele>1857.89</ele>
        <time>2015-01-19T13:15:26Z</time>
      </trkpt>
      <trkpt lat="42.67784" lon="1.791">
        <ele>1859.33</ele>
        <time>2015-01-19T13:15:40Z</time>
      </trkpt>
      <trkpt lat="42.67794" lon="1.79104">
        <ele>1860.29</ele>
        <time>2015-01-19T13:15:55Z</time>
      </trkpt>
      <trkpt lat="42.67801" lon="1.79109">
        <ele>1860.77</ele>
        <time>2015-01-19T13:16:08Z</time>
      </trkpt>
      <trkpt lat="42.6781" lon="1.79116">
        <ele>1862.21</ele>
        <time>2015-01-19T13:16:21Z</time>
      </trkpt>
      <trkpt lat="42.67818" lon="1.79123">
        <ele>1864.61</ele>
        <time>2015-01-19T13:16:36Z</time>
      </trkpt>
      <trkpt lat="42.67828" lon="1.79129">
        <ele>1866.06</ele>
        <time>2015-01-19T13:16:50Z</time>
      </trkpt>
      <trkpt lat="42.67838" lon="1.79136">
        <ele>1865.58</ele>
        <time>2015-01-19T13:17:03Z</time>
      </trkpt>
      <trkpt lat="42.67847" lon="1.79142">
        <ele>1867.02</ele>
        <time>2015-01-19T13:17:17Z</time>
      </trkpt>
      <trkpt lat="42.67856" lon="1.79149">
        <ele>1870.86</ele>
        <time>2015-01-19T13:17:32Z</time>
      </trkpt>
      <trkpt lat="42.6786" lon="1.79159">
        <ele>1872.3</ele>
        <time>2015-01-19T13:17:46Z</time>
      </trkpt>
      <trkpt lat="42.67865" lon="1.79164">
        <ele>1874.23</ele>
        <time>2015-01-19T13:18:01Z</time>
      </trkpt>
      <trkpt lat="42.67876" lon="1.79175">
        <ele>1876.63</ele>
        <time>2015-01-19T13:18:17Z</time>
      </trkpt>
      <trkpt lat="42.67887" lon="1.79181">
        <ele>1879.03</ele>
        <time>2015-01-19T13:18:34Z</time>
      </trkpt>
      <trkpt lat="42.67897" lon="1.79189">
        <ele>1879.51</ele>
        <time>2015-01-19T13:18:49Z</time>
      </trkpt>
      <trkpt lat="42.67904" lon="1.79192">
        <ele>1878.07</ele>
        <time>2015-01-19T13:19:02Z</time>
      </trkpt>
      <trkpt lat="42.67905" lon="1.79194">
        <ele>1879.51</ele>
        <time>2015-01-19T13:19:18Z</time>
      </trkpt>
      <trkpt lat="42.67908" lon="1.79194">
        <ele>1878.07</ele>
        <time>2015-01-19T13:19:44Z</time>
      </trkpt>
      <trkpt lat="42.67913" lon="1.79196">
        <ele>1880.48</ele>
        <time>2015-01-19T13:19:58Z</time>
      </trkpt>
      <trkpt lat="42.67928" lon="1.792">
        <ele>1875.19</ele>
        <time>2015-01-19T13:20:12Z</time>
      </trkpt>
      <trkpt lat="42.67943" lon="1.79206">
        <ele>1872.3</ele>
        <time>2015-01-19T13:20:25Z</time>
      </trkpt>
      <trkpt lat="42.67952" lon="1.79216">
        <ele>1872.3</ele>
        <time>2015-01-19T13:20:39Z</time>
      </trkpt>
      <trkpt lat="42.67961" lon="1.79223">
        <ele>1872.79</ele>
        <time>2015-01-19T13:20:53Z</time>
      </trkpt>
      <trkpt lat="42.6797" lon="1.79228">
        <ele>1871.34</ele>
        <time>2015-01-19T13:21:06Z</time>
      </trkpt>
      <trkpt lat="42.67985" lon="1.79234">
        <ele>1869.42</ele>
        <time>2015-01-19T13:21:20Z</time>
      </trkpt>
      <trkpt lat="42.67997" lon="1.7924">
        <ele>1869.42</ele>
        <time>2015-01-19T13:21:32Z</time>
      </trkpt>
      <trkpt lat="42.68006" lon="1.79247">
        <ele>1869.42</ele>
        <time>2015-01-19T13:21:42Z</time>
      </trkpt>
      <trkpt lat="42.68015" lon="1.79258">
        <ele>1870.86</ele>
        <time>2015-01-19T13:21:57Z</time>
      </trkpt>
      <trkpt lat="42.68021" lon="1.79267">
        <ele>1873.75</ele>
        <time>2015-01-19T13:22:12Z</time>
      </trkpt>
      <trkpt lat="42.68024" lon="1.79277">
        <ele>1877.11</ele>
        <time>2015-01-19T13:22:25Z</time>
      </trkpt>
      <trkpt lat="42.68028" lon="1.79288">
        <ele>1877.59</ele>
        <time>2015-01-19T13:22:40Z</time>
      </trkpt>
      <trkpt lat="42.68031" lon="1.79299">
        <ele>1879.03</ele>
        <time>2015-01-19T13:22:53Z</time>
      </trkpt>
      <trkpt lat="42.68028" lon="1.79298">
        <ele>1880.96</ele>
        <time>2015-01-19T13:23:07Z</time>
      </trkpt>
      <trkpt lat="42.6801" lon="1.7929">
        <ele>1884.32</ele>
        <time>2015-01-19T13:23:24Z</time>
      </trkpt>
      <trkpt lat="42.68009" lon="1.79289">
        <ele>1884.32</ele>
        <time>2015-01-19T13:23:25Z</time>
      </trkpt>
      <trkpt lat="42.67995" lon="1.79283">
        <ele>1885.28</ele>
        <time>2015-01-19T13:23:39Z</time>
      </trkpt>
      <trkpt lat="42.67985" lon="1.79278">
        <ele>1886.24</ele>
        <time>2015-01-19T13:23:49Z</time>
      </trkpt>
      <trkpt lat="42.67971" lon="1.79274">
        <ele>1888.17</ele>
        <time>2015-01-19T13:24:03Z</time>
      </trkpt>
      <trkpt lat="42.67958" lon="1.79272">
        <ele>1889.61</ele>
        <time>2015-01-19T13:24:16Z</time>
      </trkpt>
      <trkpt lat="42.67954" lon="1.7927">
        <ele>1889.13</ele>
        <time>2015-01-19T13:24:21Z</time>
      </trkpt>
      <trkpt lat="42.67939" lon="1.79268">
        <ele>1890.09</ele>
        <time>2015-01-19T13:24:34Z</time>
      </trkpt>
      <trkpt lat="42.67924" lon="1.79265">
        <ele>1891.53</ele>
        <time>2015-01-19T13:24:47Z</time>
      </trkpt>
      <trkpt lat="42.67912" lon="1.79266">
        <ele>1894.42</ele>
        <time>2015-01-19T13:24:58Z</time>
      </trkpt>
      <trkpt lat="42.67896" lon="1.79266">
        <ele>1896.34</ele>
        <time>2015-01-19T13:25:12Z</time>
      </trkpt>
      <trkpt lat="42.67884" lon="1.79266">
        <ele>1900.18</ele>
        <time>2015-01-19T13:25:25Z</time>
      </trkpt>
      <trkpt lat="42.6787" lon="1.79266">
        <ele>1902.59</ele>
        <time>2015-01-19T13:25:39Z</time>
      </trkpt>
      <trkpt lat="42.6786" lon="1.79267">
        <ele>1905.95</ele>
        <time>2015-01-19T13:25:48Z</time>
      </trkpt>
      <trkpt lat="42.67845" lon="1.79269">
        <ele>1906.91</ele>
        <time>2015-01-19T13:26:04Z</time>
      </trkpt>
      <trkpt lat="42.67831" lon="1.79272">
        <ele>1908.83</ele>
        <time>2015-01-19T13:26:17Z</time>
      </trkpt>
      <trkpt lat="42.67817" lon="1.79275">
        <ele>1911.24</ele>
        <time>2015-01-19T13:26:31Z</time>
      </trkpt>
      <trkpt lat="42.67801" lon="1.7928">
        <ele>1912.2</ele>
        <time>2015-01-19T13:26:47Z</time>
      </trkpt>
      <trkpt lat="42.67788" lon="1.79285">
        <ele>1912.2</ele>
        <time>2015-01-19T13:27:00Z</time>
      </trkpt>
      <trkpt lat="42.67773" lon="1.79293">
        <ele>1914.12</ele>
        <time>2015-01-19T13:27:14Z</time>
      </trkpt>
      <trkpt lat="42.67767" lon="1.79296">
        <ele>1914.6</ele>
        <time>2015-01-19T13:27:19Z</time>
      </trkpt>
      <trkpt lat="42.67755" lon="1.79305">
        <ele>1914.6</ele>
        <time>2015-01-19T13:27:33Z</time>
      </trkpt>
      <trkpt lat="42.67744" lon="1.79316">
        <ele>1915.56</ele>
        <time>2015-01-19T13:27:47Z</time>
      </trkpt>
      <trkpt lat="42.67732" lon="1.79326">
        <ele>1917.01</ele>
        <time>2015-01-19T13:28:01Z</time>
      </trkpt>
      <trkpt lat="42.67719" lon="1.79339">
        <ele>1919.89</ele>
        <time>2015-01-19T13:28:17Z</time>
      </trkpt>
      <trkpt lat="42.6771" lon="1.79348">
        <ele>1919.41</ele>
        <time>2015-01-19T13:28:29Z</time>
      </trkpt>
      <trkpt lat="42.677" lon="1.79357">
        <ele>1920.85</ele>
        <time>2015-01-19T13:28:42Z</time>
      </trkpt>
      <trkpt lat="42.67688" lon="1.79369">
        <ele>1922.77</ele>
        <time>2015-01-19T13:28:57Z</time>
      </trkpt>
      <trkpt lat="42.67676" lon="1.7938">
        <ele>1924.22</ele>
        <time>2015-01-19T13:29:12Z</time>
      </trkpt>
      <trkpt lat="42.67661" lon="1.79391">
        <ele>1928.06</ele>
        <time>2015-01-19T13:29:29Z</time>
      </trkpt>
      <trkpt lat="42.67645" lon="1.79404">
        <ele>1928.54</ele>
        <time>2015-01-19T13:29:46Z</time>
      </trkpt>
      <trkpt lat="42.67632" lon="1.79415">
        <ele>1929.02</ele>
        <time>2015-01-19T13:30:01Z</time>
      </trkpt>
      <trkpt lat="42.6762" lon="1.79425">
        <ele>1929.5</ele>
        <time>2015-01-19T13:30:15Z</time>
      </trkpt>
      <trkpt lat="42.67609" lon="1.79436">
        <ele>1930.46</ele>
        <time>2015-01-19T13:30:28Z</time>
      </trkpt>
      <trkpt lat="42.67597" lon="1.79445">
        <ele>1932.87</ele>
        <time>2015-01-19T13:30:42Z</time>
      </trkpt>
      <trkpt lat="42.67582" lon="1.79455">
        <ele>1937.67</ele>
        <time>2015-01-19T13:30:58Z</time>
      </trkpt>
      <trkpt lat="42.67571" lon="1.79463">
        <ele>1940.56</ele>
        <time>2015-01-19T13:31:10Z</time>
      </trkpt>
      <trkpt lat="42.67558" lon="1.79472">
        <ele>1944.4</ele>
        <time>2015-01-19T13:31:25Z</time>
      </trkpt>
      <trkpt lat="42.67545" lon="1.79481">
        <ele>1946.33</ele>
        <time>2015-01-19T13:31:41Z</time>
      </trkpt>
      <trkpt lat="42.67532" lon="1.79485">
        <ele>1949.69</ele>
        <time>2015-01-19T13:31:54Z</time>
      </trkpt>
      <trkpt lat="42.67527" lon="1.7949">
        <ele>1950.65</ele>
        <time>2015-01-19T13:32:02Z</time>
      </trkpt>
      <trkpt lat="42.67524" lon="1.79493">
        <ele>1950.65</ele>
        <time>2015-01-19T13:32:06Z</time>
      </trkpt>
      <trkpt lat="42.6752" lon="1.79499">
        <ele>1949.69</ele>
        <time>2015-01-19T13:32:20Z</time>
      </trkpt>
      <trkpt lat="42.67521" lon="1.79505">
        <ele>1949.69</ele>
        <time>2015-01-19T13:32:38Z</time>
      </trkpt>
      <trkpt lat="42.67515" lon="1.79517">
        <ele>1953.06</ele>
        <time>2015-01-19T13:32:54Z</time>
      </trkpt>
      <trkpt lat="42.67512" lon="1.79528">
        <ele>1955.46</ele>
        <time>2015-01-19T13:33:08Z</time>
      </trkpt>
      <trkpt lat="42.6752" lon="1.79534">
        <ele>1957.38</ele>
        <time>2015-01-19T13:33:21Z</time>
      </trkpt>
      <trkpt lat="42.6753" lon="1.79536">
        <ele>1958.82</ele>
        <time>2015-01-19T13:33:36Z</time>
      </trkpt>
      <trkpt lat="42.67543" lon="1.79542">
        <ele>1960.75</ele>
        <time>2015-01-19T13:33:52Z</time>
      </trkpt>
      <trkpt lat="42.67552" lon="1.79546">
        <ele>1962.19</ele>
        <time>2015-01-19T13:34:06Z</time>
      </trkpt>
      <trkpt lat="42.67562" lon="1.7955">
        <ele>1962.67</ele>
        <time>2015-01-19T13:34:21Z</time>
      </trkpt>
      <trkpt lat="42.6757" lon="1.79553">
        <ele>1963.63</ele>
        <time>2015-01-19T13:34:36Z</time>
      </trkpt>
      <trkpt lat="42.67576" lon="1.79555">
        <ele>1964.11</ele>
        <time>2015-01-19T13:34:52Z</time>
      </trkpt>
      <trkpt lat="42.67584" lon="1.7956">
        <ele>1965.55</ele>
        <time>2015-01-19T13:35:06Z</time>
      </trkpt>
      <trkpt lat="42.67591" lon="1.79565">
        <ele>1967.48</ele>
        <time>2015-01-19T13:35:22Z</time>
      </trkpt>
      <trkpt lat="42.67596" lon="1.79569">
        <ele>1967.48</ele>
        <time>2015-01-19T13:35:36Z</time>
      </trkpt>
      <trkpt lat="42.67604" lon="1.79574">
        <ele>1970.36</ele>
        <time>2015-01-19T13:35:52Z</time>
      </trkpt>
      <trkpt lat="42.6761" lon="1.79579">
        <ele>1971.8</ele>
        <time>2015-01-19T13:36:08Z</time>
      </trkpt>
      <trkpt lat="42.67613" lon="1.7958">
        <ele>1974.2</ele>
        <time>2015-01-19T13:36:20Z</time>
      </trkpt>
      <trkpt lat="42.67625" lon="1.79584">
        <ele>1976.13</ele>
        <time>2015-01-19T13:36:33Z</time>
      </trkpt>
      <trkpt lat="42.67641" lon="1.79587">
        <ele>1977.09</ele>
        <time>2015-01-19T13:36:50Z</time>
      </trkpt>
      <trkpt lat="42.67652" lon="1.79589">
        <ele>1979.01</ele>
        <time>2015-01-19T13:37:03Z</time>
      </trkpt>
      <trkpt lat="42.67665" lon="1.79591">
        <ele>1980.45</ele>
        <time>2015-01-19T13:37:15Z</time>
      </trkpt>
      <trkpt lat="42.67679" lon="1.79593">
        <ele>1981.9</ele>
        <time>2015-01-19T13:37:29Z</time>
      </trkpt>
      <trkpt lat="42.6769" lon="1.79594">
        <ele>1983.34</ele>
        <time>2015-01-19T13:37:40Z</time>
      </trkpt>
      <trkpt lat="42.67703" lon="1.79594">
        <ele>1984.78</ele>
        <time>2015-01-19T13:37:53Z</time>
      </trkpt>
      <trkpt lat="42.67717" lon="1.79595">
        <ele>1985.26</ele>
        <time>2015-01-19T13:38:07Z</time>
      </trkpt>
      <trkpt lat="42.67731" lon="1.79597">
        <ele>1985.74</ele>
        <time>2015-01-19T13:38:21Z</time>
      </trkpt>
      <trkpt lat="42.67743" lon="1.79597">
        <ele>1986.22</ele>
        <time>2015-01-19T13:38:34Z</time>
      </trkpt>
      <trkpt lat="42.67756" lon="1.79597">
        <ele>1985.74</ele>
        <time>2015-01-19T13:38:47Z</time>
      </trkpt>
      <trkpt lat="42.67769" lon="1.79601">
        <ele>1987.18</ele>
        <time>2015-01-19T13:39:00Z</time>
      </trkpt>
      <trkpt lat="42.67775" lon="1.79602">
        <ele>1988.14</ele>
        <time>2015-01-19T13:39:06Z</time>
      </trkpt>
      <trkpt lat="42.6779" lon="1.79608">
        <ele>1989.1</ele>
        <time>2015-01-19T13:39:20Z</time>
      </trkpt>
      <trkpt lat="42.67791" lon="1.79608">
        <ele>1989.59</ele>
        <time>2015-01-19T13:39:21Z</time>
      </trkpt>
      <trkpt lat="42.67795" lon="1.79609">
        <ele>1990.07</ele>
        <time>2015-01-19T13:39:24Z</time>
      </trkpt>
      <trkpt lat="42.67808" lon="1.79621">
        <ele>1991.03</ele>
        <time>2015-01-19T13:39:40Z</time>
      </trkpt>
      <trkpt lat="42.67818" lon="1.79631">
        <ele>1991.03</ele>
        <time>2015-01-19T13:39:53Z</time>
      </trkpt>
      <trkpt lat="42.67831" lon="1.79642">
        <ele>1992.47</ele>
        <time>2015-01-19T13:40:08Z</time>
      </trkpt>
      <trkpt lat="42.67842" lon="1.7965">
        <ele>1992.95</ele>
        <time>2015-01-19T13:40:20Z</time>
      </trkpt>
      <trkpt lat="42.67846" lon="1.79654">
        <ele>1993.43</ele>
        <time>2015-01-19T13:40:25Z</time>
      </trkpt>
      <trkpt lat="42.6786" lon="1.79666">
        <ele>1996.8</ele>
        <time>2015-01-19T13:40:39Z</time>
      </trkpt>
      <trkpt lat="42.67867" lon="1.79679">
        <ele>1997.76</ele>
        <time>2015-01-19T13:40:50Z</time>
      </trkpt>
      <trkpt lat="42.67873" lon="1.79696">
        <ele>1996.32</ele>
        <time>2015-01-19T13:41:06Z</time>
      </trkpt>
      <trkpt lat="42.67874" lon="1.79698">
        <ele>1996.8</ele>
        <time>2015-01-19T13:41:18Z</time>
      </trkpt>
      <trkpt lat="42.67873" lon="1.79701">
        <ele>1997.28</ele>
        <time>2015-01-19T13:41:38Z</time>
      </trkpt>
      <trkpt lat="42.67875" lon="1.79702">
        <ele>1997.28</ele>
        <time>2015-01-19T13:41:42Z</time>
      </trkpt>
      <trkpt lat="42.67881" lon="1.79709">
        <ele>1996.32</ele>
        <time>2015-01-19T13:41:55Z</time>
      </trkpt>
      <trkpt lat="42.6788" lon="1.79712">
        <ele>1996.8</ele>
        <time>2015-01-19T13:41:59Z</time>
      </trkpt>
      <trkpt lat="42.67863" lon="1.79706">
        <ele>1998.24</ele>
        <time>2015-01-19T13:42:15Z</time>
      </trkpt>
      <trkpt lat="42.67849" lon="1.797">
        <ele>1999.2</ele>
        <time>2015-01-19T13:42:27Z</time>
      </trkpt>
      <trkpt lat="42.67841" lon="1.79697">
        <ele>1999.68</ele>
        <time>2015-01-19T13:42:37Z</time>
      </trkpt>
      <trkpt lat="42.6784" lon="1.79699">
        <ele>2000.16</ele>
        <time>2015-01-19T13:42:40Z</time>
      </trkpt>
      <trkpt lat="42.67835" lon="1.79711">
        <ele>2001.6</ele>
        <time>2015-01-19T13:42:54Z</time>
      </trkpt>
      <trkpt lat="42.67832" lon="1.79715">
        <ele>1999.68</ele>
        <time>2015-01-19T13:43:07Z</time>
      </trkpt>
      <trkpt lat="42.67832" lon="1.79715">
        <ele>2000.64</ele>
        <time>2015-01-19T13:43:21Z</time>
      </trkpt>
      <trkpt lat="42.67833" lon="1.79718">
        <ele>2000.16</ele>
        <time>2015-01-19T13:43:34Z</time>
      </trkpt>
      <trkpt lat="42.67833" lon="1.79718">
        <ele>1999.68</ele>
        <time>2015-01-19T13:43:44Z</time>
      </trkpt>
      <trkpt lat="42.67832" lon="1.79721">
        <ele>1998.72</ele>
        <time>2015-01-19T13:44:00Z</time>
      </trkpt>
      <trkpt lat="42.67833" lon="1.79722">
        <ele>1999.2</ele>
        <time>2015-01-19T13:44:15Z</time>
      </trkpt>
      <trkpt lat="42.67833" lon="1.7972">
        <ele>1998.72</ele>
        <time>2015-01-19T13:44:29Z</time>
      </trkpt>
      <trkpt lat="42.67835" lon="1.79717">
        <ele>2000.64</ele>
        <time>2015-01-19T13:44:51Z</time>
      </trkpt>
      <trkpt lat="42.67838" lon="1.79718">
        <ele>1999.68</ele>
        <time>2015-01-19T13:45:07Z</time>
      </trkpt>
      <trkpt lat="42.67829" lon="1.79707">
        <ele>2000.64</ele>
        <time>2015-01-19T13:45:24Z</time>
      </trkpt>
      <trkpt lat="42.67827" lon="1.79709">
        <ele>2003.04</ele>
        <time>2015-01-19T13:45:47Z</time>
      </trkpt>
      <trkpt lat="42.67831" lon="1.7971">
        <ele>2005.93</ele>
        <time>2015-01-19T13:46:15Z</time>
      </trkpt>
      <trkpt lat="42.6783" lon="1.79703">
        <ele>2010.73</ele>
        <time>2015-01-19T13:46:36Z</time>
      </trkpt>
      <trkpt lat="42.67833" lon="1.79705">
        <ele>2014.58</ele>
        <time>2015-01-19T13:46:59Z</time>
      </trkpt>
      <trkpt lat="42.67831" lon="1.79706">
        <ele>2014.1</ele>
        <time>2015-01-19T13:47:20Z</time>
      </trkpt>
      <trkpt lat="42.67829" lon="1.79708">
        <ele>2012.18</ele>
        <time>2015-01-19T13:47:38Z</time>
      </trkpt>
      <trkpt lat="42.67829" lon="1.79712">
        <ele>2005.93</ele>
        <time>2015-01-19T13:47:55Z</time>
      </trkpt>
      <trkpt lat="42.67829" lon="1.79713">
        <ele>2007.85</ele>
        <time>2015-01-19T13:48:15Z</time>
      </trkpt>
      <trkpt lat="42.67829" lon="1.79712">
        <ele>2006.89</ele>
        <time>2015-01-19T13:48:30Z</time>
      </trkpt>
      <trkpt lat="42.6783" lon="1.7971">
        <ele>2006.41</ele>
        <time>2015-01-19T13:48:53Z</time>
      </trkpt>
      <trkpt lat="42.67828" lon="1.79708">
        <ele>2007.37</ele>
        <time>2015-01-19T13:49:15Z</time>
      </trkpt>
      <trkpt lat="42.67831" lon="1.79706">
        <ele>2009.77</ele>
        <time>2015-01-19T13:49:32Z</time>
      </trkpt>
      <trkpt lat="42.67829" lon="1.79705">
        <ele>2010.73</ele>
        <time>2015-01-19T13:49:53Z</time>
      </trkpt>
      <trkpt lat="42.67827" lon="1.79702">
        <ele>2012.18</ele>
        <time>2015-01-19T13:50:11Z</time>
      </trkpt>
      <trkpt lat="42.67831" lon="1.79705">
        <ele>2011.7</ele>
        <time>2015-01-19T13:50:28Z</time>
      </trkpt>
      <trkpt lat="42.67835" lon="1.79713">
        <ele>2009.77</ele>
        <time>2015-01-19T13:50:50Z</time>
      </trkpt>
      <trkpt lat="42.6783" lon="1.79707">
        <ele>2008.33</ele>
        <time>2015-01-19T13:51:12Z</time>
      </trkpt>
      <trkpt lat="42.67828" lon="1.79709">
        <ele>2009.77</ele>
        <time>2015-01-19T13:51:40Z</time>
      </trkpt>
      <trkpt lat="42.67826" lon="1.79704">
        <ele>2010.25</ele>
        <time>2015-01-19T13:51:59Z</time>
      </trkpt>
      <trkpt lat="42.67829" lon="1.79704">
        <ele>2009.77</ele>
        <time>2015-01-19T13:52:17Z</time>
      </trkpt>
      <trkpt lat="42.67826" lon="1.79704">
        <ele>2009.29</ele>
        <time>2015-01-19T13:52:31Z</time>
      </trkpt>
      <trkpt lat="42.67827" lon="1.79708">
        <ele>2009.29</ele>
        <time>2015-01-19T13:52:51Z</time>
      </trkpt>
      <trkpt lat="42.67826" lon="1.79708">
        <ele>2009.29</ele>
        <time>2015-01-19T13:53:10Z</time>
      </trkpt>
      <trkpt lat="42.67821" lon="1.79704">
        <ele>2011.7</ele>
        <time>2015-01-19T13:53:18Z</time>
      </trkpt>
      <trkpt lat="42.67825" lon="1.79707">
        <ele>2007.37</ele>
        <time>2015-01-19T13:53:33Z</time>
      </trkpt>
      <trkpt lat="42.67826" lon="1.79708">
        <ele>2008.81</ele>
        <time>2015-01-19T13:53:47Z</time>
      </trkpt>
      <trkpt lat="42.67827" lon="1.79706">
        <ele>2009.77</ele>
        <time>2015-01-19T13:54:03Z</time>
      </trkpt>
      <trkpt lat="42.67829" lon="1.79703">
        <ele>2008.81</ele>
        <time>2015-01-19T13:54:11Z</time>
      </trkpt>
      <trkpt lat="42.67833" lon="1.79699">
        <ele>2007.85</ele>
        <time>2015-01-19T13:54:14Z</time>
      </trkpt>
      <trkpt lat="42.67852" lon="1.79694">
        <ele>2004.01</ele>
        <time>2015-01-19T13:54:22Z</time>
      </trkpt>
      <trkpt lat="42.67871" lon="1.79708">
        <ele>2001.12</ele>
        <time>2015-01-19T13:54:28Z</time>
      </trkpt>
      <trkpt lat="42.67889" lon="1.79715">
        <ele>1999.68</ele>
        <time>2015-01-19T13:54:32Z</time>
      </trkpt>
      <trkpt lat="42.67901" lon="1.79726">
        <ele>1998.24</ele>
        <time>2015-01-19T13:54:35Z</time>
      </trkpt>
      <trkpt lat="42.67917" lon="1.7974">
        <ele>1997.28</ele>
        <time>2015-01-19T13:54:39Z</time>
      </trkpt>
      <trkpt lat="42.67927" lon="1.79749">
        <ele>1996.32</ele>
        <time>2015-01-19T13:54:49Z</time>
      </trkpt>
      <trkpt lat="42.67927" lon="1.7975">
        <ele>1995.83</ele>
        <time>2015-01-19T13:54:50Z</time>
      </trkpt>
      <trkpt lat="42.67929" lon="1.79764">
        <ele>1994.87</ele>
        <time>2015-01-19T13:54:56Z</time>
      </trkpt>
      <trkpt lat="42.67935" lon="1.79813">
        <ele>1992.95</ele>
        <time>2015-01-19T13:55:08Z</time>
      </trkpt>
      <trkpt lat="42.67937" lon="1.7983">
        <ele>1991.99</ele>
        <time>2015-01-19T13:55:11Z</time>
      </trkpt>
      <trkpt lat="42.67939" lon="1.79857">
        <ele>1990.07</ele>
        <time>2015-01-19T13:55:15Z</time>
      </trkpt>
      <trkpt lat="42.67945" lon="1.79876">
        <ele>1987.66</ele>
        <time>2015-01-19T13:55:18Z</time>
      </trkpt>
      <trkpt lat="42.67978" lon="1.79908">
        <ele>1980.45</ele>
        <time>2015-01-19T13:55:24Z</time>
      </trkpt>
      <trkpt lat="42.67999" lon="1.79921">
        <ele>1974.69</ele>
        <time>2015-01-19T13:55:27Z</time>
      </trkpt>
      <trkpt lat="42.68043" lon="1.79951">
        <ele>1963.63</ele>
        <time>2015-01-19T13:55:33Z</time>
      </trkpt>
      <trkpt lat="42.68098" lon="1.79969">
        <ele>1949.69</ele>
        <time>2015-01-19T13:55:40Z</time>
      </trkpt>
      <trkpt lat="42.68139" lon="1.79992">
        <ele>1937.67</ele>
        <time>2015-01-19T13:55:47Z</time>
      </trkpt>
      <trkpt lat="42.68169" lon="1.7999">
        <ele>1928.54</ele>
        <time>2015-01-19T13:55:53Z</time>
      </trkpt>
      <trkpt lat="42.68205" lon="1.79983">
        <ele>1916.04</ele>
        <time>2015-01-19T13:56:00Z</time>
      </trkpt>
      <trkpt lat="42.68229" lon="1.79979">
        <ele>1906.91</ele>
        <time>2015-01-19T13:56:05Z</time>
      </trkpt>
      <trkpt lat="42.6826" lon="1.79972">
        <ele>1896.34</ele>
        <time>2015-01-19T13:56:10Z</time>
      </trkpt>
      <trkpt lat="42.68288" lon="1.79964">
        <ele>1888.17</ele>
        <time>2015-01-19T13:56:14Z</time>
      </trkpt>
      <trkpt lat="42.68298" lon="1.79961">
        <ele>1885.76</ele>
        <time>2015-01-19T13:56:15Z</time>
      </trkpt>
      <trkpt lat="42.68408" lon="1.79941">
        <ele>1869.9</ele>
        <time>2015-01-19T13:56:26Z</time>
      </trkpt>
      <trkpt lat="42.68457" lon="1.79933">
        <ele>1864.13</ele>
        <time>2015-01-19T13:56:35Z</time>
      </trkpt>
      <trkpt lat="42.68501" lon="1.79932">
        <ele>1859.33</ele>
        <time>2015-01-19T13:56:48Z</time>
      </trkpt>
      <trkpt lat="42.68543" lon="1.79941">
        <ele>1855.96</ele>
        <time>2015-01-19T13:57:00Z</time>
      </trkpt>
      <trkpt lat="42.68547" lon="1.79941">
        <ele>1855.48</ele>
        <time>2015-01-19T13:57:01Z</time>
      </trkpt>
      <trkpt lat="42.68557" lon="1.79943">
        <ele>1854.52</ele>
        <time>2015-01-19T13:57:03Z</time>
      </trkpt>
      <trkpt lat="42.68562" lon="1.79944">
        <ele>1854.04</ele>
        <time>2015-01-19T13:57:04Z</time>
      </trkpt>
      <trkpt lat="42.68567" lon="1.79946">
        <ele>1853.56</ele>
        <time>2015-01-19T13:57:05Z</time>
      </trkpt>
      <trkpt lat="42.68572" lon="1.79947">
        <ele>1853.08</ele>
        <time>2015-01-19T13:57:06Z</time>
      </trkpt>
      <trkpt lat="42.68577" lon="1.79949">
        <ele>1852.6</ele>
        <time>2015-01-19T13:57:07Z</time>
      </trkpt>
      <trkpt lat="42.68582" lon="1.79951">
        <ele>1851.64</ele>
        <time>2015-01-19T13:57:08Z</time>
      </trkpt>
      <trkpt lat="42.68587" lon="1.79953">
        <ele>1851.16</ele>
        <time>2015-01-19T13:57:09Z</time>
      </trkpt>
      <trkpt lat="42.68591" lon="1.79956">
        <ele>1850.19</ele>
        <time>2015-01-19T13:57:10Z</time>
      </trkpt>
      <trkpt lat="42.68596" lon="1.79959">
        <ele>1849.71</ele>
        <time>2015-01-19T13:57:11Z</time>
      </trkpt>
      <trkpt lat="42.686" lon="1.79962">
        <ele>1849.23</ele>
        <time>2015-01-19T13:57:12Z</time>
      </trkpt>
      <trkpt lat="42.68604" lon="1.79965">
        <ele>1848.75</ele>
        <time>2015-01-19T13:57:13Z</time>
      </trkpt>
      <trkpt lat="42.68609" lon="1.79968">
        <ele>1847.79</ele>
        <time>2015-01-19T13:57:14Z</time>
      </trkpt>
      <trkpt lat="42.68613" lon="1.79972">
        <ele>1847.31</ele>
        <time>2015-01-19T13:57:15Z</time>
      </trkpt>
      <trkpt lat="42.68618" lon="1.79976">
        <ele>1846.83</ele>
        <time>2015-01-19T13:57:16Z</time>
      </trkpt>
      <trkpt lat="42.68623" lon="1.79979">
        <ele>1846.35</ele>
        <time>2015-01-19T13:57:17Z</time>
      </trkpt>
      <trkpt lat="42.68628" lon="1.79982">
        <ele>1845.39</ele>
        <time>2015-01-19T13:57:18Z</time>
      </trkpt>
      <trkpt lat="42.68632" lon="1.79987">
        <ele>1844.91</ele>
        <time>2015-01-19T13:57:19Z</time>
      </trkpt>
      <trkpt lat="42.68636" lon="1.79992">
        <ele>1844.43</ele>
        <time>2015-01-19T13:57:20Z</time>
      </trkpt>
      <trkpt lat="42.6866" lon="1.80021">
        <ele>1842.02</ele>
        <time>2015-01-19T13:57:26Z</time>
      </trkpt>
      <trkpt lat="42.68666" lon="1.80026">
        <ele>1842.02</ele>
        <time>2015-01-19T13:57:27Z</time>
      </trkpt>
      <trkpt lat="42.6867" lon="1.80032">
        <ele>1841.54</ele>
        <time>2015-01-19T13:57:28Z</time>
      </trkpt>
      <trkpt lat="42.68675" lon="1.80037">
        <ele>1841.06</ele>
        <time>2015-01-19T13:57:29Z</time>
      </trkpt>
      <trkpt lat="42.68681" lon="1.80041">
        <ele>1840.58</ele>
        <time>2015-01-19T13:57:30Z</time>
      </trkpt>
      <trkpt lat="42.68685" lon="1.80047">
        <ele>1840.1</ele>
        <time>2015-01-19T13:57:31Z</time>
      </trkpt>
      <trkpt lat="42.68689" lon="1.80052">
        <ele>1839.62</ele>
        <time>2015-01-19T13:57:32Z</time>
      </trkpt>
      <trkpt lat="42.68693" lon="1.80058">
        <ele>1839.62</ele>
        <time>2015-01-19T13:57:33Z</time>
      </trkpt>
      <trkpt lat="42.68698" lon="1.80063">
        <ele>1839.14</ele>
        <time>2015-01-19T13:57:34Z</time>
      </trkpt>
      <trkpt lat="42.68703" lon="1.80067">
        <ele>1838.66</ele>
        <time>2015-01-19T13:57:35Z</time>
      </trkpt>
      <trkpt lat="42.68708" lon="1.80072">
        <ele>1838.18</ele>
        <time>2015-01-19T13:57:36Z</time>
      </trkpt>
      <trkpt lat="42.68711" lon="1.80077">
        <ele>1838.18</ele>
        <time>2015-01-19T13:57:37Z</time>
      </trkpt>
      <trkpt lat="42.68715" lon="1.80082">
        <ele>1837.7</ele>
        <time>2015-01-19T13:57:38Z</time>
      </trkpt>
      <trkpt lat="42.6872" lon="1.80087">
        <ele>1836.74</ele>
        <time>2015-01-19T13:57:39Z</time>
      </trkpt>
      <trkpt lat="42.68724" lon="1.80091">
        <ele>1836.26</ele>
        <time>2015-01-19T13:57:40Z</time>
      </trkpt>
      <trkpt lat="42.6873" lon="1.80094">
        <ele>1835.29</ele>
        <time>2015-01-19T13:57:41Z</time>
      </trkpt>
      <trkpt lat="42.68735" lon="1.80097">
        <ele>1834.33</ele>
        <time>2015-01-19T13:57:42Z</time>
      </trkpt>
      <trkpt lat="42.6874" lon="1.80102">
        <ele>1833.37</ele>
        <time>2015-01-19T13:57:43Z</time>
      </trkpt>
      <trkpt lat="42.68745" lon="1.80105">
        <ele>1832.41</ele>
        <time>2015-01-19T13:57:44Z</time>
      </trkpt>
      <trkpt lat="42.6875" lon="1.8011">
        <ele>1830.97</ele>
        <time>2015-01-19T13:57:45Z</time>
      </trkpt>
      <trkpt lat="42.68755" lon="1.80113">
        <ele>1830.01</ele>
        <time>2015-01-19T13:57:46Z</time>
      </trkpt>
      <trkpt lat="42.68759" lon="1.80116">
        <ele>1829.05</ele>
        <time>2015-01-19T13:57:47Z</time>
      </trkpt>
      <trkpt lat="42.68764" lon="1.80119">
        <ele>1828.08</ele>
        <time>2015-01-19T13:57:48Z</time>
      </trkpt>
      <trkpt lat="42.68768" lon="1.80119">
        <ele>1827.12</ele>
        <time>2015-01-19T13:57:49Z</time>
      </trkpt>
      <trkpt lat="42.68772" lon="1.80118">
        <ele>1826.16</ele>
        <time>2015-01-19T13:57:50Z</time>
      </trkpt>
      <trkpt lat="42.68776" lon="1.80117">
        <ele>1825.68</ele>
        <time>2015-01-19T13:57:51Z</time>
      </trkpt>
      <trkpt lat="42.6878" lon="1.80119">
        <ele>1824.72</ele>
        <time>2015-01-19T13:57:52Z</time>
      </trkpt>
      <trkpt lat="42.68785" lon="1.8012">
        <ele>1823.76</ele>
        <time>2015-01-19T13:57:53Z</time>
      </trkpt>
      <trkpt lat="42.6879" lon="1.80122">
        <ele>1822.8</ele>
        <time>2015-01-19T13:57:54Z</time>
      </trkpt>
      <trkpt lat="42.68794" lon="1.80124">
        <ele>1822.32</ele>
        <time>2015-01-19T13:57:55Z</time>
      </trkpt>
      <trkpt lat="42.688" lon="1.80125">
        <ele>1821.35</ele>
        <time>2015-01-19T13:57:56Z</time>
      </trkpt>
      <trkpt lat="42.68805" lon="1.80127">
        <ele>1820.39</ele>
        <time>2015-01-19T13:57:57Z</time>
      </trkpt>
      <trkpt lat="42.6881" lon="1.8013">
        <ele>1819.91</ele>
        <time>2015-01-19T13:57:58Z</time>
      </trkpt>
      <trkpt lat="42.68816" lon="1.8013">
        <ele>1818.95</ele>
        <time>2015-01-19T13:57:59Z</time>
      </trkpt>
      <trkpt lat="42.68821" lon="1.80128">
        <ele>1817.99</ele>
        <time>2015-01-19T13:58:00Z</time>
      </trkpt>
      <trkpt lat="42.68827" lon="1.80129">
        <ele>1817.03</ele>
        <time>2015-01-19T13:58:01Z</time>
      </trkpt>
      <trkpt lat="42.68832" lon="1.80129">
        <ele>1815.59</ele>
        <time>2015-01-19T13:58:02Z</time>
      </trkpt>
      <trkpt lat="42.68837" lon="1.80129">
        <ele>1814.63</ele>
        <time>2015-01-19T13:58:03Z</time>
      </trkpt>
      <trkpt lat="42.68842" lon="1.80129">
        <ele>1813.66</ele>
        <time>2015-01-19T13:58:04Z</time>
      </trkpt>
      <trkpt lat="42.68847" lon="1.80129">
        <ele>1812.7</ele>
        <time>2015-01-19T13:58:05Z</time>
      </trkpt>
      <trkpt lat="42.68852" lon="1.8013">
        <ele>1811.74</ele>
        <time>2015-01-19T13:58:06Z</time>
      </trkpt>
      <trkpt lat="42.68858" lon="1.8013">
        <ele>1810.78</ele>
        <time>2015-01-19T13:58:07Z</time>
      </trkpt>
      <trkpt lat="42.68864" lon="1.80129">
        <ele>1809.82</ele>
        <time>2015-01-19T13:58:08Z</time>
      </trkpt>
      <trkpt lat="42.6887" lon="1.80128">
        <ele>1808.38</ele>
        <time>2015-01-19T13:58:09Z</time>
      </trkpt>
      <trkpt lat="42.68877" lon="1.80127">
        <ele>1807.42</ele>
        <time>2015-01-19T13:58:10Z</time>
      </trkpt>
      <trkpt lat="42.68883" lon="1.80123">
        <ele>1806.45</ele>
        <time>2015-01-19T13:58:11Z</time>
      </trkpt>
      <trkpt lat="42.68889" lon="1.80119">
        <ele>1805.01</ele>
        <time>2015-01-19T13:58:12Z</time>
      </trkpt>
      <trkpt lat="42.68897" lon="1.80117">
        <ele>1803.57</ele>
        <time>2015-01-19T13:58:13Z</time>
      </trkpt>
      <trkpt lat="42.68904" lon="1.80114">
        <ele>1802.61</ele>
        <time>2015-01-19T13:58:14Z</time>
      </trkpt>
      <trkpt lat="42.6891" lon="1.80108">
        <ele>1801.17</ele>
        <time>2015-01-19T13:58:15Z</time>
      </trkpt>
      <trkpt lat="42.68916" lon="1.80104">
        <ele>1799.73</ele>
        <time>2015-01-19T13:58:16Z</time>
      </trkpt>
      <trkpt lat="42.68923" lon="1.801">
        <ele>1797.8</ele>
        <time>2015-01-19T13:58:17Z</time>
      </trkpt>
      <trkpt lat="42.6893" lon="1.80093">
        <ele>1796.36</ele>
        <time>2015-01-19T13:58:18Z</time>
      </trkpt>
      <trkpt lat="42.68936" lon="1.80086">
        <ele>1794.92</ele>
        <time>2015-01-19T13:58:19Z</time>
      </trkpt>
      <trkpt lat="42.68942" lon="1.80079">
        <ele>1793.48</ele>
        <time>2015-01-19T13:58:20Z</time>
      </trkpt>
      <trkpt lat="42.6895" lon="1.80074">
        <ele>1791.55</ele>
        <time>2015-01-19T13:58:21Z</time>
      </trkpt>
      <trkpt lat="42.68957" lon="1.8007">
        <ele>1790.11</ele>
        <time>2015-01-19T13:58:22Z</time>
      </trkpt>
      <trkpt lat="42.68964" lon="1.80065">
        <ele>1788.67</ele>
        <time>2015-01-19T13:58:23Z</time>
      </trkpt>
      <trkpt lat="42.68971" lon="1.80059">
        <ele>1786.75</ele>
        <time>2015-01-19T13:58:24Z</time>
      </trkpt>
      <trkpt lat="42.6898" lon="1.80056">
        <ele>1784.82</ele>
        <time>2015-01-19T13:58:25Z</time>
      </trkpt>
      <trkpt lat="42.68987" lon="1.80053">
        <ele>1783.38</ele>
        <time>2015-01-19T13:58:26Z</time>
      </trkpt>
      <trkpt lat="42.68994" lon="1.80047">
        <ele>1781.46</ele>
        <time>2015-01-19T13:58:27Z</time>
      </trkpt>
      <trkpt lat="42.69001" lon="1.80043">
        <ele>1780.02</ele>
        <time>2015-01-19T13:58:28Z</time>
      </trkpt>
      <trkpt lat="42.69008" lon="1.8004">
        <ele>1778.1</ele>
        <time>2015-01-19T13:58:29Z</time>
      </trkpt>
      <trkpt lat="42.69015" lon="1.80037">
        <ele>1776.17</ele>
        <time>2015-01-19T13:58:30Z</time>
      </trkpt>
      <trkpt lat="42.69021" lon="1.80032">
        <ele>1774.73</ele>
        <time>2015-01-19T13:58:31Z</time>
      </trkpt>
      <trkpt lat="42.69027" lon="1.80029">
        <ele>1773.29</ele>
        <time>2015-01-19T13:58:32Z</time>
      </trkpt>
      <trkpt lat="42.69034" lon="1.80025">
        <ele>1771.85</ele>
        <time>2015-01-19T13:58:33Z</time>
      </trkpt>
      <trkpt lat="42.69041" lon="1.8002">
        <ele>1770.41</ele>
        <time>2015-01-19T13:58:34Z</time>
      </trkpt>
      <trkpt lat="42.69047" lon="1.80014">
        <ele>1768.96</ele>
        <time>2015-01-19T13:58:35Z</time>
      </trkpt>
      <trkpt lat="42.69053" lon="1.80009">
        <ele>1767.52</ele>
        <time>2015-01-19T13:58:36Z</time>
      </trkpt>
      <trkpt lat="42.6906" lon="1.80005">
        <ele>1766.08</ele>
        <time>2015-01-19T13:58:37Z</time>
      </trkpt>
      <trkpt lat="42.69066" lon="1.79999">
        <ele>1764.64</ele>
        <time>2015-01-19T13:58:38Z</time>
      </trkpt>
      <trkpt lat="42.69072" lon="1.79994">
        <ele>1763.2</ele>
        <time>2015-01-19T13:58:39Z</time>
      </trkpt>
      <trkpt lat="42.69078" lon="1.79991">
        <ele>1761.75</ele>
        <time>2015-01-19T13:58:40Z</time>
      </trkpt>
      <trkpt lat="42.69083" lon="1.79987">
        <ele>1760.31</ele>
        <time>2015-01-19T13:58:41Z</time>
      </trkpt>
      <trkpt lat="42.69093" lon="1.79979">
        <ele>1757.91</ele>
        <time>2015-01-19T13:58:43Z</time>
      </trkpt>
      <trkpt lat="42.69098" lon="1.79973">
        <ele>1756.47</ele>
        <time>2015-01-19T13:58:44Z</time>
      </trkpt>
      <trkpt lat="42.69125" lon="1.79958">
        <ele>1749.74</ele>
        <time>2015-01-19T13:58:50Z</time>
      </trkpt>
      <trkpt lat="42.69156" lon="1.79946">
        <ele>1744.93</ele>
        <time>2015-01-19T13:58:56Z</time>
      </trkpt>
      <trkpt lat="42.69181" lon="1.79934">
        <ele>1742.05</ele>
        <time>2015-01-19T13:59:01Z</time>
      </trkpt>
      <trkpt lat="42.69197" lon="1.79919">
        <ele>1739.16</ele>
        <time>2015-01-19T13:59:07Z</time>
      </trkpt>
      <trkpt lat="42.69199" lon="1.79919">
        <ele>1739.16</ele>
        <time>2015-01-19T13:59:08Z</time>
      </trkpt>
      <trkpt lat="42.69219" lon="1.79924">
        <ele>1737.24</ele>
        <time>2015-01-19T13:59:15Z</time>
      </trkpt>
      <trkpt lat="42.69229" lon="1.79925">
        <ele>1736.28</ele>
        <time>2015-01-19T13:59:17Z</time>
      </trkpt>
      <trkpt lat="42.6926" lon="1.7994">
        <ele>1730.99</ele>
        <time>2015-01-19T13:59:24Z</time>
      </trkpt>
      <trkpt lat="42.69294" lon="1.79962">
        <ele>1725.22</ele>
        <time>2015-01-19T13:59:33Z</time>
      </trkpt>
      <trkpt lat="42.69315" lon="1.79977">
        <ele>1720.42</ele>
        <time>2015-01-19T13:59:38Z</time>
      </trkpt>
      <trkpt lat="42.69331" lon="1.79988">
        <ele>1716.09</ele>
        <time>2015-01-19T13:59:42Z</time>
      </trkpt>
      <trkpt lat="42.69334" lon="1.7999">
        <ele>1714.65</ele>
        <time>2015-01-19T13:59:43Z</time>
      </trkpt>
      <trkpt lat="42.69338" lon="1.79992">
        <ele>1713.69</ele>
        <time>2015-01-19T13:59:44Z</time>
      </trkpt>
      <trkpt lat="42.69342" lon="1.79996">
        <ele>1712.73</ele>
        <time>2015-01-19T13:59:45Z</time>
      </trkpt>
      <trkpt lat="42.69346" lon="1.79999">
        <ele>1711.28</ele>
        <time>2015-01-19T13:59:46Z</time>
      </trkpt>
      <trkpt lat="42.6935" lon="1.80002">
        <ele>1709.84</ele>
        <time>2015-01-19T13:59:47Z</time>
      </trkpt>
      <trkpt lat="42.69354" lon="1.80005">
        <ele>1707.92</ele>
        <time>2015-01-19T13:59:48Z</time>
      </trkpt>
      <trkpt lat="42.69357" lon="1.80008">
        <ele>1706.96</ele>
        <time>2015-01-19T13:59:49Z</time>
      </trkpt>
      <trkpt lat="42.69361" lon="1.80011">
        <ele>1705.52</ele>
        <time>2015-01-19T13:59:50Z</time>
      </trkpt>
      <trkpt lat="42.69364" lon="1.80014">
        <ele>1704.07</ele>
        <time>2015-01-19T13:59:51Z</time>
      </trkpt>
      <trkpt lat="42.69366" lon="1.80016">
        <ele>1702.63</ele>
        <time>2015-01-19T13:59:52Z</time>
      </trkpt>
      <trkpt lat="42.69367" lon="1.80019">
        <ele>1701.67</ele>
        <time>2015-01-19T13:59:53Z</time>
      </trkpt>
      <trkpt lat="42.69368" lon="1.80022">
        <ele>1699.75</ele>
        <time>2015-01-19T13:59:54Z</time>
      </trkpt>
      <trkpt lat="42.6937" lon="1.80025">
        <ele>1698.31</ele>
        <time>2015-01-19T13:59:55Z</time>
      </trkpt>
      <trkpt lat="42.69373" lon="1.80028">
        <ele>1696.86</ele>
        <time>2015-01-19T13:59:56Z</time>
      </trkpt>
      <trkpt lat="42.69376" lon="1.80031">
        <ele>1695.42</ele>
        <time>2015-01-19T13:59:57Z</time>
      </trkpt>
      <trkpt lat="42.69379" lon="1.80035">
        <ele>1694.46</ele>
        <time>2015-01-19T13:59:58Z</time>
      </trkpt>
      <trkpt lat="42.69382" lon="1.8004">
        <ele>1693.02</ele>
        <time>2015-01-19T13:59:59Z</time>
      </trkpt>
      <trkpt lat="42.69384" lon="1.80045">
        <ele>1692.06</ele>
        <time>2015-01-19T14:00:00Z</time>
      </trkpt>
      <trkpt lat="42.69386" lon="1.8005">
        <ele>1690.62</ele>
        <time>2015-01-19T14:00:01Z</time>
      </trkpt>
      <trkpt lat="42.69387" lon="1.80056">
        <ele>1689.65</ele>
        <time>2015-01-19T14:00:02Z</time>
      </trkpt>
      <trkpt lat="42.69388" lon="1.80061">
        <ele>1688.69</ele>
        <time>2015-01-19T14:00:03Z</time>
      </trkpt>
      <trkpt lat="42.6939" lon="1.80073">
        <ele>1686.29</ele>
        <time>2015-01-19T14:00:05Z</time>
      </trkpt>
      <trkpt lat="42.69391" lon="1.80079">
        <ele>1685.33</ele>
        <time>2015-01-19T14:00:06Z</time>
      </trkpt>
      <trkpt lat="42.69391" lon="1.80085">
        <ele>1683.89</ele>
        <time>2015-01-19T14:00:07Z</time>
      </trkpt>
      <trkpt lat="42.69391" lon="1.8009">
        <ele>1682.44</ele>
        <time>2015-01-19T14:00:08Z</time>
      </trkpt>
      <trkpt lat="42.69391" lon="1.80096">
        <ele>1681</ele>
        <time>2015-01-19T14:00:09Z</time>
      </trkpt>
      <trkpt lat="42.69391" lon="1.80104">
        <ele>1680.04</ele>
        <time>2015-01-19T14:00:10Z</time>
      </trkpt>
      <trkpt lat="42.69392" lon="1.80112">
        <ele>1678.6</ele>
        <time>2015-01-19T14:00:11Z</time>
      </trkpt>
      <trkpt lat="42.69392" lon="1.80121">
        <ele>1677.16</ele>
        <time>2015-01-19T14:00:12Z</time>
      </trkpt>
      <trkpt lat="42.69393" lon="1.8013">
        <ele>1675.72</ele>
        <time>2015-01-19T14:00:13Z</time>
      </trkpt>
      <trkpt lat="42.69393" lon="1.80138">
        <ele>1674.75</ele>
        <time>2015-01-19T14:00:14Z</time>
      </trkpt>
      <trkpt lat="42.69394" lon="1.80146">
        <ele>1673.31</ele>
        <time>2015-01-19T14:00:15Z</time>
      </trkpt>
      <trkpt lat="42.69394" lon="1.80154">
        <ele>1671.87</ele>
        <time>2015-01-19T14:00:16Z</time>
      </trkpt>
      <trkpt lat="42.69394" lon="1.80162">
        <ele>1669.95</ele>
        <time>2015-01-19T14:00:17Z</time>
      </trkpt>
      <trkpt lat="42.69395" lon="1.8017">
        <ele>1668.51</ele>
        <time>2015-01-19T14:00:18Z</time>
      </trkpt>
      <trkpt lat="42.69395" lon="1.80177">
        <ele>1667.06</ele>
        <time>2015-01-19T14:00:19Z</time>
      </trkpt>
      <trkpt lat="42.69394" lon="1.80185">
        <ele>1665.14</ele>
        <time>2015-01-19T14:00:20Z</time>
      </trkpt>
      <trkpt lat="42.69393" lon="1.80193">
        <ele>1663.7</ele>
        <time>2015-01-19T14:00:21Z</time>
      </trkpt>
      <trkpt lat="42.69393" lon="1.80201">
        <ele>1661.78</ele>
        <time>2015-01-19T14:00:22Z</time>
      </trkpt>
      <trkpt lat="42.69392" lon="1.80209">
        <ele>1659.85</ele>
        <time>2015-01-19T14:00:23Z</time>
      </trkpt>
      <trkpt lat="42.69391" lon="1.80235">
        <ele>1654.57</ele>
        <time>2015-01-19T14:00:26Z</time>
      </trkpt>
      <trkpt lat="42.6939" lon="1.80243">
        <ele>1652.64</ele>
        <time>2015-01-19T14:00:27Z</time>
      </trkpt>
      <trkpt lat="42.69388" lon="1.80259">
        <ele>1648.8</ele>
        <time>2015-01-19T14:00:29Z</time>
      </trkpt>
      <trkpt lat="42.69384" lon="1.80273">
        <ele>1641.59</ele>
        <time>2015-01-19T14:00:34Z</time>
      </trkpt>
      <trkpt lat="42.6938" lon="1.80276">
        <ele>1642.07</ele>
        <time>2015-01-19T14:00:42Z</time>
      </trkpt>
      <trkpt lat="42.69371" lon="1.80312">
        <ele>1637.26</ele>
        <time>2015-01-19T14:00:49Z</time>
      </trkpt>
      <trkpt lat="42.69361" lon="1.80338">
        <ele>1631.01</ele>
        <time>2015-01-19T14:00:53Z</time>
      </trkpt>
      <trkpt lat="42.69343" lon="1.80384">
        <ele>1616.59</ele>
        <time>2015-01-19T14:01:00Z</time>
      </trkpt>
      <trkpt lat="42.69334" lon="1.80407">
        <ele>1607.46</ele>
        <time>2015-01-19T14:01:05Z</time>
      </trkpt>
      <trkpt lat="42.69329" lon="1.80418">
        <ele>1603.62</ele>
        <time>2015-01-19T14:01:07Z</time>
      </trkpt>
      <trkpt lat="42.69314" lon="1.80462">
        <ele>1589.68</ele>
        <time>2015-01-19T14:01:14Z</time>
      </trkpt>
      <trkpt lat="42.69305" lon="1.80482">
        <ele>1582.95</ele>
        <time>2015-01-19T14:01:18Z</time>
      </trkpt>
      <trkpt lat="42.69298" lon="1.80508">
        <ele>1574.78</ele>
        <time>2015-01-19T14:01:23Z</time>
      </trkpt>
      <trkpt lat="42.69291" lon="1.80529">
        <ele>1569.01</ele>
        <time>2015-01-19T14:01:27Z</time>
      </trkpt>
      <trkpt lat="42.69291" lon="1.80556">
        <ele>1563.24</ele>
        <time>2015-01-19T14:01:31Z</time>
      </trkpt>
      <trkpt lat="42.69292" lon="1.80573">
        <ele>1560.84</ele>
        <time>2015-01-19T14:01:33Z</time>
      </trkpt>
      <trkpt lat="42.69294" lon="1.80604">
        <ele>1555.07</ele>
        <time>2015-01-19T14:01:37Z</time>
      </trkpt>
      <trkpt lat="42.693" lon="1.80648">
        <ele>1548.82</ele>
        <time>2015-01-19T14:01:43Z</time>
      </trkpt>
      <trkpt lat="42.693" lon="1.80654">
        <ele>1544.98</ele>
        <time>2015-01-19T14:01:48Z</time>
      </trkpt>
      <trkpt lat="42.69322" lon="1.80668">
        <ele>1540.17</ele>
        <time>2015-01-19T14:01:55Z</time>
      </trkpt>
      <trkpt lat="42.69346" lon="1.80692">
        <ele>1532.96</ele>
        <time>2015-01-19T14:02:01Z</time>
      </trkpt>
      <trkpt lat="42.69359" lon="1.80718">
        <ele>1525.27</ele>
        <time>2015-01-19T14:02:07Z</time>
      </trkpt>
      <trkpt lat="42.69368" lon="1.80737">
        <ele>1520.46</ele>
        <time>2015-01-19T14:02:10Z</time>
      </trkpt>
      <trkpt lat="42.69387" lon="1.80785">
        <ele>1508.93</ele>
        <time>2015-01-19T14:02:17Z</time>
      </trkpt>
      <trkpt lat="42.69409" lon="1.8083">
        <ele>1498.35</ele>
        <time>2015-01-19T14:02:23Z</time>
      </trkpt>
      <trkpt lat="42.69436" lon="1.80858">
        <ele>1487.78</ele>
        <time>2015-01-19T14:02:29Z</time>
      </trkpt>
      <trkpt lat="42.69452" lon="1.80875">
        <ele>1482.49</ele>
        <time>2015-01-19T14:02:32Z</time>
      </trkpt>
      <trkpt lat="42.69486" lon="1.80897">
        <ele>1473.84</ele>
        <time>2015-01-19T14:02:38Z</time>
      </trkpt>
      <trkpt lat="42.6951" lon="1.8092">
        <ele>1468.07</ele>
        <time>2015-01-19T14:02:43Z</time>
      </trkpt>
      <trkpt lat="42.69527" lon="1.80934">
        <ele>1464.23</ele>
        <time>2015-01-19T14:02:46Z</time>
      </trkpt>
      <trkpt lat="42.69596" lon="1.8098">
        <ele>1457.5</ele>
        <time>2015-01-19T14:03:00Z</time>
      </trkpt>
      <trkpt lat="42.69599" lon="1.80983">
        <ele>1457.98</ele>
        <time>2015-01-19T14:03:01Z</time>
      </trkpt>
      <trkpt lat="42.69631" lon="1.81003">
        <ele>1457.5</ele>
        <time>2015-01-19T14:03:08Z</time>
      </trkpt>
      <trkpt lat="42.69641" lon="1.81008">
        <ele>1456.53</ele>
        <time>2015-01-19T14:03:10Z</time>
      </trkpt>
      <trkpt lat="42.69672" lon="1.81022">
        <ele>1453.17</ele>
        <time>2015-01-19T14:03:17Z</time>
      </trkpt>
      <trkpt lat="42.69693" lon="1.81031">
        <ele>1449.81</ele>
        <time>2015-01-19T14:03:22Z</time>
      </trkpt>
      <trkpt lat="42.6972" lon="1.81053">
        <ele>1442.11</ele>
        <time>2015-01-19T14:03:29Z</time>
      </trkpt>
      <trkpt lat="42.69737" lon="1.81067">
        <ele>1435.39</ele>
        <time>2015-01-19T14:03:34Z</time>
      </trkpt>
      <trkpt lat="42.69745" lon="1.81074">
        <ele>1430.58</ele>
        <time>2015-01-19T14:03:39Z</time>
      </trkpt>
      <trkpt lat="42.69745" lon="1.81078">
        <ele>1428.66</ele>
        <time>2015-01-19T14:03:55Z</time>
      </trkpt>
      <trkpt lat="42.69746" lon="1.81082">
        <ele>1428.66</ele>
        <time>2015-01-19T14:03:57Z</time>
      </trkpt>
      <trkpt lat="42.69765" lon="1.81108">
        <ele>1424.33</ele>
        <time>2015-01-19T14:04:04Z</time>
      </trkpt>
      <trkpt lat="42.69784" lon="1.81141">
        <ele>1417.6</ele>
        <time>2015-01-19T14:04:10Z</time>
      </trkpt>
      <trkpt lat="42.69788" lon="1.81145">
        <ele>1416.64</ele>
        <time>2015-01-19T14:04:11Z</time>
      </trkpt>
      <trkpt lat="42.69799" lon="1.81163">
        <ele>1413.28</ele>
        <time>2015-01-19T14:04:14Z</time>
      </trkpt>
      <trkpt lat="42.69803" lon="1.81169">
        <ele>1411.83</ele>
        <time>2015-01-19T14:04:15Z</time>
      </trkpt>
      <trkpt lat="42.69808" lon="1.81174">
        <ele>1410.87</ele>
        <time>2015-01-19T14:04:16Z</time>
      </trkpt>
      <trkpt lat="42.69812" lon="1.8118">
        <ele>1409.43</ele>
        <time>2015-01-19T14:04:17Z</time>
      </trkpt>
      <trkpt lat="42.69817" lon="1.81186">
        <ele>1407.99</ele>
        <time>2015-01-19T14:04:18Z</time>
      </trkpt>
      <trkpt lat="42.69824" lon="1.81192">
        <ele>1406.55</ele>
        <time>2015-01-19T14:04:19Z</time>
      </trkpt>
      <trkpt lat="42.6983" lon="1.81197">
        <ele>1405.58</ele>
        <time>2015-01-19T14:04:20Z</time>
      </trkpt>
      <trkpt lat="42.69836" lon="1.81204">
        <ele>1403.66</ele>
        <time>2015-01-19T14:04:21Z</time>
      </trkpt>
      <trkpt lat="42.69902" lon="1.81267">
        <ele>1389.72</ele>
        <time>2015-01-19T14:04:31Z</time>
      </trkpt>
      <trkpt lat="42.69932" lon="1.81298">
        <ele>1384.92</ele>
        <time>2015-01-19T14:04:37Z</time>
      </trkpt>
      <trkpt lat="42.69948" lon="1.81314">
        <ele>1383.96</ele>
        <time>2015-01-19T14:04:41Z</time>
      </trkpt>
      <trkpt lat="42.69975" lon="1.81337">
        <ele>1382.03</ele>
        <time>2015-01-19T14:04:48Z</time>
      </trkpt>
      <trkpt lat="42.70006" lon="1.81362">
        <ele>1378.67</ele>
        <time>2015-01-19T14:04:57Z</time>
      </trkpt>
      <trkpt lat="42.70018" lon="1.81365">
        <ele>1377.23</ele>
        <time>2015-01-19T14:05:00Z</time>
      </trkpt>
      <trkpt lat="42.7002" lon="1.81364">
        <ele>1376.75</ele>
        <time>2015-01-19T14:05:01Z</time>
      </trkpt>
      <trkpt lat="42.7002" lon="1.81361">
        <ele>1376.26</ele>
        <time>2015-01-19T14:05:12Z</time>
      </trkpt>
      <trkpt lat="42.70021" lon="1.81363">
        <ele>1376.26</ele>
        <time>2015-01-19T14:05:23Z</time>
      </trkpt>
      <trkpt lat="42.70022" lon="1.81364">
        <ele>1377.23</ele>
        <time>2015-01-19T14:05:42Z</time>
      </trkpt>
      <trkpt lat="42.70023" lon="1.81363">
        <ele>1379.15</ele>
        <time>2015-01-19T14:05:59Z</time>
      </trkpt>
      <trkpt lat="42.70023" lon="1.81362">
        <ele>1382.51</ele>
        <time>2015-01-19T14:06:11Z</time>
      </trkpt>
      <trkpt lat="42.70023" lon="1.81361">
        <ele>1381.07</ele>
        <time>2015-01-19T14:06:26Z</time>
      </trkpt>
      <trkpt lat="42.70022" lon="1.81362">
        <ele>1381.07</ele>
        <time>2015-01-19T14:06:40Z</time>
      </trkpt>
      <trkpt lat="42.70022" lon="1.8136">
        <ele>1382.03</ele>
        <time>2015-01-19T14:06:54Z</time>
      </trkpt>
      <trkpt lat="42.7002" lon="1.81361">
        <ele>1381.55</ele>
        <time>2015-01-19T14:07:16Z</time>
      </trkpt>
      <trkpt lat="42.70022" lon="1.81355">
        <ele>1384.92</ele>
        <time>2015-01-19T14:07:34Z</time>
      </trkpt>
      <trkpt lat="42.70022" lon="1.81354">
        <ele>1388.28</ele>
        <time>2015-01-19T14:07:55Z</time>
      </trkpt>
      <trkpt lat="42.70018" lon="1.81351">
        <ele>1391.65</ele>
        <time>2015-01-19T14:08:17Z</time>
      </trkpt>
    </trkseg>
  </trk>
</gpx>